<?xml version="1.0" encoding="UTF-8"?>
<gpx xmlns="http://www.topografix.com/GPX/1/1" xmlns:dkl="http://www.gpsware.de/DKL/1/1" xmlns:rtx="http://www.bike-gps.de/RTX/1/1" version="1.1" creator="KOMPASS Digital Map" xmlns:xsi="http://www.w3.org/2001/XMLSchema-instance" xsi:schemaLocation="http://www.topografix.com/GPX/1/1 http://www.topografix.com/GPX/1/1/gpx.xsd">
 <metadata>
 <name>KOMPASS Digital Map Track</name>
 <desc> </desc>
 <time>2010-07-08T16:53:46Z</time>
 <bounds minlat="47.211994" minlon="12.083321" maxlat="47.320423" maxlon="12.796908"/>
 </metadata>
 <trk>
 <name>2010_Krimml_Gerlospass</name>
 <cmt>Krimml - Gerlospass</cmt>
 <extensions>
 <dkl:dkl>
 <dkl:format_version>1.1</dkl:format_version>
 <dkl:format>
 <dkl:color>FF0000</dkl:color>
 <dkl:style>00000000</dkl:style>
 <dkl:strength>3</dkl:strength>
 <dkl:transparent>0</dkl:transparent>
 </dkl:format>
 </dkl:dkl>
 </extensions>
 <trkseg>
 <trkpt lat="47.213673" lon="12.167777">
 <ele>1088.78</ele>
 <time>2010-07-08T08:41:32Z</time>
 </trkpt>
 <trkpt lat="47.213673" lon="12.167777">
 <ele>1088.78</ele>
 <time>2010-07-08T08:41:33Z</time>
 </trkpt>
 <trkpt lat="47.213673" lon="12.167755">
 <ele>1090.01</ele>
 <time>2010-07-08T08:41:43Z</time>
 </trkpt>
 <trkpt lat="47.213676" lon="12.167656">
 <ele>1091.55</ele>
 <time>2010-07-08T08:41:47Z</time>
 </trkpt>
 <trkpt lat="47.213699" lon="12.167372">
 <ele>1093.12</ele>
 <time>2010-07-08T08:41:58Z</time>
 </trkpt>
 <trkpt lat="47.213734" lon="12.167147">
 <ele>1094.76</ele>
 <time>2010-07-08T08:42:07Z</time>
 </trkpt>
 <trkpt lat="47.213753" lon="12.166991">
 <ele>1095.80</ele>
 <time>2010-07-08T08:42:13Z</time>
 </trkpt>
 <trkpt lat="47.213795" lon="12.166713">
 <ele>1097.53</ele>
 <time>2010-07-08T08:42:24Z</time>
 </trkpt>
 <trkpt lat="47.213825" lon="12.166469">
 <ele>1099.26</ele>
 <time>2010-07-08T08:42:34Z</time>
 </trkpt>
 <trkpt lat="47.213905" lon="12.166255">
 <ele>1101.02</ele>
 <time>2010-07-08T08:42:44Z</time>
 </trkpt>
 <trkpt lat="47.213993" lon="12.166034">
 <ele>1102.83</ele>
 <time>2010-07-08T08:42:54Z</time>
 </trkpt>
 <trkpt lat="47.214085" lon="12.165801">
 <ele>1104.71</ele>
 <time>2010-07-08T08:43:05Z</time>
 </trkpt>
 <trkpt lat="47.214249" lon="12.165668">
 <ele>1106.71</ele>
 <time>2010-07-08T08:43:16Z</time>
 </trkpt>
 <trkpt lat="47.214397" lon="12.165551">
 <ele>1108.45</ele>
 <time>2010-07-08T08:43:27Z</time>
 </trkpt>
 <trkpt lat="47.214584" lon="12.165468">
 <ele>1110.49</ele>
 <time>2010-07-08T08:43:39Z</time>
 </trkpt>
 <trkpt lat="47.214752" lon="12.165432">
 <ele>1112.79</ele>
 <time>2010-07-08T08:43:49Z</time>
 </trkpt>
 <trkpt lat="47.214905" lon="12.165399">
 <ele>1114.39</ele>
 <time>2010-07-08T08:43:59Z</time>
 </trkpt>
 <trkpt lat="47.215076" lon="12.165362">
 <ele>1116.11</ele>
 <time>2010-07-08T08:44:10Z</time>
 </trkpt>
 <trkpt lat="47.215225" lon="12.165329">
 <ele>1117.97</ele>
 <time>2010-07-08T08:44:20Z</time>
 </trkpt>
 <trkpt lat="47.215385" lon="12.165331">
 <ele>1119.33</ele>
 <time>2010-07-08T08:44:31Z</time>
 </trkpt>
 <trkpt lat="47.215565" lon="12.165349">
 <ele>1121.29</ele>
 <time>2010-07-08T08:44:42Z</time>
 </trkpt>
 <trkpt lat="47.215717" lon="12.165364">
 <ele>1122.88</ele>
 <time>2010-07-08T08:44:52Z</time>
 </trkpt>
 <trkpt lat="47.215893" lon="12.165381">
 <ele>1125.11</ele>
 <time>2010-07-08T08:45:03Z</time>
 </trkpt>
 <trkpt lat="47.216057" lon="12.165397">
 <ele>1126.36</ele>
 <time>2010-07-08T08:45:13Z</time>
 </trkpt>
 <trkpt lat="47.216267" lon="12.165389">
 <ele>1127.45</ele>
 <time>2010-07-08T08:45:25Z</time>
 </trkpt>
 <trkpt lat="47.216431" lon="12.165366">
 <ele>1129.13</ele>
 <time>2010-07-08T08:45:34Z</time>
 </trkpt>
 <trkpt lat="47.216545" lon="12.165220">
 <ele>1129.80</ele>
 <time>2010-07-08T08:45:42Z</time>
 </trkpt>
 <trkpt lat="47.216515" lon="12.165039">
 <ele>1129.54</ele>
 <time>2010-07-08T08:45:47Z</time>
 </trkpt>
 <trkpt lat="47.216408" lon="12.164945">
 <ele>1129.58</ele>
 <time>2010-07-08T08:45:52Z</time>
 </trkpt>
 <trkpt lat="47.216206" lon="12.164911">
 <ele>1130.00</ele>
 <time>2010-07-08T08:45:59Z</time>
 </trkpt>
 <trkpt lat="47.215939" lon="12.164866">
 <ele>1131.39</ele>
 <time>2010-07-08T08:46:09Z</time>
 </trkpt>
 <trkpt lat="47.215630" lon="12.164826">
 <ele>1133.44</ele>
 <time>2010-07-08T08:46:22Z</time>
 </trkpt>
 <trkpt lat="47.215416" lon="12.164802">
 <ele>1134.58</ele>
 <time>2010-07-08T08:46:31Z</time>
 </trkpt>
 <trkpt lat="47.215160" lon="12.164774">
 <ele>1135.77</ele>
 <time>2010-07-08T08:46:41Z</time>
 </trkpt>
 <trkpt lat="47.214840" lon="12.164738">
 <ele>1137.50</ele>
 <time>2010-07-08T08:46:53Z</time>
 </trkpt>
 <trkpt lat="47.214653" lon="12.164717">
 <ele>1138.57</ele>
 <time>2010-07-08T08:47:00Z</time>
 </trkpt>
 <trkpt lat="47.214424" lon="12.164688">
 <ele>1140.41</ele>
 <time>2010-07-08T08:47:10Z</time>
 </trkpt>
 <trkpt lat="47.214237" lon="12.164652">
 <ele>1142.01</ele>
 <time>2010-07-08T08:47:19Z</time>
 </trkpt>
 <trkpt lat="47.214081" lon="12.164623">
 <ele>1143.83</ele>
 <time>2010-07-08T08:47:29Z</time>
 </trkpt>
 <trkpt lat="47.213928" lon="12.164594">
 <ele>1145.76</ele>
 <time>2010-07-08T08:47:38Z</time>
 </trkpt>
 <trkpt lat="47.213760" lon="12.164562">
 <ele>1147.83</ele>
 <time>2010-07-08T08:47:48Z</time>
 </trkpt>
 <trkpt lat="47.213589" lon="12.164529">
 <ele>1149.48</ele>
 <time>2010-07-08T08:47:57Z</time>
 </trkpt>
 <trkpt lat="47.213402" lon="12.164553">
 <ele>1151.01</ele>
 <time>2010-07-08T08:48:07Z</time>
 </trkpt>
 <trkpt lat="47.213215" lon="12.164594">
 <ele>1152.89</ele>
 <time>2010-07-08T08:48:18Z</time>
 </trkpt>
 <trkpt lat="47.213078" lon="12.164637">
 <ele>1153.98</ele>
 <time>2010-07-08T08:48:26Z</time>
 </trkpt>
 <trkpt lat="47.212952" lon="12.164676">
 <ele>1155.06</ele>
 <time>2010-07-08T08:48:36Z</time>
 </trkpt>
 <trkpt lat="47.212952" lon="12.164676">
 <ele>1156.19</ele>
 <time>2010-07-08T08:48:42Z</time>
 </trkpt>
 <trkpt lat="47.212952" lon="12.164676">
 <ele>1156.35</ele>
 <time>2010-07-08T08:48:43Z</time>
 </trkpt>
 <trkpt lat="47.212952" lon="12.164676">
 <ele>1156.55</ele>
 <time>2010-07-08T08:48:45Z</time>
 </trkpt>
 <trkpt lat="47.212547" lon="12.164931">
 <ele>1157.99</ele>
 <time>2010-07-08T08:49:00Z</time>
 </trkpt>
 <trkpt lat="47.212372" lon="12.165041">
 <ele>1159.19</ele>
 <time>2010-07-08T08:49:15Z</time>
 </trkpt>
 <trkpt lat="47.212208" lon="12.165544">
 <ele>1159.61</ele>
 <time>2010-07-08T08:49:21Z</time>
 </trkpt>
 <trkpt lat="47.212189" lon="12.165715">
 <ele>1160.09</ele>
 <time>2010-07-08T08:49:29Z</time>
 </trkpt>
 <trkpt lat="47.212189" lon="12.165715">
 <ele>1160.22</ele>
 <time>2010-07-08T08:49:31Z</time>
 </trkpt>
 <trkpt lat="47.211994" lon="12.165980">
 <ele>1159.72</ele>
 <time>2010-07-08T08:51:22Z</time>
 </trkpt>
 <trkpt lat="47.212093" lon="12.166093">
 <ele>1160.31</ele>
 <time>2010-07-08T08:51:29Z</time>
 </trkpt>
 <trkpt lat="47.212219" lon="12.166229">
 <ele>1160.81</ele>
 <time>2010-07-08T08:51:36Z</time>
 </trkpt>
 <trkpt lat="47.212353" lon="12.166374">
 <ele>1161.24</ele>
 <time>2010-07-08T08:51:44Z</time>
 </trkpt>
 <trkpt lat="47.212620" lon="12.166102">
 <ele>1161.58</ele>
 <time>2010-07-08T08:51:51Z</time>
 </trkpt>
 <trkpt lat="47.212692" lon="12.165896">
 <ele>1161.90</ele>
 <time>2010-07-08T08:51:58Z</time>
 </trkpt>
 <trkpt lat="47.212708" lon="12.165644">
 <ele>1162.30</ele>
 <time>2010-07-08T08:52:06Z</time>
 </trkpt>
 <trkpt lat="47.212688" lon="12.165351">
 <ele>1162.73</ele>
 <time>2010-07-08T08:52:15Z</time>
 </trkpt>
 <trkpt lat="47.212673" lon="12.165100">
 <ele>1163.46</ele>
 <time>2010-07-08T08:52:23Z</time>
 </trkpt>
 <trkpt lat="47.212711" lon="12.164841">
 <ele>1164.37</ele>
 <time>2010-07-08T08:52:32Z</time>
 </trkpt>
 <trkpt lat="47.212761" lon="12.164641">
 <ele>1166.13</ele>
 <time>2010-07-08T08:52:40Z</time>
 </trkpt>
 <trkpt lat="47.212841" lon="12.164455">
 <ele>1167.36</ele>
 <time>2010-07-08T08:52:48Z</time>
 </trkpt>
 <trkpt lat="47.212963" lon="12.164281">
 <ele>1169.23</ele>
 <time>2010-07-08T08:52:58Z</time>
 </trkpt>
 <trkpt lat="47.213112" lon="12.164183">
 <ele>1171.06</ele>
 <time>2010-07-08T08:53:08Z</time>
 </trkpt>
 <trkpt lat="47.213268" lon="12.164122">
 <ele>1172.50</ele>
 <time>2010-07-08T08:53:18Z</time>
 </trkpt>
 <trkpt lat="47.213367" lon="12.164099">
 <ele>1173.91</ele>
 <time>2010-07-08T08:53:24Z</time>
 </trkpt>
 <trkpt lat="47.213493" lon="12.164081">
 <ele>1174.96</ele>
 <time>2010-07-08T08:53:32Z</time>
 </trkpt>
 <trkpt lat="47.213642" lon="12.164059">
 <ele>1176.26</ele>
 <time>2010-07-08T08:53:41Z</time>
 </trkpt>
 <trkpt lat="47.213802" lon="12.164037">
 <ele>1177.91</ele>
 <time>2010-07-08T08:53:51Z</time>
 </trkpt>
 <trkpt lat="47.213936" lon="12.164049">
 <ele>1179.07</ele>
 <time>2010-07-08T08:53:59Z</time>
 </trkpt>
 <trkpt lat="47.214157" lon="12.164082">
 <ele>1181.26</ele>
 <time>2010-07-08T08:54:12Z</time>
 </trkpt>
 <trkpt lat="47.214359" lon="12.164113">
 <ele>1183.26</ele>
 <time>2010-07-08T08:54:24Z</time>
 </trkpt>
 <trkpt lat="47.214516" lon="12.164137">
 <ele>1184.72</ele>
 <time>2010-07-08T08:54:33Z</time>
 </trkpt>
 <trkpt lat="47.214691" lon="12.164164">
 <ele>1186.25</ele>
 <time>2010-07-08T08:54:43Z</time>
 </trkpt>
 <trkpt lat="47.214867" lon="12.164183">
 <ele>1187.94</ele>
 <time>2010-07-08T08:54:53Z</time>
 </trkpt>
 <trkpt lat="47.215103" lon="12.164180">
 <ele>1190.17</ele>
 <time>2010-07-08T08:55:06Z</time>
 </trkpt>
 <trkpt lat="47.215294" lon="12.164079">
 <ele>1191.87</ele>
 <time>2010-07-08T08:55:17Z</time>
 </trkpt>
 <trkpt lat="47.215416" lon="12.164014">
 <ele>1193.04</ele>
 <time>2010-07-08T08:55:24Z</time>
 </trkpt>
 <trkpt lat="47.215546" lon="12.163924">
 <ele>1194.09</ele>
 <time>2010-07-08T08:55:32Z</time>
 </trkpt>
 <trkpt lat="47.215672" lon="12.163826">
 <ele>1195.17</ele>
 <time>2010-07-08T08:55:41Z</time>
 </trkpt>
 <trkpt lat="47.215816" lon="12.163686">
 <ele>1196.69</ele>
 <time>2010-07-08T08:55:51Z</time>
 </trkpt>
 <trkpt lat="47.215950" lon="12.163509">
 <ele>1198.35</ele>
 <time>2010-07-08T08:56:02Z</time>
 </trkpt>
 <trkpt lat="47.216072" lon="12.163353">
 <ele>1199.38</ele>
 <time>2010-07-08T08:56:11Z</time>
 </trkpt>
 <trkpt lat="47.216190" lon="12.163197">
 <ele>1200.69</ele>
 <time>2010-07-08T08:56:20Z</time>
 </trkpt>
 <trkpt lat="47.216324" lon="12.163027">
 <ele>1202.18</ele>
 <time>2010-07-08T08:56:30Z</time>
 </trkpt>
 <trkpt lat="47.216476" lon="12.162893">
 <ele>1203.65</ele>
 <time>2010-07-08T08:56:41Z</time>
 </trkpt>
 <trkpt lat="47.216621" lon="12.162775">
 <ele>1205.23</ele>
 <time>2010-07-08T08:56:51Z</time>
 </trkpt>
 <trkpt lat="47.216766" lon="12.162659">
 <ele>1206.57</ele>
 <time>2010-07-08T08:57:01Z</time>
 </trkpt>
 <trkpt lat="47.216885" lon="12.162571">
 <ele>1208.06</ele>
 <time>2010-07-08T08:57:10Z</time>
 </trkpt>
 <trkpt lat="47.217026" lon="12.162468">
 <ele>1209.68</ele>
 <time>2010-07-08T08:57:19Z</time>
 </trkpt>
 <trkpt lat="47.217201" lon="12.162390">
 <ele>1211.34</ele>
 <time>2010-07-08T08:57:29Z</time>
 </trkpt>
 <trkpt lat="47.217339" lon="12.162329">
 <ele>1212.68</ele>
 <time>2010-07-08T08:57:37Z</time>
 </trkpt>
 <trkpt lat="47.217491" lon="12.162260">
 <ele>1214.04</ele>
 <time>2010-07-08T08:57:46Z</time>
 </trkpt>
 <trkpt lat="47.217651" lon="12.162191">
 <ele>1215.73</ele>
 <time>2010-07-08T08:57:56Z</time>
 </trkpt>
 <trkpt lat="47.217842" lon="12.162107">
 <ele>1217.65</ele>
 <time>2010-07-08T08:58:08Z</time>
 </trkpt>
 <trkpt lat="47.218006" lon="12.162034">
 <ele>1219.11</ele>
 <time>2010-07-08T08:58:18Z</time>
 </trkpt>
 <trkpt lat="47.218163" lon="12.161952">
 <ele>1220.85</ele>
 <time>2010-07-08T08:58:28Z</time>
 </trkpt>
 <trkpt lat="47.218292" lon="12.161814">
 <ele>1221.53</ele>
 <time>2010-07-08T08:58:37Z</time>
 </trkpt>
 <trkpt lat="47.218426" lon="12.161659">
 <ele>1223.91</ele>
 <time>2010-07-08T08:58:47Z</time>
 </trkpt>
 <trkpt lat="47.218552" lon="12.161471">
 <ele>1225.59</ele>
 <time>2010-07-08T08:58:57Z</time>
 </trkpt>
 <trkpt lat="47.218670" lon="12.161282">
 <ele>1226.88</ele>
 <time>2010-07-08T08:59:07Z</time>
 </trkpt>
 <trkpt lat="47.218731" lon="12.161105">
 <ele>1228.15</ele>
 <time>2010-07-08T08:59:15Z</time>
 </trkpt>
 <trkpt lat="47.218800" lon="12.160907">
 <ele>1229.65</ele>
 <time>2010-07-08T08:59:25Z</time>
 </trkpt>
 <trkpt lat="47.218845" lon="12.160602">
 <ele>1231.17</ele>
 <time>2010-07-08T08:59:37Z</time>
 </trkpt>
 <trkpt lat="47.218884" lon="12.160297">
 <ele>1233.09</ele>
 <time>2010-07-08T08:59:49Z</time>
 </trkpt>
 <trkpt lat="47.218880" lon="12.160004">
 <ele>1234.61</ele>
 <time>2010-07-08T09:00:00Z</time>
 </trkpt>
 <trkpt lat="47.218857" lon="12.159701">
 <ele>1236.48</ele>
 <time>2010-07-08T09:00:12Z</time>
 </trkpt>
 <trkpt lat="47.218822" lon="12.159354">
 <ele>1238.66</ele>
 <time>2010-07-08T09:00:26Z</time>
 </trkpt>
 <trkpt lat="47.218773" lon="12.159100">
 <ele>1240.39</ele>
 <time>2010-07-08T09:00:36Z</time>
 </trkpt>
 <trkpt lat="47.218731" lon="12.158884">
 <ele>1241.48</ele>
 <time>2010-07-08T09:00:44Z</time>
 </trkpt>
 <trkpt lat="47.218674" lon="12.158586">
 <ele>1242.88</ele>
 <time>2010-07-08T09:00:54Z</time>
 </trkpt>
 <trkpt lat="47.218624" lon="12.158319">
 <ele>1244.38</ele>
 <time>2010-07-08T09:01:03Z</time>
 </trkpt>
 <trkpt lat="47.218609" lon="12.158038">
 <ele>1245.47</ele>
 <time>2010-07-08T09:01:12Z</time>
 </trkpt>
 <trkpt lat="47.218651" lon="12.157769">
 <ele>1246.85</ele>
 <time>2010-07-08T09:01:21Z</time>
 </trkpt>
 <trkpt lat="47.218761" lon="12.157573">
 <ele>1247.84</ele>
 <time>2010-07-08T09:01:29Z</time>
 </trkpt>
 <trkpt lat="47.218891" lon="12.157462">
 <ele>1248.72</ele>
 <time>2010-07-08T09:01:36Z</time>
 </trkpt>
 <trkpt lat="47.219055" lon="12.157386">
 <ele>1250.41</ele>
 <time>2010-07-08T09:01:45Z</time>
 </trkpt>
 <trkpt lat="47.219223" lon="12.157398">
 <ele>1252.48</ele>
 <time>2010-07-08T09:01:54Z</time>
 </trkpt>
 <trkpt lat="47.219418" lon="12.157420">
 <ele>1254.04</ele>
 <time>2010-07-08T09:02:05Z</time>
 </trkpt>
 <trkpt lat="47.219604" lon="12.157487">
 <ele>1255.97</ele>
 <time>2010-07-08T09:02:16Z</time>
 </trkpt>
 <trkpt lat="47.219753" lon="12.157550">
 <ele>1257.56</ele>
 <time>2010-07-08T09:02:25Z</time>
 </trkpt>
 <trkpt lat="47.219898" lon="12.157627">
 <ele>1259.44</ele>
 <time>2010-07-08T09:02:34Z</time>
 </trkpt>
 <trkpt lat="47.220036" lon="12.157742">
 <ele>1261.05</ele>
 <time>2010-07-08T09:02:43Z</time>
 </trkpt>
 <trkpt lat="47.220154" lon="12.157856">
 <ele>1262.17</ele>
 <time>2010-07-08T09:02:51Z</time>
 </trkpt>
 <trkpt lat="47.220299" lon="12.158037">
 <ele>1263.99</ele>
 <time>2010-07-08T09:03:02Z</time>
 </trkpt>
 <trkpt lat="47.220425" lon="12.158196">
 <ele>1265.72</ele>
 <time>2010-07-08T09:03:12Z</time>
 </trkpt>
 <trkpt lat="47.220573" lon="12.158385">
 <ele>1267.63</ele>
 <time>2010-07-08T09:03:24Z</time>
 </trkpt>
 <trkpt lat="47.220715" lon="12.158554">
 <ele>1269.51</ele>
 <time>2010-07-08T09:03:35Z</time>
 </trkpt>
 <trkpt lat="47.220856" lon="12.158689">
 <ele>1270.61</ele>
 <time>2010-07-08T09:03:45Z</time>
 </trkpt>
 <trkpt lat="47.220989" lon="12.158818">
 <ele>1272.52</ele>
 <time>2010-07-08T09:03:55Z</time>
 </trkpt>
 <trkpt lat="47.221088" lon="12.158909">
 <ele>1273.70</ele>
 <time>2010-07-08T09:04:03Z</time>
 </trkpt>
 <trkpt lat="47.221203" lon="12.159018">
 <ele>1274.63</ele>
 <time>2010-07-08T09:04:11Z</time>
 </trkpt>
 <trkpt lat="47.221329" lon="12.159139">
 <ele>1276.01</ele>
 <time>2010-07-08T09:04:20Z</time>
 </trkpt>
 <trkpt lat="47.221462" lon="12.159268">
 <ele>1277.38</ele>
 <time>2010-07-08T09:04:29Z</time>
 </trkpt>
 <trkpt lat="47.221611" lon="12.159407">
 <ele>1279.16</ele>
 <time>2010-07-08T09:04:39Z</time>
 </trkpt>
 <trkpt lat="47.221741" lon="12.159530">
 <ele>1280.63</ele>
 <time>2010-07-08T09:04:48Z</time>
 </trkpt>
 <trkpt lat="47.221897" lon="12.159682">
 <ele>1282.52</ele>
 <time>2010-07-08T09:04:59Z</time>
 </trkpt>
 <trkpt lat="47.222061" lon="12.159837">
 <ele>1284.46</ele>
 <time>2010-07-08T09:05:10Z</time>
 </trkpt>
 <trkpt lat="47.222195" lon="12.159964">
 <ele>1285.68</ele>
 <time>2010-07-08T09:05:19Z</time>
 </trkpt>
 <trkpt lat="47.222393" lon="12.160153">
 <ele>1287.44</ele>
 <time>2010-07-08T09:05:32Z</time>
 </trkpt>
 <trkpt lat="47.222546" lon="12.160242">
 <ele>1288.82</ele>
 <time>2010-07-08T09:05:41Z</time>
 </trkpt>
 <trkpt lat="47.222694" lon="12.160123">
 <ele>1289.27</ele>
 <time>2010-07-08T09:05:48Z</time>
 </trkpt>
 <trkpt lat="47.222672" lon="12.159936">
 <ele>1289.62</ele>
 <time>2010-07-08T09:05:54Z</time>
 </trkpt>
 <trkpt lat="47.222553" lon="12.159780">
 <ele>1289.26</ele>
 <time>2010-07-08T09:06:01Z</time>
 </trkpt>
 <trkpt lat="47.222458" lon="12.159653">
 <ele>1289.48</ele>
 <time>2010-07-08T09:06:07Z</time>
 </trkpt>
 <trkpt lat="47.222340" lon="12.159496">
 <ele>1290.39</ele>
 <time>2010-07-08T09:06:15Z</time>
 </trkpt>
 <trkpt lat="47.222221" lon="12.159346">
 <ele>1291.37</ele>
 <time>2010-07-08T09:06:23Z</time>
 </trkpt>
 <trkpt lat="47.222179" lon="12.159287">
 <ele>1291.93</ele>
 <time>2010-07-08T09:06:26Z</time>
 </trkpt>
 <trkpt lat="47.222080" lon="12.159159">
 <ele>1293.13</ele>
 <time>2010-07-08T09:06:33Z</time>
 </trkpt>
 <trkpt lat="47.221992" lon="12.159045">
 <ele>1294.30</ele>
 <time>2010-07-08T09:06:39Z</time>
 </trkpt>
 <trkpt lat="47.221981" lon="12.159030">
 <ele>1294.62</ele>
 <time>2010-07-08T09:06:42Z</time>
 </trkpt>
 <trkpt lat="47.221889" lon="12.158910">
 <ele>1295.37</ele>
 <time>2010-07-08T09:07:17Z</time>
 </trkpt>
 <trkpt lat="47.221832" lon="12.158836">
 <ele>1295.92</ele>
 <time>2010-07-08T09:07:22Z</time>
 </trkpt>
 <trkpt lat="47.221729" lon="12.158678">
 <ele>1296.48</ele>
 <time>2010-07-08T09:07:30Z</time>
 </trkpt>
 <trkpt lat="47.221657" lon="12.158545">
 <ele>1297.64</ele>
 <time>2010-07-08T09:07:37Z</time>
 </trkpt>
 <trkpt lat="47.221645" lon="12.158527">
 <ele>1297.85</ele>
 <time>2010-07-08T09:07:38Z</time>
 </trkpt>
 <trkpt lat="47.221603" lon="12.158453">
 <ele>1298.38</ele>
 <time>2010-07-08T09:07:42Z</time>
 </trkpt>
 <trkpt lat="47.221481" lon="12.158225">
 <ele>1300.45</ele>
 <time>2010-07-08T09:07:54Z</time>
 </trkpt>
 <trkpt lat="47.221355" lon="12.157996">
 <ele>1302.24</ele>
 <time>2010-07-08T09:08:06Z</time>
 </trkpt>
 <trkpt lat="47.221241" lon="12.157768">
 <ele>1303.60</ele>
 <time>2010-07-08T09:08:17Z</time>
 </trkpt>
 <trkpt lat="47.221153" lon="12.157570">
 <ele>1304.95</ele>
 <time>2010-07-08T09:08:26Z</time>
 </trkpt>
 <trkpt lat="47.221058" lon="12.157352">
 <ele>1306.74</ele>
 <time>2010-07-08T09:08:36Z</time>
 </trkpt>
 <trkpt lat="47.220951" lon="12.157117">
 <ele>1308.43</ele>
 <time>2010-07-08T09:08:47Z</time>
 </trkpt>
 <trkpt lat="47.220837" lon="12.156859">
 <ele>1310.15</ele>
 <time>2010-07-08T09:08:59Z</time>
 </trkpt>
 <trkpt lat="47.220737" lon="12.156633">
 <ele>1311.48</ele>
 <time>2010-07-08T09:09:09Z</time>
 </trkpt>
 <trkpt lat="47.220638" lon="12.156415">
 <ele>1313.40</ele>
 <time>2010-07-08T09:09:19Z</time>
 </trkpt>
 <trkpt lat="47.220543" lon="12.156203">
 <ele>1315.07</ele>
 <time>2010-07-08T09:09:29Z</time>
 </trkpt>
 <trkpt lat="47.220440" lon="12.155967">
 <ele>1316.47</ele>
 <time>2010-07-08T09:09:40Z</time>
 </trkpt>
 <trkpt lat="47.220341" lon="12.155792">
 <ele>1317.83</ele>
 <time>2010-07-08T09:09:49Z</time>
 </trkpt>
 <trkpt lat="47.220215" lon="12.155581">
 <ele>1319.15</ele>
 <time>2010-07-08T09:10:00Z</time>
 </trkpt>
 <trkpt lat="47.220097" lon="12.155381">
 <ele>1320.92</ele>
 <time>2010-07-08T09:10:10Z</time>
 </trkpt>
 <trkpt lat="47.219959" lon="12.155156">
 <ele>1322.87</ele>
 <time>2010-07-08T09:10:21Z</time>
 </trkpt>
 <trkpt lat="47.219830" lon="12.154930">
 <ele>1324.24</ele>
 <time>2010-07-08T09:10:31Z</time>
 </trkpt>
 <trkpt lat="47.219742" lon="12.154719">
 <ele>1325.44</ele>
 <time>2010-07-08T09:10:40Z</time>
 </trkpt>
 <trkpt lat="47.219658" lon="12.154510">
 <ele>1326.78</ele>
 <time>2010-07-08T09:10:49Z</time>
 </trkpt>
 <trkpt lat="47.219578" lon="12.154258">
 <ele>1328.51</ele>
 <time>2010-07-08T09:10:59Z</time>
 </trkpt>
 <trkpt lat="47.219509" lon="12.154034">
 <ele>1329.88</ele>
 <time>2010-07-08T09:11:09Z</time>
 </trkpt>
 <trkpt lat="47.219433" lon="12.153785">
 <ele>1331.79</ele>
 <time>2010-07-08T09:11:20Z</time>
 </trkpt>
 <trkpt lat="47.219372" lon="12.153582">
 <ele>1333.26</ele>
 <time>2010-07-08T09:11:29Z</time>
 </trkpt>
 <trkpt lat="47.219265" lon="12.153352">
 <ele>1334.89</ele>
 <time>2010-07-08T09:11:41Z</time>
 </trkpt>
 <trkpt lat="47.219143" lon="12.153134">
 <ele>1336.69</ele>
 <time>2010-07-08T09:11:52Z</time>
 </trkpt>
 <trkpt lat="47.219021" lon="12.152899">
 <ele>1338.22</ele>
 <time>2010-07-08T09:12:03Z</time>
 </trkpt>
 <trkpt lat="47.219009" lon="12.152730">
 <ele>1338.86</ele>
 <time>2010-07-08T09:12:09Z</time>
 </trkpt>
 <trkpt lat="47.219109" lon="12.152617">
 <ele>1339.73</ele>
 <time>2010-07-08T09:12:15Z</time>
 </trkpt>
 <trkpt lat="47.219223" lon="12.152674">
 <ele>1340.03</ele>
 <time>2010-07-08T09:12:21Z</time>
 </trkpt>
 <trkpt lat="47.219353" lon="12.152884">
 <ele>1340.91</ele>
 <time>2010-07-08T09:12:30Z</time>
 </trkpt>
 <trkpt lat="47.219467" lon="12.153091">
 <ele>1342.39</ele>
 <time>2010-07-08T09:12:40Z</time>
 </trkpt>
 <trkpt lat="47.219589" lon="12.153308">
 <ele>1344.17</ele>
 <time>2010-07-08T09:12:51Z</time>
 </trkpt>
 <trkpt lat="47.219742" lon="12.153516">
 <ele>1346.09</ele>
 <time>2010-07-08T09:13:02Z</time>
 </trkpt>
 <trkpt lat="47.219883" lon="12.153698">
 <ele>1347.90</ele>
 <time>2010-07-08T09:13:13Z</time>
 </trkpt>
 <trkpt lat="47.220009" lon="12.153860">
 <ele>1349.41</ele>
 <time>2010-07-08T09:13:23Z</time>
 </trkpt>
 <trkpt lat="47.220123" lon="12.154008">
 <ele>1351.17</ele>
 <time>2010-07-08T09:13:32Z</time>
 </trkpt>
 <trkpt lat="47.220268" lon="12.154150">
 <ele>1352.78</ele>
 <time>2010-07-08T09:13:42Z</time>
 </trkpt>
 <trkpt lat="47.220387" lon="12.154257">
 <ele>1354.75</ele>
 <time>2010-07-08T09:13:50Z</time>
 </trkpt>
 <trkpt lat="47.220554" lon="12.154411">
 <ele>1356.75</ele>
 <time>2010-07-08T09:14:01Z</time>
 </trkpt>
 <trkpt lat="47.220737" lon="12.154545">
 <ele>1358.49</ele>
 <time>2010-07-08T09:14:13Z</time>
 </trkpt>
 <trkpt lat="47.220882" lon="12.154639">
 <ele>1359.94</ele>
 <time>2010-07-08T09:14:22Z</time>
 </trkpt>
 <trkpt lat="47.221088" lon="12.154788">
 <ele>1361.91</ele>
 <time>2010-07-08T09:14:35Z</time>
 </trkpt>
 <trkpt lat="47.221252" lon="12.154959">
 <ele>1363.75</ele>
 <time>2010-07-08T09:14:46Z</time>
 </trkpt>
 <trkpt lat="47.221424" lon="12.155201">
 <ele>1366.18</ele>
 <time>2010-07-08T09:14:59Z</time>
 </trkpt>
 <trkpt lat="47.221554" lon="12.155383">
 <ele>1367.61</ele>
 <time>2010-07-08T09:15:09Z</time>
 </trkpt>
 <trkpt lat="47.221661" lon="12.155512">
 <ele>1368.71</ele>
 <time>2010-07-08T09:15:17Z</time>
 </trkpt>
 <trkpt lat="47.221775" lon="12.155557">
 <ele>1369.05</ele>
 <time>2010-07-08T09:15:24Z</time>
 </trkpt>
 <trkpt lat="47.221867" lon="12.155440">
 <ele>1369.58</ele>
 <time>2010-07-08T09:15:30Z</time>
 </trkpt>
 <trkpt lat="47.221828" lon="12.155303">
 <ele>1369.91</ele>
 <time>2010-07-08T09:15:35Z</time>
 </trkpt>
 <trkpt lat="47.221729" lon="12.155079">
 <ele>1369.93</ele>
 <time>2010-07-08T09:15:43Z</time>
 </trkpt>
 <trkpt lat="47.221607" lon="12.154857">
 <ele>1370.81</ele>
 <time>2010-07-08T09:15:52Z</time>
 </trkpt>
 <trkpt lat="47.221493" lon="12.154650">
 <ele>1372.53</ele>
 <time>2010-07-08T09:16:02Z</time>
 </trkpt>
 <trkpt lat="47.221378" lon="12.154444">
 <ele>1374.39</ele>
 <time>2010-07-08T09:16:12Z</time>
 </trkpt>
 <trkpt lat="47.221264" lon="12.154240">
 <ele>1376.64</ele>
 <time>2010-07-08T09:16:22Z</time>
 </trkpt>
 <trkpt lat="47.221111" lon="12.153967">
 <ele>1378.81</ele>
 <time>2010-07-08T09:16:36Z</time>
 </trkpt>
 <trkpt lat="47.220985" lon="12.153759">
 <ele>1381.02</ele>
 <time>2010-07-08T09:16:47Z</time>
 </trkpt>
 <trkpt lat="47.220898" lon="12.153617">
 <ele>1382.17</ele>
 <time>2010-07-08T09:16:55Z</time>
 </trkpt>
 <trkpt lat="47.220791" lon="12.153443">
 <ele>1383.67</ele>
 <time>2010-07-08T09:17:04Z</time>
 </trkpt>
 <trkpt lat="47.220650" lon="12.153209">
 <ele>1385.72</ele>
 <time>2010-07-08T09:17:16Z</time>
 </trkpt>
 <trkpt lat="47.220547" lon="12.152982">
 <ele>1387.75</ele>
 <time>2010-07-08T09:17:27Z</time>
 </trkpt>
 <trkpt lat="47.220463" lon="12.152759">
 <ele>1389.29</ele>
 <time>2010-07-08T09:17:37Z</time>
 </trkpt>
 <trkpt lat="47.220375" lon="12.152492">
 <ele>1391.66</ele>
 <time>2010-07-08T09:17:49Z</time>
 </trkpt>
 <trkpt lat="47.220303" lon="12.152270">
 <ele>1393.50</ele>
 <time>2010-07-08T09:17:59Z</time>
 </trkpt>
 <trkpt lat="47.220257" lon="12.151918">
 <ele>1395.46</ele>
 <time>2010-07-08T09:18:13Z</time>
 </trkpt>
 <trkpt lat="47.220226" lon="12.151620">
 <ele>1397.24</ele>
 <time>2010-07-08T09:18:25Z</time>
 </trkpt>
 <trkpt lat="47.220196" lon="12.151342">
 <ele>1399.37</ele>
 <time>2010-07-08T09:18:36Z</time>
 </trkpt>
 <trkpt lat="47.220161" lon="12.151046">
 <ele>1401.58</ele>
 <time>2010-07-08T09:18:48Z</time>
 </trkpt>
 <trkpt lat="47.220161" lon="12.150773">
 <ele>1402.92</ele>
 <time>2010-07-08T09:18:58Z</time>
 </trkpt>
 <trkpt lat="47.220230" lon="12.150564">
 <ele>1403.37</ele>
 <time>2010-07-08T09:19:05Z</time>
 </trkpt>
 <trkpt lat="47.220387" lon="12.150502">
 <ele>1403.68</ele>
 <time>2010-07-08T09:19:11Z</time>
 </trkpt>
 <trkpt lat="47.220539" lon="12.150671">
 <ele>1404.22</ele>
 <time>2010-07-08T09:19:19Z</time>
 </trkpt>
 <trkpt lat="47.220665" lon="12.150836">
 <ele>1405.68</ele>
 <time>2010-07-08T09:19:28Z</time>
 </trkpt>
 <trkpt lat="47.220810" lon="12.151036">
 <ele>1407.46</ele>
 <time>2010-07-08T09:19:39Z</time>
 </trkpt>
 <trkpt lat="47.220940" lon="12.151220">
 <ele>1409.51</ele>
 <time>2010-07-08T09:19:49Z</time>
 </trkpt>
 <trkpt lat="47.221107" lon="12.151453">
 <ele>1411.80</ele>
 <time>2010-07-08T09:20:02Z</time>
 </trkpt>
 <trkpt lat="47.221245" lon="12.151654">
 <ele>1413.29</ele>
 <time>2010-07-08T09:20:12Z</time>
 </trkpt>
 <trkpt lat="47.221329" lon="12.151854">
 <ele>1414.90</ele>
 <time>2010-07-08T09:20:21Z</time>
 </trkpt>
 <trkpt lat="47.221416" lon="12.152067">
 <ele>1415.76</ele>
 <time>2010-07-08T09:20:30Z</time>
 </trkpt>
 <trkpt lat="47.221516" lon="12.152308">
 <ele>1417.01</ele>
 <time>2010-07-08T09:20:40Z</time>
 </trkpt>
 <trkpt lat="47.221584" lon="12.152478">
 <ele>1417.81</ele>
 <time>2010-07-08T09:20:47Z</time>
 </trkpt>
 <trkpt lat="47.221680" lon="12.152580">
 <ele>1418.58</ele>
 <time>2010-07-08T09:20:55Z</time>
 </trkpt>
 <trkpt lat="47.221786" lon="12.152584">
 <ele>1419.41</ele>
 <time>2010-07-08T09:21:01Z</time>
 </trkpt>
 <trkpt lat="47.221836" lon="12.152416">
 <ele>1418.85</ele>
 <time>2010-07-08T09:21:06Z</time>
 </trkpt>
 <trkpt lat="47.221790" lon="12.152175">
 <ele>1419.17</ele>
 <time>2010-07-08T09:21:13Z</time>
 </trkpt>
 <trkpt lat="47.221680" lon="12.151874">
 <ele>1419.95</ele>
 <time>2010-07-08T09:21:23Z</time>
 </trkpt>
 <trkpt lat="47.221569" lon="12.151571">
 <ele>1422.16</ele>
 <time>2010-07-08T09:21:35Z</time>
 </trkpt>
 <trkpt lat="47.221474" lon="12.151310">
 <ele>1423.14</ele>
 <time>2010-07-08T09:21:45Z</time>
 </trkpt>
 <trkpt lat="47.221462" lon="12.151159">
 <ele>1423.67</ele>
 <time>2010-07-08T09:21:51Z</time>
 </trkpt>
 <trkpt lat="47.221535" lon="12.151088">
 <ele>1423.79</ele>
 <time>2010-07-08T09:21:55Z</time>
 </trkpt>
 <trkpt lat="47.221676" lon="12.151117">
 <ele>1424.75</ele>
 <time>2010-07-08T09:22:01Z</time>
 </trkpt>
 <trkpt lat="47.221786" lon="12.151396">
 <ele>1425.76</ele>
 <time>2010-07-08T09:22:11Z</time>
 </trkpt>
 <trkpt lat="47.221882" lon="12.151688">
 <ele>1427.62</ele>
 <time>2010-07-08T09:22:22Z</time>
 </trkpt>
 <trkpt lat="47.222000" lon="12.152039">
 <ele>1429.32</ele>
 <time>2010-07-08T09:22:36Z</time>
 </trkpt>
 <trkpt lat="47.222095" lon="12.152331">
 <ele>1431.45</ele>
 <time>2010-07-08T09:22:48Z</time>
 </trkpt>
 <trkpt lat="47.222164" lon="12.152563">
 <ele>1433.41</ele>
 <time>2010-07-08T09:22:58Z</time>
 </trkpt>
 <trkpt lat="47.222313" lon="12.152728">
 <ele>1435.30</ele>
 <time>2010-07-08T09:23:09Z</time>
 </trkpt>
 <trkpt lat="47.222492" lon="12.152876">
 <ele>1437.25</ele>
 <time>2010-07-08T09:23:21Z</time>
 </trkpt>
 <trkpt lat="47.222668" lon="12.153024">
 <ele>1438.86</ele>
 <time>2010-07-08T09:23:33Z</time>
 </trkpt>
 <trkpt lat="47.222824" lon="12.153153">
 <ele>1440.42</ele>
 <time>2010-07-08T09:23:43Z</time>
 </trkpt>
 <trkpt lat="47.222961" lon="12.153323">
 <ele>1442.81</ele>
 <time>2010-07-08T09:23:53Z</time>
 </trkpt>
 <trkpt lat="47.223057" lon="12.153568">
 <ele>1444.72</ele>
 <time>2010-07-08T09:24:04Z</time>
 </trkpt>
 <trkpt lat="47.223148" lon="12.153807">
 <ele>1446.51</ele>
 <time>2010-07-08T09:24:15Z</time>
 </trkpt>
 <trkpt lat="47.223232" lon="12.154080">
 <ele>1448.89</ele>
 <time>2010-07-08T09:24:26Z</time>
 </trkpt>
 <trkpt lat="47.223240" lon="12.154370">
 <ele>1450.49</ele>
 <time>2010-07-08T09:24:37Z</time>
 </trkpt>
 <trkpt lat="47.223244" lon="12.154606">
 <ele>1452.72</ele>
 <time>2010-07-08T09:24:46Z</time>
 </trkpt>
 <trkpt lat="47.223251" lon="12.154856">
 <ele>1454.62</ele>
 <time>2010-07-08T09:24:56Z</time>
 </trkpt>
 <trkpt lat="47.223293" lon="12.155040">
 <ele>1455.89</ele>
 <time>2010-07-08T09:25:04Z</time>
 </trkpt>
 <trkpt lat="47.223347" lon="12.155229">
 <ele>1457.40</ele>
 <time>2010-07-08T09:25:13Z</time>
 </trkpt>
 <trkpt lat="47.223412" lon="12.155469">
 <ele>1458.95</ele>
 <time>2010-07-08T09:25:24Z</time>
 </trkpt>
 <trkpt lat="47.223480" lon="12.155707">
 <ele>1460.71</ele>
 <time>2010-07-08T09:25:35Z</time>
 </trkpt>
 <trkpt lat="47.223541" lon="12.155917">
 <ele>1461.83</ele>
 <time>2010-07-08T09:25:44Z</time>
 </trkpt>
 <trkpt lat="47.223606" lon="12.156148">
 <ele>1464.07</ele>
 <time>2010-07-08T09:25:54Z</time>
 </trkpt>
 <trkpt lat="47.223709" lon="12.156291">
 <ele>1465.18</ele>
 <time>2010-07-08T09:26:02Z</time>
 </trkpt>
 <trkpt lat="47.223907" lon="12.156328">
 <ele>1466.71</ele>
 <time>2010-07-08T09:26:13Z</time>
 </trkpt>
 <trkpt lat="47.224026" lon="12.156314">
 <ele>1467.88</ele>
 <time>2010-07-08T09:26:20Z</time>
 </trkpt>
 <trkpt lat="47.224224" lon="12.156291">
 <ele>1470.18</ele>
 <time>2010-07-08T09:26:32Z</time>
 </trkpt>
 <trkpt lat="47.224361" lon="12.156276">
 <ele>1471.74</ele>
 <time>2010-07-08T09:26:40Z</time>
 </trkpt>
 <trkpt lat="47.224518" lon="12.156258">
 <ele>1473.48</ele>
 <time>2010-07-08T09:26:50Z</time>
 </trkpt>
 <trkpt lat="47.224667" lon="12.156240">
 <ele>1475.12</ele>
 <time>2010-07-08T09:26:59Z</time>
 </trkpt>
 <trkpt lat="47.224831" lon="12.156221">
 <ele>1476.63</ele>
 <time>2010-07-08T09:27:09Z</time>
 </trkpt>
 <trkpt lat="47.225006" lon="12.156201">
 <ele>1478.16</ele>
 <time>2010-07-08T09:27:19Z</time>
 </trkpt>
 <trkpt lat="47.225147" lon="12.156227">
 <ele>1479.88</ele>
 <time>2010-07-08T09:27:27Z</time>
 </trkpt>
 <trkpt lat="47.225277" lon="12.156252">
 <ele>1481.58</ele>
 <time>2010-07-08T09:27:35Z</time>
 </trkpt>
 <trkpt lat="47.225437" lon="12.156283">
 <ele>1483.28</ele>
 <time>2010-07-08T09:27:45Z</time>
 </trkpt>
 <trkpt lat="47.225616" lon="12.156287">
 <ele>1485.06</ele>
 <time>2010-07-08T09:27:56Z</time>
 </trkpt>
 <trkpt lat="47.225792" lon="12.156212">
 <ele>1486.62</ele>
 <time>2010-07-08T09:28:06Z</time>
 </trkpt>
 <trkpt lat="47.225960" lon="12.156123">
 <ele>1488.38</ele>
 <time>2010-07-08T09:28:17Z</time>
 </trkpt>
 <trkpt lat="47.226074" lon="12.156052">
 <ele>1489.93</ele>
 <time>2010-07-08T09:28:25Z</time>
 </trkpt>
 <trkpt lat="47.226215" lon="12.155963">
 <ele>1491.68</ele>
 <time>2010-07-08T09:28:35Z</time>
 </trkpt>
 <trkpt lat="47.226349" lon="12.155879">
 <ele>1493.34</ele>
 <time>2010-07-08T09:28:44Z</time>
 </trkpt>
 <trkpt lat="47.226521" lon="12.155840">
 <ele>1494.89</ele>
 <time>2010-07-08T09:28:54Z</time>
 </trkpt>
 <trkpt lat="47.226677" lon="12.155853">
 <ele>1496.74</ele>
 <time>2010-07-08T09:29:04Z</time>
 </trkpt>
 <trkpt lat="47.226807" lon="12.155925">
 <ele>1498.02</ele>
 <time>2010-07-08T09:29:13Z</time>
 </trkpt>
 <trkpt lat="47.226940" lon="12.156014">
 <ele>1499.66</ele>
 <time>2010-07-08T09:29:23Z</time>
 </trkpt>
 <trkpt lat="47.227074" lon="12.156126">
 <ele>1501.19</ele>
 <time>2010-07-08T09:29:33Z</time>
 </trkpt>
 <trkpt lat="47.227200" lon="12.156235">
 <ele>1502.79</ele>
 <time>2010-07-08T09:29:42Z</time>
 </trkpt>
 <trkpt lat="47.227337" lon="12.156353">
 <ele>1504.36</ele>
 <time>2010-07-08T09:29:52Z</time>
 </trkpt>
 <trkpt lat="47.227501" lon="12.156496">
 <ele>1505.82</ele>
 <time>2010-07-08T09:30:04Z</time>
 </trkpt>
 <trkpt lat="47.227673" lon="12.156703">
 <ele>1508.07</ele>
 <time>2010-07-08T09:30:18Z</time>
 </trkpt>
 <trkpt lat="47.227749" lon="12.156867">
 <ele>1509.54</ele>
 <time>2010-07-08T09:30:27Z</time>
 </trkpt>
 <trkpt lat="47.227810" lon="12.157128">
 <ele>1511.49</ele>
 <time>2010-07-08T09:30:39Z</time>
 </trkpt>
 <trkpt lat="47.227818" lon="12.157353">
 <ele>1513.00</ele>
 <time>2010-07-08T09:30:49Z</time>
 </trkpt>
 <trkpt lat="47.227795" lon="12.157589">
 <ele>1515.07</ele>
 <time>2010-07-08T09:30:59Z</time>
 </trkpt>
 <trkpt lat="47.227764" lon="12.157794">
 <ele>1516.74</ele>
 <time>2010-07-08T09:31:08Z</time>
 </trkpt>
 <trkpt lat="47.227715" lon="12.158086">
 <ele>1518.53</ele>
 <time>2010-07-08T09:31:21Z</time>
 </trkpt>
 <trkpt lat="47.227680" lon="12.158309">
 <ele>1520.56</ele>
 <time>2010-07-08T09:31:31Z</time>
 </trkpt>
 <trkpt lat="47.227688" lon="12.158569">
 <ele>1522.36</ele>
 <time>2010-07-08T09:31:42Z</time>
 </trkpt>
 <trkpt lat="47.227711" lon="12.158863">
 <ele>1524.24</ele>
 <time>2010-07-08T09:31:54Z</time>
 </trkpt>
 <trkpt lat="47.227741" lon="12.159095">
 <ele>1525.54</ele>
 <time>2010-07-08T09:32:04Z</time>
 </trkpt>
 <trkpt lat="47.227772" lon="12.159290">
 <ele>1527.42</ele>
 <time>2010-07-08T09:32:13Z</time>
 </trkpt>
 <trkpt lat="47.227810" lon="12.159384">
 <ele>1528.08</ele>
 <time>2010-07-08T09:32:19Z</time>
 </trkpt>
 <trkpt lat="47.227818" lon="12.159391">
 <ele>1528.32</ele>
 <time>2010-07-08T09:32:23Z</time>
 </trkpt>
 <trkpt lat="47.227669" lon="12.159545">
 <ele>1528.55</ele>
 <time>2010-07-08T09:32:29Z</time>
 </trkpt>
 <trkpt lat="47.227657" lon="12.159554">
 <ele>1528.61</ele>
 <time>2010-07-08T09:32:32Z</time>
 </trkpt>
 <trkpt lat="47.227665" lon="12.159535">
 <ele>1529.03</ele>
 <time>2010-07-08T09:34:03Z</time>
 </trkpt>
 <trkpt lat="47.227673" lon="12.159538">
 <ele>1528.92</ele>
 <time>2010-07-08T09:34:04Z</time>
 </trkpt>
 <trkpt lat="47.227848" lon="12.159440">
 <ele>1529.16</ele>
 <time>2010-07-08T09:34:12Z</time>
 </trkpt>
 <trkpt lat="47.227856" lon="12.159453">
 <ele>1529.14</ele>
 <time>2010-07-08T09:34:13Z</time>
 </trkpt>
 <trkpt lat="47.227955" lon="12.159580">
 <ele>1529.86</ele>
 <time>2010-07-08T09:34:22Z</time>
 </trkpt>
 <trkpt lat="47.228043" lon="12.159616">
 <ele>1530.79</ele>
 <time>2010-07-08T09:34:29Z</time>
 </trkpt>
 <trkpt lat="47.228138" lon="12.159656">
 <ele>1532.36</ele>
 <time>2010-07-08T09:34:37Z</time>
 </trkpt>
 <trkpt lat="47.228287" lon="12.159683">
 <ele>1533.57</ele>
 <time>2010-07-08T09:34:47Z</time>
 </trkpt>
 <trkpt lat="47.228443" lon="12.159694">
 <ele>1535.38</ele>
 <time>2010-07-08T09:34:58Z</time>
 </trkpt>
 <trkpt lat="47.228580" lon="12.159703">
 <ele>1536.72</ele>
 <time>2010-07-08T09:35:07Z</time>
 </trkpt>
 <trkpt lat="47.228760" lon="12.159714">
 <ele>1539.09</ele>
 <time>2010-07-08T09:35:19Z</time>
 </trkpt>
 <trkpt lat="47.228924" lon="12.159725">
 <ele>1540.71</ele>
 <time>2010-07-08T09:35:30Z</time>
 </trkpt>
 <trkpt lat="47.229076" lon="12.159735">
 <ele>1542.41</ele>
 <time>2010-07-08T09:35:40Z</time>
 </trkpt>
 <trkpt lat="47.229244" lon="12.159746">
 <ele>1543.98</ele>
 <time>2010-07-08T09:35:51Z</time>
 </trkpt>
 <trkpt lat="47.229397" lon="12.159756">
 <ele>1545.68</ele>
 <time>2010-07-08T09:36:01Z</time>
 </trkpt>
 <trkpt lat="47.229549" lon="12.159783">
 <ele>1547.83</ele>
 <time>2010-07-08T09:36:11Z</time>
 </trkpt>
 <trkpt lat="47.229679" lon="12.159834">
 <ele>1549.27</ele>
 <time>2010-07-08T09:36:20Z</time>
 </trkpt>
 <trkpt lat="47.229797" lon="12.159880">
 <ele>1550.81</ele>
 <time>2010-07-08T09:36:28Z</time>
 </trkpt>
 <trkpt lat="47.229900" lon="12.159913">
 <ele>1551.83</ele>
 <time>2010-07-08T09:36:35Z</time>
 </trkpt>
 <trkpt lat="47.230045" lon="12.159919">
 <ele>1553.89</ele>
 <time>2010-07-08T09:36:45Z</time>
 </trkpt>
 <trkpt lat="47.230164" lon="12.159924">
 <ele>1554.63</ele>
 <time>2010-07-08T09:36:53Z</time>
 </trkpt>
 <trkpt lat="47.230286" lon="12.159929">
 <ele>1556.01</ele>
 <time>2010-07-08T09:37:01Z</time>
 </trkpt>
 <trkpt lat="47.230438" lon="12.159941">
 <ele>1557.17</ele>
 <time>2010-07-08T09:37:10Z</time>
 </trkpt>
 <trkpt lat="47.230595" lon="12.160002">
 <ele>1558.83</ele>
 <time>2010-07-08T09:37:20Z</time>
 </trkpt>
 <trkpt lat="47.230782" lon="12.160136">
 <ele>1561.30</ele>
 <time>2010-07-08T09:37:33Z</time>
 </trkpt>
 <trkpt lat="47.230911" lon="12.160277">
 <ele>1563.18</ele>
 <time>2010-07-08T09:37:43Z</time>
 </trkpt>
 <trkpt lat="47.231045" lon="12.160427">
 <ele>1564.72</ele>
 <time>2010-07-08T09:37:54Z</time>
 </trkpt>
 <trkpt lat="47.231178" lon="12.160575">
 <ele>1566.52</ele>
 <time>2010-07-08T09:38:05Z</time>
 </trkpt>
 <trkpt lat="47.231293" lon="12.160701">
 <ele>1567.82</ele>
 <time>2010-07-08T09:38:15Z</time>
 </trkpt>
 <trkpt lat="47.231449" lon="12.160763">
 <ele>1569.81</ele>
 <time>2010-07-08T09:38:26Z</time>
 </trkpt>
 <trkpt lat="47.231598" lon="12.160818">
 <ele>1571.53</ele>
 <time>2010-07-08T09:38:36Z</time>
 </trkpt>
 <trkpt lat="47.231758" lon="12.160868">
 <ele>1573.26</ele>
 <time>2010-07-08T09:38:47Z</time>
 </trkpt>
 <trkpt lat="47.231880" lon="12.160894">
 <ele>1574.58</ele>
 <time>2010-07-08T09:38:55Z</time>
 </trkpt>
 <trkpt lat="47.232021" lon="12.160925">
 <ele>1576.44</ele>
 <time>2010-07-08T09:39:04Z</time>
 </trkpt>
 <trkpt lat="47.232143" lon="12.160951">
 <ele>1577.56</ele>
 <time>2010-07-08T09:39:12Z</time>
 </trkpt>
 <trkpt lat="47.232288" lon="12.160982">
 <ele>1579.04</ele>
 <time>2010-07-08T09:39:21Z</time>
 </trkpt>
 <trkpt lat="47.232437" lon="12.161014">
 <ele>1580.95</ele>
 <time>2010-07-08T09:39:31Z</time>
 </trkpt>
 <trkpt lat="47.232578" lon="12.161044">
 <ele>1582.21</ele>
 <time>2010-07-08T09:39:40Z</time>
 </trkpt>
 <trkpt lat="47.232738" lon="12.161028">
 <ele>1584.17</ele>
 <time>2010-07-08T09:39:50Z</time>
 </trkpt>
 <trkpt lat="47.232937" lon="12.160995">
 <ele>1586.14</ele>
 <time>2010-07-08T09:40:02Z</time>
 </trkpt>
 <trkpt lat="47.233082" lon="12.160879">
 <ele>1587.70</ele>
 <time>2010-07-08T09:40:11Z</time>
 </trkpt>
 <trkpt lat="47.233227" lon="12.160702">
 <ele>1589.92</ele>
 <time>2010-07-08T09:40:23Z</time>
 </trkpt>
 <trkpt lat="47.233326" lon="12.160581">
 <ele>1591.24</ele>
 <time>2010-07-08T09:40:32Z</time>
 </trkpt>
 <trkpt lat="47.233448" lon="12.160431">
 <ele>1592.81</ele>
 <time>2010-07-08T09:40:43Z</time>
 </trkpt>
 <trkpt lat="47.233597" lon="12.160307">
 <ele>1594.58</ele>
 <time>2010-07-08T09:40:55Z</time>
 </trkpt>
 <trkpt lat="47.233749" lon="12.160297">
 <ele>1595.92</ele>
 <time>2010-07-08T09:41:05Z</time>
 </trkpt>
 <trkpt lat="47.233925" lon="12.160327">
 <ele>1598.27</ele>
 <time>2010-07-08T09:41:16Z</time>
 </trkpt>
 <trkpt lat="47.234097" lon="12.160356">
 <ele>1600.42</ele>
 <time>2010-07-08T09:41:27Z</time>
 </trkpt>
 <trkpt lat="47.234257" lon="12.160383">
 <ele>1602.20</ele>
 <time>2010-07-08T09:41:38Z</time>
 </trkpt>
 <trkpt lat="47.234371" lon="12.160403">
 <ele>1603.29</ele>
 <time>2010-07-08T09:41:46Z</time>
 </trkpt>
 <trkpt lat="47.234505" lon="12.160425">
 <ele>1604.88</ele>
 <time>2010-07-08T09:41:55Z</time>
 </trkpt>
 <trkpt lat="47.234676" lon="12.160386">
 <ele>1606.90</ele>
 <time>2010-07-08T09:42:06Z</time>
 </trkpt>
 <trkpt lat="47.234856" lon="12.160339">
 <ele>1608.47</ele>
 <time>2010-07-08T09:42:17Z</time>
 </trkpt>
 <trkpt lat="47.235035" lon="12.160292">
 <ele>1610.16</ele>
 <time>2010-07-08T09:42:28Z</time>
 </trkpt>
 <trkpt lat="47.235199" lon="12.160249">
 <ele>1611.68</ele>
 <time>2010-07-08T09:42:38Z</time>
 </trkpt>
 <trkpt lat="47.235374" lon="12.160204">
 <ele>1613.25</ele>
 <time>2010-07-08T09:42:48Z</time>
 </trkpt>
 <trkpt lat="47.235546" lon="12.160148">
 <ele>1614.45</ele>
 <time>2010-07-08T09:42:58Z</time>
 </trkpt>
 <trkpt lat="47.235680" lon="12.160077">
 <ele>1615.60</ele>
 <time>2010-07-08T09:43:06Z</time>
 </trkpt>
 <trkpt lat="47.235878" lon="12.159933">
 <ele>1616.75</ele>
 <time>2010-07-08T09:43:17Z</time>
 </trkpt>
 <trkpt lat="47.236019" lon="12.159754">
 <ele>1617.53</ele>
 <time>2010-07-08T09:43:26Z</time>
 </trkpt>
 <trkpt lat="47.236176" lon="12.159554">
 <ele>1618.62</ele>
 <time>2010-07-08T09:43:36Z</time>
 </trkpt>
 <trkpt lat="47.236298" lon="12.159398">
 <ele>1619.43</ele>
 <time>2010-07-08T09:43:48Z</time>
 </trkpt>
 <trkpt lat="47.236538" lon="12.159049">
 <ele>1619.53</ele>
 <time>2010-07-08T09:43:57Z</time>
 </trkpt>
 <trkpt lat="47.236732" lon="12.158729">
 <ele>1620.03</ele>
 <time>2010-07-08T09:44:07Z</time>
 </trkpt>
 <trkpt lat="47.236927" lon="12.158418">
 <ele>1620.17</ele>
 <time>2010-07-08T09:44:17Z</time>
 </trkpt>
 <trkpt lat="47.237022" lon="12.158262">
 <ele>1619.95</ele>
 <time>2010-07-08T09:44:24Z</time>
 </trkpt>
 <trkpt lat="47.237141" lon="12.158036">
 <ele>1619.52</ele>
 <time>2010-07-08T09:44:30Z</time>
 </trkpt>
 <trkpt lat="47.237343" lon="12.157631">
 <ele>1619.10</ele>
 <time>2010-07-08T09:44:38Z</time>
 </trkpt>
 <trkpt lat="47.237576" lon="12.157156">
 <ele>1618.86</ele>
 <time>2010-07-08T09:44:46Z</time>
 </trkpt>
 <trkpt lat="47.237820" lon="12.156659">
 <ele>1618.55</ele>
 <time>2010-07-08T09:44:54Z</time>
 </trkpt>
 <trkpt lat="47.238159" lon="12.155967">
 <ele>1617.89</ele>
 <time>2010-07-08T09:45:04Z</time>
 </trkpt>
 <trkpt lat="47.238609" lon="12.155054">
 <ele>1617.26</ele>
 <time>2010-07-08T09:45:16Z</time>
 </trkpt>
 <trkpt lat="47.238842" lon="12.154362">
 <ele>1616.93</ele>
 <time>2010-07-08T09:45:24Z</time>
 </trkpt>
 <trkpt lat="47.238983" lon="12.153611">
 <ele>1615.91</ele>
 <time>2010-07-08T09:45:32Z</time>
 </trkpt>
 <trkpt lat="47.239105" lon="12.152406">
 <ele>1615.66</ele>
 <time>2010-07-08T09:45:44Z</time>
 </trkpt>
 <trkpt lat="47.239208" lon="12.151230">
 <ele>1615.10</ele>
 <time>2010-07-08T09:45:56Z</time>
 </trkpt>
 <trkpt lat="47.239231" lon="12.150981">
 <ele>1615.41</ele>
 <time>2010-07-08T09:46:00Z</time>
 </trkpt>
 <trkpt lat="47.239239" lon="12.150911">
 <ele>1615.58</ele>
 <time>2010-07-08T09:46:03Z</time>
 </trkpt>
 <trkpt lat="47.239239" lon="12.150911">
 <ele>1615.65</ele>
 <time>2010-07-08T09:46:04Z</time>
 </trkpt>
 <trkpt lat="47.239243" lon="12.150841">
 <ele>1615.52</ele>
 <time>2010-07-08T09:46:28Z</time>
 </trkpt>
 <trkpt lat="47.239258" lon="12.150695">
 <ele>1615.21</ele>
 <time>2010-07-08T09:46:31Z</time>
 </trkpt>
 <trkpt lat="47.239292" lon="12.150280">
 <ele>1614.76</ele>
 <time>2010-07-08T09:46:37Z</time>
 </trkpt>
 <trkpt lat="47.239349" lon="12.149659">
 <ele>1614.29</ele>
 <time>2010-07-08T09:46:44Z</time>
 </trkpt>
 <trkpt lat="47.239426" lon="12.148762">
 <ele>1613.71</ele>
 <time>2010-07-08T09:46:53Z</time>
 </trkpt>
 <trkpt lat="47.239513" lon="12.147804">
 <ele>1612.44</ele>
 <time>2010-07-08T09:47:02Z</time>
 </trkpt>
 <trkpt lat="47.239658" lon="12.146973">
 <ele>1611.78</ele>
 <time>2010-07-08T09:47:10Z</time>
 </trkpt>
 <trkpt lat="47.239864" lon="12.146219">
 <ele>1609.71</ele>
 <time>2010-07-08T09:47:17Z</time>
 </trkpt>
 <trkpt lat="47.240185" lon="12.145345">
 <ele>1607.93</ele>
 <time>2010-07-08T09:47:25Z</time>
 </trkpt>
 <trkpt lat="47.240643" lon="12.144368">
 <ele>1605.64</ele>
 <time>2010-07-08T09:47:34Z</time>
 </trkpt>
 <trkpt lat="47.241249" lon="12.143146">
 <ele>1602.46</ele>
 <time>2010-07-08T09:47:45Z</time>
 </trkpt>
 <trkpt lat="47.241573" lon="12.142284">
 <ele>1599.39</ele>
 <time>2010-07-08T09:47:52Z</time>
 </trkpt>
 <trkpt lat="47.241760" lon="12.141478">
 <ele>1597.68</ele>
 <time>2010-07-08T09:47:58Z</time>
 </trkpt>
 <trkpt lat="47.241882" lon="12.140739">
 <ele>1594.61</ele>
 <time>2010-07-08T09:48:03Z</time>
 </trkpt>
 <trkpt lat="47.242035" lon="12.139764">
 <ele>1589.83</ele>
 <time>2010-07-08T09:48:09Z</time>
 </trkpt>
 <trkpt lat="47.242222" lon="12.139114">
 <ele>1586.89</ele>
 <time>2010-07-08T09:48:13Z</time>
 </trkpt>
 <trkpt lat="47.242531" lon="12.138537">
 <ele>1583.17</ele>
 <time>2010-07-08T09:48:17Z</time>
 </trkpt>
 <trkpt lat="47.242878" lon="12.138039">
 <ele>1580.57</ele>
 <time>2010-07-08T09:48:21Z</time>
 </trkpt>
 <trkpt lat="47.243454" lon="12.137211">
 <ele>1579.68</ele>
 <time>2010-07-08T09:48:28Z</time>
 </trkpt>
 <trkpt lat="47.243660" lon="12.136667">
 <ele>1578.61</ele>
 <time>2010-07-08T09:48:32Z</time>
 </trkpt>
 <trkpt lat="47.243717" lon="12.136212">
 <ele>1576.94</ele>
 <time>2010-07-08T09:48:35Z</time>
 </trkpt>
 <trkpt lat="47.243671" lon="12.135775">
 <ele>1576.17</ele>
 <time>2010-07-08T09:48:38Z</time>
 </trkpt>
 <trkpt lat="47.243633" lon="12.135635">
 <ele>1575.96</ele>
 <time>2010-07-08T09:48:39Z</time>
 </trkpt>
 <trkpt lat="47.243271" lon="12.134872">
 <ele>1574.37</ele>
 <time>2010-07-08T09:48:45Z</time>
 </trkpt>
 <trkpt lat="47.243057" lon="12.134329">
 <ele>1572.87</ele>
 <time>2010-07-08T09:48:49Z</time>
 </trkpt>
 <trkpt lat="47.243015" lon="12.133706">
 <ele>1569.69</ele>
 <time>2010-07-08T09:48:53Z</time>
 </trkpt>
 <trkpt lat="47.243134" lon="12.132752">
 <ele>1565.09</ele>
 <time>2010-07-08T09:48:59Z</time>
 </trkpt>
 <trkpt lat="47.243217" lon="12.132085">
 <ele>1561.90</ele>
 <time>2010-07-08T09:49:04Z</time>
 </trkpt>
 <trkpt lat="47.243290" lon="12.131297">
 <ele>1557.11</ele>
 <time>2010-07-08T09:49:09Z</time>
 </trkpt>
 <trkpt lat="47.243336" lon="12.130687">
 <ele>1552.69</ele>
 <time>2010-07-08T09:49:14Z</time>
 </trkpt>
 <trkpt lat="47.243378" lon="12.129395">
 <ele>1546.36</ele>
 <time>2010-07-08T09:49:20Z</time>
 </trkpt>
 <trkpt lat="47.243309" lon="12.128449">
 <ele>1540.08</ele>
 <time>2010-07-08T09:49:25Z</time>
 </trkpt>
 <trkpt lat="47.243149" lon="12.127023">
 <ele>1530.78</ele>
 <time>2010-07-08T09:49:32Z</time>
 </trkpt>
 <trkpt lat="47.243015" lon="12.125837">
 <ele>1522.56</ele>
 <time>2010-07-08T09:49:38Z</time>
 </trkpt>
 <trkpt lat="47.242992" lon="12.125652">
 <ele>1522.56</ele>
 <time>2010-07-08T09:49:39Z</time>
 </trkpt>
 <trkpt lat="47.242867" lon="12.124546">
 <ele>1514.97</ele>
 <time>2010-07-08T09:49:45Z</time>
 </trkpt>
 <trkpt lat="47.242851" lon="12.123805">
 <ele>1509.47</ele>
 <time>2010-07-08T09:49:49Z</time>
 </trkpt>
 <trkpt lat="47.242939" lon="12.123048">
 <ele>1504.31</ele>
 <time>2010-07-08T09:49:53Z</time>
 </trkpt>
 <trkpt lat="47.243134" lon="12.122318">
 <ele>1501.00</ele>
 <time>2010-07-08T09:49:57Z</time>
 </trkpt>
 <trkpt lat="47.243336" lon="12.121654">
 <ele>1498.88</ele>
 <time>2010-07-08T09:50:02Z</time>
 </trkpt>
 <trkpt lat="47.243530" lon="12.120967">
 <ele>1499.94</ele>
 <time>2010-07-08T09:50:07Z</time>
 </trkpt>
 <trkpt lat="47.243755" lon="12.120158">
 <ele>1502.43</ele>
 <time>2010-07-08T09:50:12Z</time>
 </trkpt>
 <trkpt lat="47.243774" lon="12.120056">
 <ele>1502.68</ele>
 <time>2010-07-08T09:50:13Z</time>
 </trkpt>
 <trkpt lat="47.243828" lon="12.119592">
 <ele>1504.33</ele>
 <time>2010-07-08T09:50:18Z</time>
 </trkpt>
 <trkpt lat="47.243828" lon="12.119207">
 <ele>1505.68</ele>
 <time>2010-07-08T09:50:23Z</time>
 </trkpt>
 <trkpt lat="47.243820" lon="12.118681">
 <ele>1507.40</ele>
 <time>2010-07-08T09:50:31Z</time>
 </trkpt>
 <trkpt lat="47.243786" lon="12.118101">
 <ele>1509.45</ele>
 <time>2010-07-08T09:50:41Z</time>
 </trkpt>
 <trkpt lat="47.243793" lon="12.117649">
 <ele>1510.96</ele>
 <time>2010-07-08T09:50:49Z</time>
 </trkpt>
 <trkpt lat="47.243801" lon="12.117276">
 <ele>1512.06</ele>
 <time>2010-07-08T09:50:56Z</time>
 </trkpt>
 <trkpt lat="47.243801" lon="12.116785">
 <ele>1513.64</ele>
 <time>2010-07-08T09:51:06Z</time>
 </trkpt>
 <trkpt lat="47.243771" lon="12.116260">
 <ele>1515.10</ele>
 <time>2010-07-08T09:51:17Z</time>
 </trkpt>
 <trkpt lat="47.243694" lon="12.115841">
 <ele>1516.52</ele>
 <time>2010-07-08T09:51:26Z</time>
 </trkpt>
 <trkpt lat="47.243614" lon="12.115420">
 <ele>1517.58</ele>
 <time>2010-07-08T09:51:35Z</time>
 </trkpt>
 <trkpt lat="47.243538" lon="12.115005">
 <ele>1518.60</ele>
 <time>2010-07-08T09:51:44Z</time>
 </trkpt>
 <trkpt lat="47.243450" lon="12.114556">
 <ele>1520.48</ele>
 <time>2010-07-08T09:51:54Z</time>
 </trkpt>
 <trkpt lat="47.243355" lon="12.114058">
 <ele>1521.64</ele>
 <time>2010-07-08T09:52:05Z</time>
 </trkpt>
 <trkpt lat="47.243298" lon="12.113740">
 <ele>1522.75</ele>
 <time>2010-07-08T09:52:12Z</time>
 </trkpt>
 <trkpt lat="47.243240" lon="12.113380">
 <ele>1523.82</ele>
 <time>2010-07-08T09:52:20Z</time>
 </trkpt>
 <trkpt lat="47.243202" lon="12.112913">
 <ele>1525.20</ele>
 <time>2010-07-08T09:52:30Z</time>
 </trkpt>
 <trkpt lat="47.243176" lon="12.112543">
 <ele>1526.25</ele>
 <time>2010-07-08T09:52:38Z</time>
 </trkpt>
 <trkpt lat="47.243156" lon="12.112225">
 <ele>1526.92</ele>
 <time>2010-07-08T09:52:45Z</time>
 </trkpt>
 <trkpt lat="47.243134" lon="12.111777">
 <ele>1527.72</ele>
 <time>2010-07-08T09:52:54Z</time>
 </trkpt>
 <trkpt lat="47.243095" lon="12.111350">
 <ele>1528.85</ele>
 <time>2010-07-08T09:53:03Z</time>
 </trkpt>
 <trkpt lat="47.243061" lon="12.111083">
 <ele>1528.83</ele>
 <time>2010-07-08T09:53:09Z</time>
 </trkpt>
 <trkpt lat="47.243027" lon="12.110829">
 <ele>1529.16</ele>
 <time>2010-07-08T09:53:15Z</time>
 </trkpt>
 <trkpt lat="47.243015" lon="12.110752">
 <ele>1529.32</ele>
 <time>2010-07-08T09:53:19Z</time>
 </trkpt>
 <trkpt lat="47.243019" lon="12.110787">
 <ele>1529.06</ele>
 <time>2010-07-08T09:53:25Z</time>
 </trkpt>
 <trkpt lat="47.243027" lon="12.110821">
 <ele>1528.91</ele>
 <time>2010-07-08T09:53:33Z</time>
 </trkpt>
 <trkpt lat="47.243027" lon="12.110821">
 <ele>1528.99</ele>
 <time>2010-07-08T09:53:35Z</time>
 </trkpt>
 <trkpt lat="47.242903" lon="12.110790">
 <ele>1529.13</ele>
 <time>2010-07-08T09:54:21Z</time>
 </trkpt>
 <trkpt lat="47.243011" lon="12.110724">
 <ele>1529.11</ele>
 <time>2010-07-08T09:54:25Z</time>
 </trkpt>
 <trkpt lat="47.242973" lon="12.110436">
 <ele>1529.22</ele>
 <time>2010-07-08T09:54:32Z</time>
 </trkpt>
 <trkpt lat="47.242935" lon="12.110165">
 <ele>1529.65</ele>
 <time>2010-07-08T09:54:38Z</time>
 </trkpt>
 <trkpt lat="47.242893" lon="12.109848">
 <ele>1529.52</ele>
 <time>2010-07-08T09:54:45Z</time>
 </trkpt>
 <trkpt lat="47.242870" lon="12.109533">
 <ele>1529.95</ele>
 <time>2010-07-08T09:54:52Z</time>
 </trkpt>
 <trkpt lat="47.242889" lon="12.109180">
 <ele>1529.94</ele>
 <time>2010-07-08T09:54:59Z</time>
 </trkpt>
 <trkpt lat="47.242935" lon="12.108726">
 <ele>1529.78</ele>
 <time>2010-07-08T09:55:07Z</time>
 </trkpt>
 <trkpt lat="47.243019" lon="12.108356">
 <ele>1529.04</ele>
 <time>2010-07-08T09:55:14Z</time>
 </trkpt>
 <trkpt lat="47.243114" lon="12.107929">
 <ele>1529.59</ele>
 <time>2010-07-08T09:55:22Z</time>
 </trkpt>
 <trkpt lat="47.243206" lon="12.107520">
 <ele>1529.85</ele>
 <time>2010-07-08T09:55:29Z</time>
 </trkpt>
 <trkpt lat="47.243240" lon="12.106925">
 <ele>1529.53</ele>
 <time>2010-07-08T09:55:38Z</time>
 </trkpt>
 <trkpt lat="47.243225" lon="12.106355">
 <ele>1529.31</ele>
 <time>2010-07-08T09:55:46Z</time>
 </trkpt>
 <trkpt lat="47.243214" lon="12.105777">
 <ele>1529.47</ele>
 <time>2010-07-08T09:55:55Z</time>
 </trkpt>
 <trkpt lat="47.243248" lon="12.105272">
 <ele>1529.99</ele>
 <time>2010-07-08T09:56:03Z</time>
 </trkpt>
 <trkpt lat="47.243320" lon="12.104855">
 <ele>1529.73</ele>
 <time>2010-07-08T09:56:09Z</time>
 </trkpt>
 <trkpt lat="47.243374" lon="12.104557">
 <ele>1529.33</ele>
 <time>2010-07-08T09:56:14Z</time>
 </trkpt>
 <trkpt lat="47.243401" lon="12.104158">
 <ele>1529.51</ele>
 <time>2010-07-08T09:56:22Z</time>
 </trkpt>
 <trkpt lat="47.243420" lon="12.103863">
 <ele>1529.24</ele>
 <time>2010-07-08T09:56:27Z</time>
 </trkpt>
 <trkpt lat="47.243420" lon="12.103738">
 <ele>1529.06</ele>
 <time>2010-07-08T09:56:29Z</time>
 </trkpt>
 <trkpt lat="47.243404" lon="12.103277">
 <ele>1528.76</ele>
 <time>2010-07-08T09:56:36Z</time>
 </trkpt>
 <trkpt lat="47.243382" lon="12.102645">
 <ele>1527.43</ele>
 <time>2010-07-08T09:56:44Z</time>
 </trkpt>
 <trkpt lat="47.243416" lon="12.102098">
 <ele>1526.67</ele>
 <time>2010-07-08T09:56:51Z</time>
 </trkpt>
 <trkpt lat="47.243553" lon="12.101530">
 <ele>1526.81</ele>
 <time>2010-07-08T09:56:59Z</time>
 </trkpt>
 <trkpt lat="47.243721" lon="12.101014">
 <ele>1526.07</ele>
 <time>2010-07-08T09:57:06Z</time>
 </trkpt>
 <trkpt lat="47.243885" lon="12.100500">
 <ele>1525.62</ele>
 <time>2010-07-08T09:57:13Z</time>
 </trkpt>
 <trkpt lat="47.243999" lon="12.099978">
 <ele>1525.83</ele>
 <time>2010-07-08T09:57:20Z</time>
 </trkpt>
 <trkpt lat="47.244026" lon="12.099369">
 <ele>1525.16</ele>
 <time>2010-07-08T09:57:28Z</time>
 </trkpt>
 <trkpt lat="47.244026" lon="12.098733">
 <ele>1525.19</ele>
 <time>2010-07-08T09:57:36Z</time>
 </trkpt>
 <trkpt lat="47.243923" lon="12.098193">
 <ele>1524.58</ele>
 <time>2010-07-08T09:57:44Z</time>
 </trkpt>
 <trkpt lat="47.243706" lon="12.097645">
 <ele>1525.12</ele>
 <time>2010-07-08T09:57:53Z</time>
 </trkpt>
 <trkpt lat="47.243469" lon="12.097074">
 <ele>1525.59</ele>
 <time>2010-07-08T09:58:02Z</time>
 </trkpt>
 <trkpt lat="47.243252" lon="12.096512">
 <ele>1525.17</ele>
 <time>2010-07-08T09:58:11Z</time>
 </trkpt>
 <trkpt lat="47.242966" lon="12.095705">
 <ele>1525.56</ele>
 <time>2010-07-08T09:58:23Z</time>
 </trkpt>
 <trkpt lat="47.242771" lon="12.095002">
 <ele>1525.88</ele>
 <time>2010-07-08T09:58:33Z</time>
 </trkpt>
 <trkpt lat="47.242702" lon="12.094219">
 <ele>1525.72</ele>
 <time>2010-07-08T09:58:43Z</time>
 </trkpt>
 <trkpt lat="47.242687" lon="12.093432">
 <ele>1526.43</ele>
 <time>2010-07-08T09:58:53Z</time>
 </trkpt>
 <trkpt lat="47.242676" lon="12.092470">
 <ele>1525.87</ele>
 <time>2010-07-08T09:59:05Z</time>
 </trkpt>
 <trkpt lat="47.242641" lon="12.091721">
 <ele>1526.12</ele>
 <time>2010-07-08T09:59:15Z</time>
 </trkpt>
 <trkpt lat="47.242535" lon="12.091095">
 <ele>1527.01</ele>
 <time>2010-07-08T09:59:24Z</time>
 </trkpt>
 <trkpt lat="47.242397" lon="12.090440">
 <ele>1527.72</ele>
 <time>2010-07-08T09:59:34Z</time>
 </trkpt>
 <trkpt lat="47.242344" lon="12.090186">
 <ele>1528.49</ele>
 <time>2010-07-08T09:59:38Z</time>
 </trkpt>
 <trkpt lat="47.242268" lon="12.089670">
 <ele>1529.50</ele>
 <time>2010-07-08T09:59:46Z</time>
 </trkpt>
 <trkpt lat="47.242252" lon="12.089407">
 <ele>1529.58</ele>
 <time>2010-07-08T09:59:50Z</time>
 </trkpt>
 <trkpt lat="47.242214" lon="12.088612">
 <ele>1530.05</ele>
 <time>2010-07-08T10:00:02Z</time>
 </trkpt>
 <trkpt lat="47.242184" lon="12.087912">
 <ele>1529.91</ele>
 <time>2010-07-08T10:00:12Z</time>
 </trkpt>
 <trkpt lat="47.242104" lon="12.087351">
 <ele>1528.54</ele>
 <time>2010-07-08T10:00:20Z</time>
 </trkpt>
 <trkpt lat="47.241966" lon="12.086869">
 <ele>1527.07</ele>
 <time>2010-07-08T10:00:27Z</time>
 </trkpt>
 <trkpt lat="47.241776" lon="12.086459">
 <ele>1524.30</ele>
 <time>2010-07-08T10:00:33Z</time>
 </trkpt>
 <trkpt lat="47.241692" lon="12.086311">
 <ele>1523.61</ele>
 <time>2010-07-08T10:00:36Z</time>
 </trkpt>
 <trkpt lat="47.241512" lon="12.085995">
 <ele>1522.11</ele>
 <time>2010-07-08T10:00:43Z</time>
 </trkpt>
 <trkpt lat="47.241402" lon="12.085767">
 <ele>1520.56</ele>
 <time>2010-07-08T10:00:48Z</time>
 </trkpt>
 <trkpt lat="47.241302" lon="12.085457">
 <ele>1518.47</ele>
 <time>2010-07-08T10:00:56Z</time>
 </trkpt>
 <trkpt lat="47.241249" lon="12.085133">
 <ele>1516.03</ele>
 <time>2010-07-08T10:01:02Z</time>
 </trkpt>
 <trkpt lat="47.241245" lon="12.084641">
 <ele>1513.84</ele>
 <time>2010-07-08T10:01:09Z</time>
 </trkpt>
 <trkpt lat="47.241306" lon="12.084170">
 <ele>1510.53</ele>
 <time>2010-07-08T10:01:15Z</time>
 </trkpt>
 <trkpt lat="47.241386" lon="12.083725">
 <ele>1508.31</ele>
 <time>2010-07-08T10:01:20Z</time>
 </trkpt>
 <trkpt lat="47.241425" lon="12.083524">
 <ele>1507.80</ele>
 <time>2010-07-08T10:01:24Z</time>
 </trkpt>
 <trkpt lat="47.241455" lon="12.083371">
 <ele>1506.54</ele>
 <time>2010-07-08T10:01:30Z</time>
 </trkpt>
 <trkpt lat="47.241467" lon="12.083321">
 <ele>1506.42</ele>
 <time>2010-07-08T10:01:34Z</time>
 </trkpt>
 <trkpt lat="47.241467" lon="12.083321">
 <ele>1505.94</ele>
 <time>2010-07-08T10:01:46Z</time>
 </trkpt>
 <trkpt lat="47.241467" lon="12.083321">
 <ele>1505.97</ele>
 <time>2010-07-08T10:01:47Z</time>
 </trkpt>
 <trkpt lat="47.241467" lon="12.083321">
 <ele>1506.36</ele>
 <time>2010-07-08T10:01:55Z</time>
 </trkpt>
 <trkpt lat="47.241436" lon="12.083468">
 <ele>1506.64</ele>
 <time>2010-07-08T10:02:02Z</time>
 </trkpt>
 <trkpt lat="47.241432" lon="12.083500">
 <ele>1507.87</ele>
 <time>2010-07-08T10:03:30Z</time>
 </trkpt>
 <trkpt lat="47.241428" lon="12.083518">
 <ele>1507.98</ele>
 <time>2010-07-08T10:03:31Z</time>
 </trkpt>
 <trkpt lat="47.241417" lon="12.083572">
 <ele>1508.13</ele>
 <time>2010-07-08T10:03:33Z</time>
 </trkpt>
 <trkpt lat="47.241409" lon="12.083597">
 <ele>1508.17</ele>
 <time>2010-07-08T10:03:34Z</time>
 </trkpt>
 <trkpt lat="47.241364" lon="12.083838">
 <ele>1509.46</ele>
 <time>2010-07-08T10:03:42Z</time>
 </trkpt>
 <trkpt lat="47.241318" lon="12.084063">
 <ele>1511.02</ele>
 <time>2010-07-08T10:03:50Z</time>
 </trkpt>
 <trkpt lat="47.241283" lon="12.084345">
 <ele>1512.83</ele>
 <time>2010-07-08T10:03:59Z</time>
 </trkpt>
 <trkpt lat="47.241253" lon="12.084594">
 <ele>1514.06</ele>
 <time>2010-07-08T10:04:07Z</time>
 </trkpt>
 <trkpt lat="47.241238" lon="12.084837">
 <ele>1515.79</ele>
 <time>2010-07-08T10:04:15Z</time>
 </trkpt>
 <trkpt lat="47.241253" lon="12.085198">
 <ele>1517.49</ele>
 <time>2010-07-08T10:04:27Z</time>
 </trkpt>
 <trkpt lat="47.241310" lon="12.085484">
 <ele>1519.26</ele>
 <time>2010-07-08T10:04:37Z</time>
 </trkpt>
 <trkpt lat="47.241398" lon="12.085753">
 <ele>1521.08</ele>
 <time>2010-07-08T10:04:47Z</time>
 </trkpt>
 <trkpt lat="47.241505" lon="12.085981">
 <ele>1522.61</ele>
 <time>2010-07-08T10:04:57Z</time>
 </trkpt>
 <trkpt lat="47.241623" lon="12.086193">
 <ele>1524.05</ele>
 <time>2010-07-08T10:05:07Z</time>
 </trkpt>
 <trkpt lat="47.241756" lon="12.086427">
 <ele>1525.85</ele>
 <time>2010-07-08T10:05:18Z</time>
 </trkpt>
 <trkpt lat="47.241856" lon="12.086605">
 <ele>1526.73</ele>
 <time>2010-07-08T10:05:26Z</time>
 </trkpt>
 <trkpt lat="47.241978" lon="12.086894">
 <ele>1527.89</ele>
 <time>2010-07-08T10:05:37Z</time>
 </trkpt>
 <trkpt lat="47.242085" lon="12.087231">
 <ele>1529.64</ele>
 <time>2010-07-08T10:05:49Z</time>
 </trkpt>
 <trkpt lat="47.242138" lon="12.087551">
 <ele>1530.48</ele>
 <time>2010-07-08T10:05:59Z</time>
 </trkpt>
 <trkpt lat="47.242184" lon="12.087985">
 <ele>1530.95</ele>
 <time>2010-07-08T10:06:11Z</time>
 </trkpt>
 <trkpt lat="47.242207" lon="12.088445">
 <ele>1531.58</ele>
 <time>2010-07-08T10:06:21Z</time>
 </trkpt>
 <trkpt lat="47.242229" lon="12.088955">
 <ele>1530.74</ele>
 <time>2010-07-08T10:06:30Z</time>
 </trkpt>
 <trkpt lat="47.242264" lon="12.089588">
 <ele>1530.23</ele>
 <time>2010-07-08T10:06:40Z</time>
 </trkpt>
 <trkpt lat="47.242336" lon="12.090138">
 <ele>1529.38</ele>
 <time>2010-07-08T10:06:49Z</time>
 </trkpt>
 <trkpt lat="47.242432" lon="12.090605">
 <ele>1528.74</ele>
 <time>2010-07-08T10:06:56Z</time>
 </trkpt>
 <trkpt lat="47.242596" lon="12.091414">
 <ele>1527.48</ele>
 <time>2010-07-08T10:07:06Z</time>
 </trkpt>
 <trkpt lat="47.242672" lon="12.092131">
 <ele>1526.95</ele>
 <time>2010-07-08T10:07:14Z</time>
 </trkpt>
 <trkpt lat="47.242683" lon="12.093080">
 <ele>1526.06</ele>
 <time>2010-07-08T10:07:25Z</time>
 </trkpt>
 <trkpt lat="47.242695" lon="12.094016">
 <ele>1526.17</ele>
 <time>2010-07-08T10:07:36Z</time>
 </trkpt>
 <trkpt lat="47.242733" lon="12.094680">
 <ele>1526.12</ele>
 <time>2010-07-08T10:07:44Z</time>
 </trkpt>
 <trkpt lat="47.242870" lon="12.095396">
 <ele>1526.52</ele>
 <time>2010-07-08T10:07:53Z</time>
 </trkpt>
 <trkpt lat="47.243069" lon="12.095998">
 <ele>1526.58</ele>
 <time>2010-07-08T10:08:01Z</time>
 </trkpt>
 <trkpt lat="47.243153" lon="12.096226">
 <ele>1526.59</ele>
 <time>2010-07-08T10:08:05Z</time>
 </trkpt>
 <trkpt lat="47.243279" lon="12.096590">
 <ele>1526.69</ele>
 <time>2010-07-08T10:08:13Z</time>
 </trkpt>
 <trkpt lat="47.243362" lon="12.096817">
 <ele>1526.23</ele>
 <time>2010-07-08T10:08:18Z</time>
 </trkpt>
 <trkpt lat="47.243469" lon="12.097076">
 <ele>1525.69</ele>
 <time>2010-07-08T10:08:23Z</time>
 </trkpt>
 <trkpt lat="47.243649" lon="12.097514">
 <ele>1525.56</ele>
 <time>2010-07-08T10:08:30Z</time>
 </trkpt>
 <trkpt lat="47.243923" lon="12.098199">
 <ele>1525.97</ele>
 <time>2010-07-08T10:08:40Z</time>
 </trkpt>
 <trkpt lat="47.243980" lon="12.098504">
 <ele>1526.29</ele>
 <time>2010-07-08T10:08:44Z</time>
 </trkpt>
 <trkpt lat="47.244030" lon="12.099264">
 <ele>1526.49</ele>
 <time>2010-07-08T10:08:53Z</time>
 </trkpt>
 <trkpt lat="47.243980" lon="12.100076">
 <ele>1526.85</ele>
 <time>2010-07-08T10:09:03Z</time>
 </trkpt>
 <trkpt lat="47.243843" lon="12.100634">
 <ele>1526.46</ele>
 <time>2010-07-08T10:09:10Z</time>
 </trkpt>
 <trkpt lat="47.243591" lon="12.101420">
 <ele>1527.31</ele>
 <time>2010-07-08T10:09:21Z</time>
 </trkpt>
 <trkpt lat="47.243465" lon="12.101864">
 <ele>1528.84</ele>
 <time>2010-07-08T10:09:28Z</time>
 </trkpt>
 <trkpt lat="47.243385" lon="12.102453">
 <ele>1528.48</ele>
 <time>2010-07-08T10:09:37Z</time>
 </trkpt>
 <trkpt lat="47.243397" lon="12.103004">
 <ele>1528.77</ele>
 <time>2010-07-08T10:09:45Z</time>
 </trkpt>
 <trkpt lat="47.243420" lon="12.103866">
 <ele>1530.42</ele>
 <time>2010-07-08T10:09:58Z</time>
 </trkpt>
 <trkpt lat="47.243401" lon="12.104194">
 <ele>1530.23</ele>
 <time>2010-07-08T10:10:04Z</time>
 </trkpt>
 <trkpt lat="47.243389" lon="12.104367">
 <ele>1530.90</ele>
 <time>2010-07-08T10:10:09Z</time>
 </trkpt>
 <trkpt lat="47.243252" lon="12.104427">
 <ele>1530.44</ele>
 <time>2010-07-08T10:10:15Z</time>
 </trkpt>
 <trkpt lat="47.243233" lon="12.104424">
 <ele>1530.59</ele>
 <time>2010-07-08T10:10:20Z</time>
 </trkpt>
 <trkpt lat="47.243370" lon="12.104574">
 <ele>1530.77</ele>
 <time>2010-07-08T10:11:14Z</time>
 </trkpt>
 <trkpt lat="47.243347" lon="12.104715">
 <ele>1531.22</ele>
 <time>2010-07-08T10:11:19Z</time>
 </trkpt>
 <trkpt lat="47.243279" lon="12.105089">
 <ele>1531.37</ele>
 <time>2010-07-08T10:11:27Z</time>
 </trkpt>
 <trkpt lat="47.243210" lon="12.105665">
 <ele>1530.65</ele>
 <time>2010-07-08T10:11:37Z</time>
 </trkpt>
 <trkpt lat="47.243225" lon="12.106268">
 <ele>1531.84</ele>
 <time>2010-07-08T10:11:46Z</time>
 </trkpt>
 <trkpt lat="47.243240" lon="12.106921">
 <ele>1531.02</ele>
 <time>2010-07-08T10:11:55Z</time>
 </trkpt>
 <trkpt lat="47.243210" lon="12.107507">
 <ele>1530.70</ele>
 <time>2010-07-08T10:12:03Z</time>
 </trkpt>
 <trkpt lat="47.243088" lon="12.108044">
 <ele>1530.39</ele>
 <time>2010-07-08T10:12:11Z</time>
 </trkpt>
 <trkpt lat="47.242928" lon="12.108775">
 <ele>1530.94</ele>
 <time>2010-07-08T10:12:22Z</time>
 </trkpt>
 <trkpt lat="47.242882" lon="12.109294">
 <ele>1531.05</ele>
 <time>2010-07-08T10:12:30Z</time>
 </trkpt>
 <trkpt lat="47.242878" lon="12.109747">
 <ele>1530.78</ele>
 <time>2010-07-08T10:12:37Z</time>
 </trkpt>
 <trkpt lat="47.242958" lon="12.110318">
 <ele>1530.69</ele>
 <time>2010-07-08T10:12:45Z</time>
 </trkpt>
 <trkpt lat="47.243042" lon="12.110955">
 <ele>1530.56</ele>
 <time>2010-07-08T10:12:53Z</time>
 </trkpt>
 <trkpt lat="47.243130" lon="12.111667">
 <ele>1529.12</ele>
 <time>2010-07-08T10:13:01Z</time>
 </trkpt>
 <trkpt lat="47.243156" lon="12.112220">
 <ele>1529.38</ele>
 <time>2010-07-08T10:13:07Z</time>
 </trkpt>
 <trkpt lat="47.243160" lon="12.112342">
 <ele>1529.47</ele>
 <time>2010-07-08T10:13:10Z</time>
 </trkpt>
 <trkpt lat="47.243160" lon="12.112342">
 <ele>1529.57</ele>
 <time>2010-07-08T10:13:11Z</time>
 </trkpt>
 <trkpt lat="47.243172" lon="12.112478">
 <ele>1528.91</ele>
 <time>2010-07-08T10:13:31Z</time>
 </trkpt>
 <trkpt lat="47.243191" lon="12.112753">
 <ele>1527.84</ele>
 <time>2010-07-08T10:13:37Z</time>
 </trkpt>
 <trkpt lat="47.243221" lon="12.113152">
 <ele>1526.69</ele>
 <time>2010-07-08T10:13:43Z</time>
 </trkpt>
 <trkpt lat="47.243294" lon="12.113720">
 <ele>1525.30</ele>
 <time>2010-07-08T10:13:50Z</time>
 </trkpt>
 <trkpt lat="47.243427" lon="12.114429">
 <ele>1522.42</ele>
 <time>2010-07-08T10:13:57Z</time>
 </trkpt>
 <trkpt lat="47.243599" lon="12.115330">
 <ele>1520.05</ele>
 <time>2010-07-08T10:14:05Z</time>
 </trkpt>
 <trkpt lat="47.243759" lon="12.116171">
 <ele>1517.54</ele>
 <time>2010-07-08T10:14:12Z</time>
 </trkpt>
 <trkpt lat="47.243805" lon="12.116988">
 <ele>1514.89</ele>
 <time>2010-07-08T10:14:18Z</time>
 </trkpt>
 <trkpt lat="47.243793" lon="12.117711">
 <ele>1512.24</ele>
 <time>2010-07-08T10:14:24Z</time>
 </trkpt>
 <trkpt lat="47.243809" lon="12.118501">
 <ele>1510.69</ele>
 <time>2010-07-08T10:14:31Z</time>
 </trkpt>
 <trkpt lat="47.243828" lon="12.119118">
 <ele>1509.14</ele>
 <time>2010-07-08T10:14:36Z</time>
 </trkpt>
 <trkpt lat="47.243820" lon="12.119774">
 <ele>1506.27</ele>
 <time>2010-07-08T10:14:41Z</time>
 </trkpt>
 <trkpt lat="47.243717" lon="12.120384">
 <ele>1504.19</ele>
 <time>2010-07-08T10:14:46Z</time>
 </trkpt>
 <trkpt lat="47.243610" lon="12.120738">
 <ele>1504.21</ele>
 <time>2010-07-08T10:14:50Z</time>
 </trkpt>
 <trkpt lat="47.243591" lon="12.120795">
 <ele>1505.06</ele>
 <time>2010-07-08T10:14:54Z</time>
 </trkpt>
 <trkpt lat="47.243591" lon="12.120795">
 <ele>1505.16</ele>
 <time>2010-07-08T10:14:58Z</time>
 </trkpt>
 <trkpt lat="47.243652" lon="12.120910">
 <ele>1505.57</ele>
 <time>2010-07-08T10:15:36Z</time>
 </trkpt>
 <trkpt lat="47.243702" lon="12.121026">
 <ele>1504.78</ele>
 <time>2010-07-08T10:15:41Z</time>
 </trkpt>
 <trkpt lat="47.243736" lon="12.121192">
 <ele>1504.07</ele>
 <time>2010-07-08T10:15:43Z</time>
 </trkpt>
 <trkpt lat="47.243683" lon="12.121727">
 <ele>1500.80</ele>
 <time>2010-07-08T10:15:50Z</time>
 </trkpt>
 <trkpt lat="47.243660" lon="12.121807">
 <ele>1500.61</ele>
 <time>2010-07-08T10:15:51Z</time>
 </trkpt>
 <trkpt lat="47.243637" lon="12.122164">
 <ele>1500.86</ele>
 <time>2010-07-08T10:15:56Z</time>
 </trkpt>
 <trkpt lat="47.243671" lon="12.122550">
 <ele>1501.77</ele>
 <time>2010-07-08T10:16:03Z</time>
 </trkpt>
 <trkpt lat="47.243809" lon="12.122935">
 <ele>1501.79</ele>
 <time>2010-07-08T10:16:10Z</time>
 </trkpt>
 <trkpt lat="47.243893" lon="12.123169">
 <ele>1501.67</ele>
 <time>2010-07-08T10:16:14Z</time>
 </trkpt>
 <trkpt lat="47.243977" lon="12.123400">
 <ele>1502.28</ele>
 <time>2010-07-08T10:16:18Z</time>
 </trkpt>
 <trkpt lat="47.244217" lon="12.123771">
 <ele>1504.67</ele>
 <time>2010-07-08T10:16:27Z</time>
 </trkpt>
 <trkpt lat="47.244343" lon="12.123998">
 <ele>1504.74</ele>
 <time>2010-07-08T10:16:32Z</time>
 </trkpt>
 <trkpt lat="47.244427" lon="12.124482">
 <ele>1504.55</ele>
 <time>2010-07-08T10:16:40Z</time>
 </trkpt>
 <trkpt lat="47.244450" lon="12.124976">
 <ele>1504.66</ele>
 <time>2010-07-08T10:16:48Z</time>
 </trkpt>
 <trkpt lat="47.244568" lon="12.125414">
 <ele>1504.99</ele>
 <time>2010-07-08T10:16:56Z</time>
 </trkpt>
 <trkpt lat="47.244678" lon="12.125819">
 <ele>1505.16</ele>
 <time>2010-07-08T10:17:03Z</time>
 </trkpt>
 <trkpt lat="47.244759" lon="12.126175">
 <ele>1506.64</ele>
 <time>2010-07-08T10:17:09Z</time>
 </trkpt>
 <trkpt lat="47.244839" lon="12.126638">
 <ele>1507.10</ele>
 <time>2010-07-08T10:17:17Z</time>
 </trkpt>
 <trkpt lat="47.244892" lon="12.127120">
 <ele>1507.13</ele>
 <time>2010-07-08T10:17:25Z</time>
 </trkpt>
 <trkpt lat="47.244953" lon="12.127598">
 <ele>1507.87</ele>
 <time>2010-07-08T10:17:33Z</time>
 </trkpt>
 <trkpt lat="47.245052" lon="12.128025">
 <ele>1508.58</ele>
 <time>2010-07-08T10:17:41Z</time>
 </trkpt>
 <trkpt lat="47.245182" lon="12.128311">
 <ele>1508.73</ele>
 <time>2010-07-08T10:17:47Z</time>
 </trkpt>
 <trkpt lat="47.245354" lon="12.128622">
 <ele>1508.72</ele>
 <time>2010-07-08T10:17:54Z</time>
 </trkpt>
 <trkpt lat="47.245586" lon="12.129049">
 <ele>1508.16</ele>
 <time>2010-07-08T10:18:03Z</time>
 </trkpt>
 <trkpt lat="47.245647" lon="12.129156">
 <ele>1507.67</ele>
 <time>2010-07-08T10:18:05Z</time>
 </trkpt>
 <trkpt lat="47.245842" lon="12.129429">
 <ele>1506.76</ele>
 <time>2010-07-08T10:18:11Z</time>
 </trkpt>
 <trkpt lat="47.245907" lon="12.129518">
 <ele>1506.24</ele>
 <time>2010-07-08T10:18:13Z</time>
 </trkpt>
 <trkpt lat="47.245968" lon="12.129600">
 <ele>1505.86</ele>
 <time>2010-07-08T10:18:15Z</time>
 </trkpt>
 <trkpt lat="47.246174" lon="12.129781">
 <ele>1504.65</ele>
 <time>2010-07-08T10:18:20Z</time>
 </trkpt>
 <trkpt lat="47.246254" lon="12.129700">
 <ele>1504.00</ele>
 <time>2010-07-08T10:18:23Z</time>
 </trkpt>
 <trkpt lat="47.246349" lon="12.129548">
 <ele>1502.61</ele>
 <time>2010-07-08T10:18:26Z</time>
 </trkpt>
 <trkpt lat="47.246559" lon="12.129208">
 <ele>1498.41</ele>
 <time>2010-07-08T10:18:32Z</time>
 </trkpt>
 <trkpt lat="47.246712" lon="12.129016">
 <ele>1496.03</ele>
 <time>2010-07-08T10:18:35Z</time>
 </trkpt>
 <trkpt lat="47.247093" lon="12.128734">
 <ele>1492.18</ele>
 <time>2010-07-08T10:18:41Z</time>
 </trkpt>
 <trkpt lat="47.247158" lon="12.128690">
 <ele>1492.18</ele>
 <time>2010-07-08T10:18:42Z</time>
 </trkpt>
 <trkpt lat="47.247379" lon="12.128483">
 <ele>1490.63</ele>
 <time>2010-07-08T10:18:46Z</time>
 </trkpt>
 <trkpt lat="47.247570" lon="12.128466">
 <ele>1489.44</ele>
 <time>2010-07-08T10:18:50Z</time>
 </trkpt>
 <trkpt lat="47.247646" lon="12.128593">
 <ele>1488.38</ele>
 <time>2010-07-08T10:18:53Z</time>
 </trkpt>
 <trkpt lat="47.247715" lon="12.128948">
 <ele>1486.00</ele>
 <time>2010-07-08T10:18:58Z</time>
 </trkpt>
 <trkpt lat="47.247753" lon="12.129325">
 <ele>1483.66</ele>
 <time>2010-07-08T10:19:02Z</time>
 </trkpt>
 <trkpt lat="47.247810" lon="12.129809">
 <ele>1481.54</ele>
 <time>2010-07-08T10:19:07Z</time>
 </trkpt>
 <trkpt lat="47.248093" lon="12.130097">
 <ele>1480.01</ele>
 <time>2010-07-08T10:19:11Z</time>
 </trkpt>
 <trkpt lat="47.248241" lon="12.130031">
 <ele>1479.65</ele>
 <time>2010-07-08T10:19:14Z</time>
 </trkpt>
 <trkpt lat="47.248390" lon="12.129883">
 <ele>1478.86</ele>
 <time>2010-07-08T10:19:17Z</time>
 </trkpt>
 <trkpt lat="47.248566" lon="12.129720">
 <ele>1477.24</ele>
 <time>2010-07-08T10:19:20Z</time>
 </trkpt>
 <trkpt lat="47.248775" lon="12.129519">
 <ele>1475.60</ele>
 <time>2010-07-08T10:19:24Z</time>
 </trkpt>
 <trkpt lat="47.248981" lon="12.129648">
 <ele>1475.43</ele>
 <time>2010-07-08T10:19:27Z</time>
 </trkpt>
 <trkpt lat="47.249062" lon="12.129931">
 <ele>1473.92</ele>
 <time>2010-07-08T10:19:30Z</time>
 </trkpt>
 <trkpt lat="47.249058" lon="12.130026">
 <ele>1473.33</ele>
 <time>2010-07-08T10:19:31Z</time>
 </trkpt>
 <trkpt lat="47.249046" lon="12.130249">
 <ele>1472.96</ele>
 <time>2010-07-08T10:19:33Z</time>
 </trkpt>
 <trkpt lat="47.249092" lon="12.130688">
 <ele>1471.08</ele>
 <time>2010-07-08T10:19:37Z</time>
 </trkpt>
 <trkpt lat="47.249199" lon="12.131522">
 <ele>1466.71</ele>
 <time>2010-07-08T10:19:44Z</time>
 </trkpt>
 <trkpt lat="47.249214" lon="12.132115">
 <ele>1466.61</ele>
 <time>2010-07-08T10:19:49Z</time>
 </trkpt>
 <trkpt lat="47.249271" lon="12.132697">
 <ele>1465.70</ele>
 <time>2010-07-08T10:19:54Z</time>
 </trkpt>
 <trkpt lat="47.249439" lon="12.133661">
 <ele>1464.79</ele>
 <time>2010-07-08T10:20:03Z</time>
 </trkpt>
 <trkpt lat="47.249565" lon="12.134055">
 <ele>1464.23</ele>
 <time>2010-07-08T10:20:07Z</time>
 </trkpt>
 <trkpt lat="47.249664" lon="12.134328">
 <ele>1463.24</ele>
 <time>2010-07-08T10:20:10Z</time>
 </trkpt>
 <trkpt lat="47.249794" lon="12.134507">
 <ele>1463.09</ele>
 <time>2010-07-08T10:20:14Z</time>
 </trkpt>
 <trkpt lat="47.249939" lon="12.134518">
 <ele>1462.55</ele>
 <time>2010-07-08T10:20:18Z</time>
 </trkpt>
 <trkpt lat="47.250278" lon="12.134364">
 <ele>1458.56</ele>
 <time>2010-07-08T10:20:23Z</time>
 </trkpt>
 <trkpt lat="47.250500" lon="12.134184">
 <ele>1455.47</ele>
 <time>2010-07-08T10:20:26Z</time>
 </trkpt>
 <trkpt lat="47.250839" lon="12.133912">
 <ele>1454.12</ele>
 <time>2010-07-08T10:20:31Z</time>
 </trkpt>
 <trkpt lat="47.251030" lon="12.133637">
 <ele>1453.72</ele>
 <time>2010-07-08T10:20:35Z</time>
 </trkpt>
 <trkpt lat="47.251133" lon="12.133487">
 <ele>1453.15</ele>
 <time>2010-07-08T10:20:37Z</time>
 </trkpt>
 <trkpt lat="47.251442" lon="12.132873">
 <ele>1451.31</ele>
 <time>2010-07-08T10:20:44Z</time>
 </trkpt>
 <trkpt lat="47.251621" lon="12.132509">
 <ele>1450.33</ele>
 <time>2010-07-08T10:20:48Z</time>
 </trkpt>
 <trkpt lat="47.251743" lon="12.132279">
 <ele>1449.33</ele>
 <time>2010-07-08T10:20:51Z</time>
 </trkpt>
 <trkpt lat="47.251877" lon="12.132083">
 <ele>1449.02</ele>
 <time>2010-07-08T10:20:55Z</time>
 </trkpt>
 <trkpt lat="47.251904" lon="12.132042">
 <ele>1449.15</ele>
 <time>2010-07-08T10:20:57Z</time>
 </trkpt>
 <trkpt lat="47.252071" lon="12.131767">
 <ele>1447.80</ele>
 <time>2010-07-08T10:21:03Z</time>
 </trkpt>
 <trkpt lat="47.252316" lon="12.131298">
 <ele>1444.85</ele>
 <time>2010-07-08T10:21:09Z</time>
 </trkpt>
 <trkpt lat="47.252514" lon="12.130821">
 <ele>1443.39</ele>
 <time>2010-07-08T10:21:14Z</time>
 </trkpt>
 <trkpt lat="47.252628" lon="12.130544">
 <ele>1442.83</ele>
 <time>2010-07-08T10:21:17Z</time>
 </trkpt>
 <trkpt lat="47.252739" lon="12.130278">
 <ele>1442.68</ele>
 <time>2010-07-08T10:21:21Z</time>
 </trkpt>
 <trkpt lat="47.252800" lon="12.130222">
 <ele>1442.56</ele>
 <time>2010-07-08T10:21:23Z</time>
 </trkpt>
 <trkpt lat="47.252983" lon="12.130376">
 <ele>1442.94</ele>
 <time>2010-07-08T10:21:27Z</time>
 </trkpt>
 <trkpt lat="47.253029" lon="12.130649">
 <ele>1442.74</ele>
 <time>2010-07-08T10:21:31Z</time>
 </trkpt>
 <trkpt lat="47.253021" lon="12.130756">
 <ele>1442.88</ele>
 <time>2010-07-08T10:21:32Z</time>
 </trkpt>
 <trkpt lat="47.252914" lon="12.131120">
 <ele>1443.09</ele>
 <time>2010-07-08T10:21:37Z</time>
 </trkpt>
 <trkpt lat="47.252777" lon="12.131580">
 <ele>1443.76</ele>
 <time>2010-07-08T10:21:43Z</time>
 </trkpt>
 <trkpt lat="47.252712" lon="12.131796">
 <ele>1444.25</ele>
 <time>2010-07-08T10:21:46Z</time>
 </trkpt>
 <trkpt lat="47.252651" lon="12.132005">
 <ele>1444.67</ele>
 <time>2010-07-08T10:21:49Z</time>
 </trkpt>
 <trkpt lat="47.252537" lon="12.132642">
 <ele>1445.56</ele>
 <time>2010-07-08T10:21:58Z</time>
 </trkpt>
 <trkpt lat="47.252529" lon="12.133089">
 <ele>1446.65</ele>
 <time>2010-07-08T10:22:05Z</time>
 </trkpt>
 <trkpt lat="47.252529" lon="12.133152">
 <ele>1446.70</ele>
 <time>2010-07-08T10:22:06Z</time>
 </trkpt>
 <trkpt lat="47.252533" lon="12.133279">
 <ele>1446.90</ele>
 <time>2010-07-08T10:22:08Z</time>
 </trkpt>
 <trkpt lat="47.252537" lon="12.133611">
 <ele>1447.71</ele>
 <time>2010-07-08T10:22:13Z</time>
 </trkpt>
 <trkpt lat="47.252522" lon="12.133873">
 <ele>1448.16</ele>
 <time>2010-07-08T10:22:17Z</time>
 </trkpt>
 <trkpt lat="47.252464" lon="12.134331">
 <ele>1449.17</ele>
 <time>2010-07-08T10:22:24Z</time>
 </trkpt>
 <trkpt lat="47.252396" lon="12.134461">
 <ele>1449.61</ele>
 <time>2010-07-08T10:22:27Z</time>
 </trkpt>
 <trkpt lat="47.252316" lon="12.134610">
 <ele>1449.63</ele>
 <time>2010-07-08T10:22:30Z</time>
 </trkpt>
 <trkpt lat="47.252186" lon="12.134833">
 <ele>1450.37</ele>
 <time>2010-07-08T10:22:35Z</time>
 </trkpt>
 <trkpt lat="47.252052" lon="12.135019">
 <ele>1450.90</ele>
 <time>2010-07-08T10:22:39Z</time>
 </trkpt>
 <trkpt lat="47.251991" lon="12.135105">
 <ele>1450.88</ele>
 <time>2010-07-08T10:22:41Z</time>
 </trkpt>
 <trkpt lat="47.251778" lon="12.135401">
 <ele>1451.71</ele>
 <time>2010-07-08T10:22:48Z</time>
 </trkpt>
 <trkpt lat="47.251534" lon="12.135742">
 <ele>1451.94</ele>
 <time>2010-07-08T10:22:56Z</time>
 </trkpt>
 <trkpt lat="47.251331" lon="12.136248">
 <ele>1452.68</ele>
 <time>2010-07-08T10:23:05Z</time>
 </trkpt>
 <trkpt lat="47.251308" lon="12.136303">
 <ele>1452.83</ele>
 <time>2010-07-08T10:23:06Z</time>
 </trkpt>
 <trkpt lat="47.251240" lon="12.136523">
 <ele>1453.26</ele>
 <time>2010-07-08T10:23:10Z</time>
 </trkpt>
 <trkpt lat="47.251129" lon="12.136916">
 <ele>1453.45</ele>
 <time>2010-07-08T10:23:17Z</time>
 </trkpt>
 <trkpt lat="47.251041" lon="12.137350">
 <ele>1453.88</ele>
 <time>2010-07-08T10:23:25Z</time>
 </trkpt>
 <trkpt lat="47.250977" lon="12.137761">
 <ele>1454.89</ele>
 <time>2010-07-08T10:23:32Z</time>
 </trkpt>
 <trkpt lat="47.250889" lon="12.138279">
 <ele>1455.53</ele>
 <time>2010-07-08T10:23:41Z</time>
 </trkpt>
 <trkpt lat="47.250870" lon="12.138395">
 <ele>1455.67</ele>
 <time>2010-07-08T10:23:43Z</time>
 </trkpt>
 <trkpt lat="47.250793" lon="12.138696">
 <ele>1455.48</ele>
 <time>2010-07-08T10:23:48Z</time>
 </trkpt>
 <trkpt lat="47.250759" lon="12.138816">
 <ele>1455.03</ele>
 <time>2010-07-08T10:23:50Z</time>
 </trkpt>
 <trkpt lat="47.250710" lon="12.138998">
 <ele>1454.64</ele>
 <time>2010-07-08T10:23:53Z</time>
 </trkpt>
 <trkpt lat="47.250637" lon="12.139417">
 <ele>1455.25</ele>
 <time>2010-07-08T10:24:00Z</time>
 </trkpt>
 <trkpt lat="47.250587" lon="12.139887">
 <ele>1455.08</ele>
 <time>2010-07-08T10:24:07Z</time>
 </trkpt>
 <trkpt lat="47.250584" lon="12.140480">
 <ele>1454.92</ele>
 <time>2010-07-08T10:24:15Z</time>
 </trkpt>
 <trkpt lat="47.250561" lon="12.140836">
 <ele>1454.46</ele>
 <time>2010-07-08T10:24:20Z</time>
 </trkpt>
 <trkpt lat="47.250542" lon="12.141172">
 <ele>1454.41</ele>
 <time>2010-07-08T10:24:25Z</time>
 </trkpt>
 <trkpt lat="47.250523" lon="12.141472">
 <ele>1453.82</ele>
 <time>2010-07-08T10:24:29Z</time>
 </trkpt>
 <trkpt lat="47.250481" lon="12.142136">
 <ele>1454.23</ele>
 <time>2010-07-08T10:24:38Z</time>
 </trkpt>
 <trkpt lat="47.250435" lon="12.142860">
 <ele>1454.05</ele>
 <time>2010-07-08T10:24:48Z</time>
 </trkpt>
 <trkpt lat="47.250397" lon="12.143498">
 <ele>1454.74</ele>
 <time>2010-07-08T10:24:57Z</time>
 </trkpt>
 <trkpt lat="47.250385" lon="12.143642">
 <ele>1454.85</ele>
 <time>2010-07-08T10:24:59Z</time>
 </trkpt>
 <trkpt lat="47.250355" lon="12.144151">
 <ele>1454.93</ele>
 <time>2010-07-08T10:25:06Z</time>
 </trkpt>
 <trkpt lat="47.250336" lon="12.144507">
 <ele>1455.36</ele>
 <time>2010-07-08T10:25:11Z</time>
 </trkpt>
 <trkpt lat="47.250393" lon="12.144647">
 <ele>1455.22</ele>
 <time>2010-07-08T10:25:15Z</time>
 </trkpt>
 <trkpt lat="47.250420" lon="12.144688">
 <ele>1455.15</ele>
 <time>2010-07-08T10:25:16Z</time>
 </trkpt>
 <trkpt lat="47.250511" lon="12.144835">
 <ele>1453.98</ele>
 <time>2010-07-08T10:25:19Z</time>
 </trkpt>
 <trkpt lat="47.250610" lon="12.145068">
 <ele>1452.01</ele>
 <time>2010-07-08T10:25:23Z</time>
 </trkpt>
 <trkpt lat="47.250553" lon="12.145194">
 <ele>1451.92</ele>
 <time>2010-07-08T10:25:25Z</time>
 </trkpt>
 <trkpt lat="47.250408" lon="12.145506">
 <ele>1451.60</ele>
 <time>2010-07-08T10:25:30Z</time>
 </trkpt>
 <trkpt lat="47.250340" lon="12.145628">
 <ele>1451.79</ele>
 <time>2010-07-08T10:25:32Z</time>
 </trkpt>
 <trkpt lat="47.250080" lon="12.146000">
 <ele>1451.56</ele>
 <time>2010-07-08T10:25:39Z</time>
 </trkpt>
 <trkpt lat="47.249924" lon="12.146185">
 <ele>1451.81</ele>
 <time>2010-07-08T10:25:43Z</time>
 </trkpt>
 <trkpt lat="47.249840" lon="12.146273">
 <ele>1451.76</ele>
 <time>2010-07-08T10:25:45Z</time>
 </trkpt>
 <trkpt lat="47.249718" lon="12.146402">
 <ele>1451.46</ele>
 <time>2010-07-08T10:25:48Z</time>
 </trkpt>
 <trkpt lat="47.249550" lon="12.146771">
 <ele>1450.16</ele>
 <time>2010-07-08T10:25:54Z</time>
 </trkpt>
 <trkpt lat="47.249420" lon="12.147233">
 <ele>1446.74</ele>
 <time>2010-07-08T10:25:59Z</time>
 </trkpt>
 <trkpt lat="47.249290" lon="12.147864">
 <ele>1443.08</ele>
 <time>2010-07-08T10:26:05Z</time>
 </trkpt>
 <trkpt lat="47.249161" lon="12.148435">
 <ele>1439.80</ele>
 <time>2010-07-08T10:26:10Z</time>
 </trkpt>
 <trkpt lat="47.249065" lon="12.148736">
 <ele>1438.84</ele>
 <time>2010-07-08T10:26:14Z</time>
 </trkpt>
 <trkpt lat="47.249001" lon="12.148950">
 <ele>1437.96</ele>
 <time>2010-07-08T10:26:18Z</time>
 </trkpt>
 <trkpt lat="47.249012" lon="12.149274">
 <ele>1435.90</ele>
 <time>2010-07-08T10:26:23Z</time>
 </trkpt>
 <trkpt lat="47.249016" lon="12.149403">
 <ele>1434.79</ele>
 <time>2010-07-08T10:26:25Z</time>
 </trkpt>
 <trkpt lat="47.249020" lon="12.149612">
 <ele>1432.49</ele>
 <time>2010-07-08T10:26:28Z</time>
 </trkpt>
 <trkpt lat="47.248993" lon="12.150013">
 <ele>1427.40</ele>
 <time>2010-07-08T10:26:33Z</time>
 </trkpt>
 <trkpt lat="47.248886" lon="12.150681">
 <ele>1423.41</ele>
 <time>2010-07-08T10:26:41Z</time>
 </trkpt>
 <trkpt lat="47.248787" lon="12.151025">
 <ele>1419.46</ele>
 <time>2010-07-08T10:26:45Z</time>
 </trkpt>
 <trkpt lat="47.248650" lon="12.151383">
 <ele>1416.46</ele>
 <time>2010-07-08T10:26:49Z</time>
 </trkpt>
 <trkpt lat="47.248600" lon="12.151549">
 <ele>1414.96</ele>
 <time>2010-07-08T10:26:51Z</time>
 </trkpt>
 <trkpt lat="47.248528" lon="12.151830">
 <ele>1411.53</ele>
 <time>2010-07-08T10:26:55Z</time>
 </trkpt>
 <trkpt lat="47.248539" lon="12.151965">
 <ele>1409.18</ele>
 <time>2010-07-08T10:26:58Z</time>
 </trkpt>
 <trkpt lat="47.248573" lon="12.152027">
 <ele>1408.36</ele>
 <time>2010-07-08T10:26:59Z</time>
 </trkpt>
 <trkpt lat="47.248680" lon="12.152217">
 <ele>1405.58</ele>
 <time>2010-07-08T10:27:02Z</time>
 </trkpt>
 <trkpt lat="47.248810" lon="12.152499">
 <ele>1402.67</ele>
 <time>2010-07-08T10:27:06Z</time>
 </trkpt>
 <trkpt lat="47.248932" lon="12.152999">
 <ele>1397.91</ele>
 <time>2010-07-08T10:27:11Z</time>
 </trkpt>
 <trkpt lat="47.248894" lon="12.153377">
 <ele>1394.57</ele>
 <time>2010-07-08T10:27:15Z</time>
 </trkpt>
 <trkpt lat="47.248840" lon="12.153832">
 <ele>1389.87</ele>
 <time>2010-07-08T10:27:19Z</time>
 </trkpt>
 <trkpt lat="47.248718" lon="12.154546">
 <ele>1384.32</ele>
 <time>2010-07-08T10:27:24Z</time>
 </trkpt>
 <trkpt lat="47.248646" lon="12.154828">
 <ele>1383.53</ele>
 <time>2010-07-08T10:27:26Z</time>
 </trkpt>
 <trkpt lat="47.248562" lon="12.155040">
 <ele>1383.27</ele>
 <time>2010-07-08T10:27:28Z</time>
 </trkpt>
 <trkpt lat="47.248447" lon="12.155226">
 <ele>1383.34</ele>
 <time>2010-07-08T10:27:30Z</time>
 </trkpt>
 <trkpt lat="47.248238" lon="12.155572">
 <ele>1381.29</ele>
 <time>2010-07-08T10:27:35Z</time>
 </trkpt>
 <trkpt lat="47.248196" lon="12.155640">
 <ele>1380.22</ele>
 <time>2010-07-08T10:27:36Z</time>
 </trkpt>
 <trkpt lat="47.247932" lon="12.155963">
 <ele>1376.34</ele>
 <time>2010-07-08T10:27:41Z</time>
 </trkpt>
 <trkpt lat="47.248093" lon="12.155931">
 <ele>1373.76</ele>
 <time>2010-07-08T10:27:44Z</time>
 </trkpt>
 <trkpt lat="47.248238" lon="12.156010">
 <ele>1371.70</ele>
 <time>2010-07-08T10:27:46Z</time>
 </trkpt>
 <trkpt lat="47.248547" lon="12.156315">
 <ele>1369.03</ele>
 <time>2010-07-08T10:27:50Z</time>
 </trkpt>
 <trkpt lat="47.248608" lon="12.156586">
 <ele>1368.20</ele>
 <time>2010-07-08T10:27:54Z</time>
 </trkpt>
 <trkpt lat="47.248604" lon="12.156620">
 <ele>1367.77</ele>
 <time>2010-07-08T10:27:56Z</time>
 </trkpt>
 <trkpt lat="47.248447" lon="12.156802">
 <ele>1366.65</ele>
 <time>2010-07-08T10:27:59Z</time>
 </trkpt>
 <trkpt lat="47.248245" lon="12.157035">
 <ele>1365.61</ele>
 <time>2010-07-08T10:28:03Z</time>
 </trkpt>
 <trkpt lat="47.248112" lon="12.157288">
 <ele>1366.28</ele>
 <time>2010-07-08T10:28:08Z</time>
 </trkpt>
 <trkpt lat="47.248070" lon="12.157374">
 <ele>1367.68</ele>
 <time>2010-07-08T10:28:13Z</time>
 </trkpt>
 <trkpt lat="47.248043" lon="12.157432">
 <ele>1367.90</ele>
 <time>2010-07-08T10:29:04Z</time>
 </trkpt>
 <trkpt lat="47.247990" lon="12.157552">
 <ele>1366.41</ele>
 <time>2010-07-08T10:29:08Z</time>
 </trkpt>
 <trkpt lat="47.247993" lon="12.158006">
 <ele>1367.11</ele>
 <time>2010-07-08T10:29:15Z</time>
 </trkpt>
 <trkpt lat="47.248035" lon="12.158339">
 <ele>1367.13</ele>
 <time>2010-07-08T10:29:20Z</time>
 </trkpt>
 <trkpt lat="47.247997" lon="12.158758">
 <ele>1367.58</ele>
 <time>2010-07-08T10:29:26Z</time>
 </trkpt>
 <trkpt lat="47.247982" lon="12.158903">
 <ele>1367.37</ele>
 <time>2010-07-08T10:29:28Z</time>
 </trkpt>
 <trkpt lat="47.247696" lon="12.159510">
 <ele>1367.10</ele>
 <time>2010-07-08T10:29:38Z</time>
 </trkpt>
 <trkpt lat="47.247398" lon="12.160028">
 <ele>1368.14</ele>
 <time>2010-07-08T10:29:47Z</time>
 </trkpt>
 <trkpt lat="47.247368" lon="12.160084">
 <ele>1368.19</ele>
 <time>2010-07-08T10:29:48Z</time>
 </trkpt>
 <trkpt lat="47.247227" lon="12.160383">
 <ele>1368.48</ele>
 <time>2010-07-08T10:29:53Z</time>
 </trkpt>
 <trkpt lat="47.247074" lon="12.160746">
 <ele>1368.42</ele>
 <time>2010-07-08T10:29:59Z</time>
 </trkpt>
 <trkpt lat="47.247021" lon="12.161030">
 <ele>1368.71</ele>
 <time>2010-07-08T10:30:03Z</time>
 </trkpt>
 <trkpt lat="47.247009" lon="12.161450">
 <ele>1369.70</ele>
 <time>2010-07-08T10:30:09Z</time>
 </trkpt>
 <trkpt lat="47.247005" lon="12.161522">
 <ele>1369.90</ele>
 <time>2010-07-08T10:30:10Z</time>
 </trkpt>
 <trkpt lat="47.246998" lon="12.161805">
 <ele>1369.67</ele>
 <time>2010-07-08T10:30:14Z</time>
 </trkpt>
 <trkpt lat="47.246994" lon="12.161955">
 <ele>1369.77</ele>
 <time>2010-07-08T10:30:16Z</time>
 </trkpt>
 <trkpt lat="47.246971" lon="12.162396">
 <ele>1369.29</ele>
 <time>2010-07-08T10:30:22Z</time>
 </trkpt>
 <trkpt lat="47.246929" lon="12.162797">
 <ele>1367.62</ele>
 <time>2010-07-08T10:30:27Z</time>
 </trkpt>
 <trkpt lat="47.246922" lon="12.163183">
 <ele>1365.09</ele>
 <time>2010-07-08T10:30:32Z</time>
 </trkpt>
 <trkpt lat="47.246929" lon="12.163916">
 <ele>1359.19</ele>
 <time>2010-07-08T10:30:39Z</time>
 </trkpt>
 <trkpt lat="47.246937" lon="12.164432">
 <ele>1355.52</ele>
 <time>2010-07-08T10:30:44Z</time>
 </trkpt>
 <trkpt lat="47.246941" lon="12.164868">
 <ele>1352.39</ele>
 <time>2010-07-08T10:30:49Z</time>
 </trkpt>
 <trkpt lat="47.246941" lon="12.164961">
 <ele>1351.88</ele>
 <time>2010-07-08T10:30:50Z</time>
 </trkpt>
 <trkpt lat="47.246841" lon="12.165287">
 <ele>1349.68</ele>
 <time>2010-07-08T10:30:54Z</time>
 </trkpt>
 <trkpt lat="47.246655" lon="12.165647">
 <ele>1345.28</ele>
 <time>2010-07-08T10:30:59Z</time>
 </trkpt>
 <trkpt lat="47.246490" lon="12.165812">
 <ele>1342.73</ele>
 <time>2010-07-08T10:31:02Z</time>
 </trkpt>
 <trkpt lat="47.246273" lon="12.165962">
 <ele>1340.41</ele>
 <time>2010-07-08T10:31:05Z</time>
 </trkpt>
 <trkpt lat="47.245926" lon="12.166165">
 <ele>1336.04</ele>
 <time>2010-07-08T10:31:10Z</time>
 </trkpt>
 <trkpt lat="47.245884" lon="12.166246">
 <ele>1335.01</ele>
 <time>2010-07-08T10:31:11Z</time>
 </trkpt>
 <trkpt lat="47.245735" lon="12.166530">
 <ele>1331.56</ele>
 <time>2010-07-08T10:31:15Z</time>
 </trkpt>
 <trkpt lat="47.245678" lon="12.166708">
 <ele>1330.46</ele>
 <time>2010-07-08T10:31:17Z</time>
 </trkpt>
 <trkpt lat="47.245697" lon="12.166921">
 <ele>1328.27</ele>
 <time>2010-07-08T10:31:19Z</time>
 </trkpt>
 <trkpt lat="47.245712" lon="12.167091">
 <ele>1326.64</ele>
 <time>2010-07-08T10:31:21Z</time>
 </trkpt>
 <trkpt lat="47.245739" lon="12.167405">
 <ele>1322.91</ele>
 <time>2010-07-08T10:31:25Z</time>
 </trkpt>
 <trkpt lat="47.245750" lon="12.167583">
 <ele>1320.13</ele>
 <time>2010-07-08T10:31:27Z</time>
 </trkpt>
 <trkpt lat="47.245785" lon="12.168038">
 <ele>1315.85</ele>
 <time>2010-07-08T10:31:32Z</time>
 </trkpt>
 <trkpt lat="47.245808" lon="12.168571">
 <ele>1310.83</ele>
 <time>2010-07-08T10:31:37Z</time>
 </trkpt>
 <trkpt lat="47.245834" lon="12.169139">
 <ele>1306.32</ele>
 <time>2010-07-08T10:31:42Z</time>
 </trkpt>
 <trkpt lat="47.245861" lon="12.169802">
 <ele>1301.01</ele>
 <time>2010-07-08T10:31:49Z</time>
 </trkpt>
 <trkpt lat="47.245831" lon="12.170237">
 <ele>1297.65</ele>
 <time>2010-07-08T10:31:54Z</time>
 </trkpt>
 <trkpt lat="47.245804" lon="12.170424">
 <ele>1295.10</ele>
 <time>2010-07-08T10:31:56Z</time>
 </trkpt>
 <trkpt lat="47.245712" lon="12.170834">
 <ele>1290.98</ele>
 <time>2010-07-08T10:32:00Z</time>
 </trkpt>
 <trkpt lat="47.245632" lon="12.171135">
 <ele>1288.89</ele>
 <time>2010-07-08T10:32:04Z</time>
 </trkpt>
 <trkpt lat="47.245701" lon="12.171337">
 <ele>1287.62</ele>
 <time>2010-07-08T10:32:07Z</time>
 </trkpt>
 <trkpt lat="47.245815" lon="12.171661">
 <ele>1284.08</ele>
 <time>2010-07-08T10:32:11Z</time>
 </trkpt>
 <trkpt lat="47.245930" lon="12.172134">
 <ele>1279.22</ele>
 <time>2010-07-08T10:32:16Z</time>
 </trkpt>
 <trkpt lat="47.245983" lon="12.172435">
 <ele>1276.17</ele>
 <time>2010-07-08T10:32:19Z</time>
 </trkpt>
 <trkpt lat="47.246048" lon="12.173083">
 <ele>1271.43</ele>
 <time>2010-07-08T10:32:24Z</time>
 </trkpt>
 <trkpt lat="47.246105" lon="12.173667">
 <ele>1267.57</ele>
 <time>2010-07-08T10:32:29Z</time>
 </trkpt>
 <trkpt lat="47.246094" lon="12.173848">
 <ele>1265.95</ele>
 <time>2010-07-08T10:32:31Z</time>
 </trkpt>
 <trkpt lat="47.246082" lon="12.174015">
 <ele>1265.23</ele>
 <time>2010-07-08T10:32:33Z</time>
 </trkpt>
 <trkpt lat="47.246059" lon="12.174333">
 <ele>1262.43</ele>
 <time>2010-07-08T10:32:37Z</time>
 </trkpt>
 <trkpt lat="47.245972" lon="12.174473">
 <ele>1260.62</ele>
 <time>2010-07-08T10:32:39Z</time>
 </trkpt>
 <trkpt lat="47.245693" lon="12.174864">
 <ele>1256.75</ele>
 <time>2010-07-08T10:32:45Z</time>
 </trkpt>
 <trkpt lat="47.245331" lon="12.175211">
 <ele>1250.83</ele>
 <time>2010-07-08T10:32:52Z</time>
 </trkpt>
 <trkpt lat="47.245232" lon="12.175409">
 <ele>1248.77</ele>
 <time>2010-07-08T10:32:55Z</time>
 </trkpt>
 <trkpt lat="47.245094" lon="12.175724">
 <ele>1246.45</ele>
 <time>2010-07-08T10:33:00Z</time>
 </trkpt>
 <trkpt lat="47.245079" lon="12.176189">
 <ele>1242.45</ele>
 <time>2010-07-08T10:33:05Z</time>
 </trkpt>
 <trkpt lat="47.245178" lon="12.176887">
 <ele>1238.57</ele>
 <time>2010-07-08T10:33:12Z</time>
 </trkpt>
 <trkpt lat="47.245285" lon="12.177426">
 <ele>1236.28</ele>
 <time>2010-07-08T10:33:17Z</time>
 </trkpt>
 <trkpt lat="47.245308" lon="12.177539">
 <ele>1235.85</ele>
 <time>2010-07-08T10:33:18Z</time>
 </trkpt>
 <trkpt lat="47.245251" lon="12.178008">
 <ele>1234.75</ele>
 <time>2010-07-08T10:33:22Z</time>
 </trkpt>
 <trkpt lat="47.245144" lon="12.178474">
 <ele>1235.92</ele>
 <time>2010-07-08T10:33:27Z</time>
 </trkpt>
 <trkpt lat="47.245064" lon="12.179025">
 <ele>1236.86</ele>
 <time>2010-07-08T10:33:34Z</time>
 </trkpt>
 <trkpt lat="47.245068" lon="12.179105">
 <ele>1236.66</ele>
 <time>2010-07-08T10:33:35Z</time>
 </trkpt>
 <trkpt lat="47.245117" lon="12.179735">
 <ele>1234.00</ele>
 <time>2010-07-08T10:33:42Z</time>
 </trkpt>
 <trkpt lat="47.245148" lon="12.180173">
 <ele>1231.39</ele>
 <time>2010-07-08T10:33:46Z</time>
 </trkpt>
 <trkpt lat="47.245159" lon="12.180291">
 <ele>1231.39</ele>
 <time>2010-07-08T10:33:47Z</time>
 </trkpt>
 <trkpt lat="47.245110" lon="12.180873">
 <ele>1227.68</ele>
 <time>2010-07-08T10:33:52Z</time>
 </trkpt>
 <trkpt lat="47.245003" lon="12.181208">
 <ele>1225.69</ele>
 <time>2010-07-08T10:33:56Z</time>
 </trkpt>
 <trkpt lat="47.244946" lon="12.181334">
 <ele>1224.94</ele>
 <time>2010-07-08T10:33:58Z</time>
 </trkpt>
 <trkpt lat="47.244747" lon="12.181887">
 <ele>1221.95</ele>
 <time>2010-07-08T10:34:05Z</time>
 </trkpt>
 <trkpt lat="47.244690" lon="12.182062">
 <ele>1221.22</ele>
 <time>2010-07-08T10:34:07Z</time>
 </trkpt>
 <trkpt lat="47.244678" lon="12.182493">
 <ele>1219.93</ele>
 <time>2010-07-08T10:34:12Z</time>
 </trkpt>
 <trkpt lat="47.244686" lon="12.182851">
 <ele>1219.96</ele>
 <time>2010-07-08T10:34:16Z</time>
 </trkpt>
 <trkpt lat="47.244698" lon="12.182872">
 <ele>1219.86</ele>
 <time>2010-07-08T10:34:17Z</time>
 </trkpt>
 <trkpt lat="47.244789" lon="12.183109">
 <ele>1219.74</ele>
 <time>2010-07-08T10:34:20Z</time>
 </trkpt>
 <trkpt lat="47.245007" lon="12.183857">
 <ele>1218.58</ele>
 <time>2010-07-08T10:34:28Z</time>
 </trkpt>
 <trkpt lat="47.245045" lon="12.184352">
 <ele>1217.88</ele>
 <time>2010-07-08T10:34:33Z</time>
 </trkpt>
 <trkpt lat="47.245007" lon="12.185139">
 <ele>1216.30</ele>
 <time>2010-07-08T10:34:41Z</time>
 </trkpt>
 <trkpt lat="47.244961" lon="12.185739">
 <ele>1213.63</ele>
 <time>2010-07-08T10:34:48Z</time>
 </trkpt>
 <trkpt lat="47.244946" lon="12.185844">
 <ele>1212.96</ele>
 <time>2010-07-08T10:34:49Z</time>
 </trkpt>
 <trkpt lat="47.244877" lon="12.186382">
 <ele>1209.19</ele>
 <time>2010-07-08T10:34:54Z</time>
 </trkpt>
 <trkpt lat="47.244850" lon="12.186578">
 <ele>1208.47</ele>
 <time>2010-07-08T10:34:56Z</time>
 </trkpt>
 <trkpt lat="47.244820" lon="12.186815">
 <ele>1207.70</ele>
 <time>2010-07-08T10:35:00Z</time>
 </trkpt>
 <trkpt lat="47.244823" lon="12.187070">
 <ele>1206.42</ele>
 <time>2010-07-08T10:35:04Z</time>
 </trkpt>
 <trkpt lat="47.244831" lon="12.187390">
 <ele>1203.39</ele>
 <time>2010-07-08T10:35:07Z</time>
 </trkpt>
 <trkpt lat="47.244579" lon="12.188459">
 <ele>1196.97</ele>
 <time>2010-07-08T10:35:15Z</time>
 </trkpt>
 <trkpt lat="47.244389" lon="12.188773">
 <ele>1195.72</ele>
 <time>2010-07-08T10:35:18Z</time>
 </trkpt>
 <trkpt lat="47.244324" lon="12.188858">
 <ele>1195.62</ele>
 <time>2010-07-08T10:35:19Z</time>
 </trkpt>
 <trkpt lat="47.244099" lon="12.189153">
 <ele>1195.45</ele>
 <time>2010-07-08T10:35:23Z</time>
 </trkpt>
 <trkpt lat="47.244038" lon="12.189368">
 <ele>1194.20</ele>
 <time>2010-07-08T10:35:26Z</time>
 </trkpt>
 <trkpt lat="47.244030" lon="12.189616">
 <ele>1193.57</ele>
 <time>2010-07-08T10:35:30Z</time>
 </trkpt>
 <trkpt lat="47.244022" lon="12.189808">
 <ele>1192.62</ele>
 <time>2010-07-08T10:35:35Z</time>
 </trkpt>
 <trkpt lat="47.244022" lon="12.189808">
 <ele>1192.58</ele>
 <time>2010-07-08T10:35:36Z</time>
 </trkpt>
 <trkpt lat="47.244022" lon="12.189808">
 <ele>1191.65</ele>
 <time>2010-07-08T10:36:07Z</time>
 </trkpt>
 <trkpt lat="47.244034" lon="12.189859">
 <ele>1191.38</ele>
 <time>2010-07-08T10:38:15Z</time>
 </trkpt>
 <trkpt lat="47.244091" lon="12.190029">
 <ele>1189.99</ele>
 <time>2010-07-08T10:38:20Z</time>
 </trkpt>
 <trkpt lat="47.244202" lon="12.190367">
 <ele>1188.39</ele>
 <time>2010-07-08T10:38:25Z</time>
 </trkpt>
 <trkpt lat="47.244289" lon="12.190620">
 <ele>1186.55</ele>
 <time>2010-07-08T10:38:28Z</time>
 </trkpt>
 <trkpt lat="47.244343" lon="12.190787">
 <ele>1185.88</ele>
 <time>2010-07-08T10:38:30Z</time>
 </trkpt>
 <trkpt lat="47.244457" lon="12.191146">
 <ele>1186.07</ele>
 <time>2010-07-08T10:38:35Z</time>
 </trkpt>
 <trkpt lat="47.244606" lon="12.191715">
 <ele>1183.17</ele>
 <time>2010-07-08T10:38:42Z</time>
 </trkpt>
 <trkpt lat="47.244656" lon="12.191967">
 <ele>1180.72</ele>
 <time>2010-07-08T10:38:45Z</time>
 </trkpt>
 <trkpt lat="47.244709" lon="12.192224">
 <ele>1179.20</ele>
 <time>2010-07-08T10:38:48Z</time>
 </trkpt>
 <trkpt lat="47.244789" lon="12.192780">
 <ele>1173.23</ele>
 <time>2010-07-08T10:38:54Z</time>
 </trkpt>
 <trkpt lat="47.244877" lon="12.193431">
 <ele>1165.00</ele>
 <time>2010-07-08T10:39:00Z</time>
 </trkpt>
 <trkpt lat="47.244965" lon="12.194109">
 <ele>1157.39</ele>
 <time>2010-07-08T10:39:07Z</time>
 </trkpt>
 <trkpt lat="47.245010" lon="12.194466">
 <ele>1153.25</ele>
 <time>2010-07-08T10:39:11Z</time>
 </trkpt>
 <trkpt lat="47.245045" lon="12.194723">
 <ele>1151.45</ele>
 <time>2010-07-08T10:39:14Z</time>
 </trkpt>
 <trkpt lat="47.245071" lon="12.194901">
 <ele>1149.50</ele>
 <time>2010-07-08T10:39:16Z</time>
 </trkpt>
 <trkpt lat="47.245129" lon="12.195165">
 <ele>1146.25</ele>
 <time>2010-07-08T10:39:19Z</time>
 </trkpt>
 <trkpt lat="47.245289" lon="12.195867">
 <ele>1136.79</ele>
 <time>2010-07-08T10:39:26Z</time>
 </trkpt>
 <trkpt lat="47.245472" lon="12.196433">
 <ele>1129.46</ele>
 <time>2010-07-08T10:39:32Z</time>
 </trkpt>
 <trkpt lat="47.245777" lon="12.197145">
 <ele>1120.68</ele>
 <time>2010-07-08T10:39:40Z</time>
 </trkpt>
 <trkpt lat="47.245995" lon="12.197398">
 <ele>1115.64</ele>
 <time>2010-07-08T10:39:44Z</time>
 </trkpt>
 <trkpt lat="47.246311" lon="12.197670">
 <ele>1111.91</ele>
 <time>2010-07-08T10:39:49Z</time>
 </trkpt>
 <trkpt lat="47.246433" lon="12.197752">
 <ele>1110.45</ele>
 <time>2010-07-08T10:39:51Z</time>
 </trkpt>
 <trkpt lat="47.246719" lon="12.198084">
 <ele>1106.08</ele>
 <time>2010-07-08T10:39:56Z</time>
 </trkpt>
 <trkpt lat="47.246887" lon="12.198366">
 <ele>1103.16</ele>
 <time>2010-07-08T10:40:00Z</time>
 </trkpt>
 <trkpt lat="47.247044" lon="12.198667">
 <ele>1101.23</ele>
 <time>2010-07-08T10:40:04Z</time>
 </trkpt>
 <trkpt lat="47.247192" lon="12.199075">
 <ele>1097.86</ele>
 <time>2010-07-08T10:40:09Z</time>
 </trkpt>
 <trkpt lat="47.247269" lon="12.199438">
 <ele>1095.21</ele>
 <time>2010-07-08T10:40:13Z</time>
 </trkpt>
 <trkpt lat="47.247253" lon="12.199621">
 <ele>1093.30</ele>
 <time>2010-07-08T10:40:15Z</time>
 </trkpt>
 <trkpt lat="47.247059" lon="12.200281">
 <ele>1086.75</ele>
 <time>2010-07-08T10:40:21Z</time>
 </trkpt>
 <trkpt lat="47.246914" lon="12.200842">
 <ele>1082.67</ele>
 <time>2010-07-08T10:40:26Z</time>
 </trkpt>
 <trkpt lat="47.246849" lon="12.201100">
 <ele>1081.40</ele>
 <time>2010-07-08T10:40:29Z</time>
 </trkpt>
 <trkpt lat="47.246758" lon="12.201617">
 <ele>1075.99</ele>
 <time>2010-07-08T10:40:35Z</time>
 </trkpt>
 <trkpt lat="47.246723" lon="12.202124">
 <ele>1071.08</ele>
 <time>2010-07-08T10:40:41Z</time>
 </trkpt>
 <trkpt lat="47.246693" lon="12.202682">
 <ele>1066.68</ele>
 <time>2010-07-08T10:40:47Z</time>
 </trkpt>
 <trkpt lat="47.246681" lon="12.203105">
 <ele>1063.54</ele>
 <time>2010-07-08T10:40:52Z</time>
 </trkpt>
 <trkpt lat="47.246681" lon="12.203620">
 <ele>1060.65</ele>
 <time>2010-07-08T10:40:58Z</time>
 </trkpt>
 <trkpt lat="47.246681" lon="12.203767">
 <ele>1059.27</ele>
 <time>2010-07-08T10:41:00Z</time>
 </trkpt>
 <trkpt lat="47.246681" lon="12.204074">
 <ele>1057.12</ele>
 <time>2010-07-08T10:41:04Z</time>
 </trkpt>
 <trkpt lat="47.246639" lon="12.204454">
 <ele>1054.28</ele>
 <time>2010-07-08T10:41:08Z</time>
 </trkpt>
 <trkpt lat="47.246601" lon="12.204780">
 <ele>1052.90</ele>
 <time>2010-07-08T10:41:12Z</time>
 </trkpt>
 <trkpt lat="47.246685" lon="12.205563">
 <ele>1049.15</ele>
 <time>2010-07-08T10:41:20Z</time>
 </trkpt>
 <trkpt lat="47.246758" lon="12.206218">
 <ele>1045.13</ele>
 <time>2010-07-08T10:41:27Z</time>
 </trkpt>
 <trkpt lat="47.246811" lon="12.206712">
 <ele>1042.73</ele>
 <time>2010-07-08T10:41:33Z</time>
 </trkpt>
 <trkpt lat="47.246910" lon="12.207077">
 <ele>1039.38</ele>
 <time>2010-07-08T10:41:38Z</time>
 </trkpt>
 <trkpt lat="47.247055" lon="12.207582">
 <ele>1034.98</ele>
 <time>2010-07-08T10:41:44Z</time>
 </trkpt>
 <trkpt lat="47.247219" lon="12.208158">
 <ele>1030.21</ele>
 <time>2010-07-08T10:41:51Z</time>
 </trkpt>
 <trkpt lat="47.247322" lon="12.208519">
 <ele>1026.43</ele>
 <time>2010-07-08T10:41:55Z</time>
 </trkpt>
 <trkpt lat="47.247635" lon="12.209277">
 <ele>1021.32</ele>
 <time>2010-07-08T10:42:02Z</time>
 </trkpt>
 <trkpt lat="47.247829" lon="12.209809">
 <ele>1020.83</ele>
 <time>2010-07-08T10:42:07Z</time>
 </trkpt>
 <trkpt lat="47.247913" lon="12.210191">
 <ele>1020.07</ele>
 <time>2010-07-08T10:42:11Z</time>
 </trkpt>
 <trkpt lat="47.247959" lon="12.210386">
 <ele>1019.20</ele>
 <time>2010-07-08T10:42:13Z</time>
 </trkpt>
 <trkpt lat="47.248070" lon="12.210885">
 <ele>1015.26</ele>
 <time>2010-07-08T10:42:18Z</time>
 </trkpt>
 <trkpt lat="47.248360" lon="12.211564">
 <ele>1007.25</ele>
 <time>2010-07-08T10:42:24Z</time>
 </trkpt>
 <trkpt lat="47.248486" lon="12.212074">
 <ele>1002.23</ele>
 <time>2010-07-08T10:42:28Z</time>
 </trkpt>
 <trkpt lat="47.248501" lon="12.212857">
 <ele>996.29</ele>
 <time>2010-07-08T10:42:33Z</time>
 </trkpt>
 <trkpt lat="47.248505" lon="12.213007">
 <ele>996.28</ele>
 <time>2010-07-08T10:42:34Z</time>
 </trkpt>
 <trkpt lat="47.248524" lon="12.213800">
 <ele>990.60</ele>
 <time>2010-07-08T10:42:39Z</time>
 </trkpt>
 <trkpt lat="47.248528" lon="12.214107">
 <ele>988.85</ele>
 <time>2010-07-08T10:42:41Z</time>
 </trkpt>
 <trkpt lat="47.248478" lon="12.214835">
 <ele>986.75</ele>
 <time>2010-07-08T10:42:47Z</time>
 </trkpt>
 <trkpt lat="47.248375" lon="12.215498">
 <ele>981.72</ele>
 <time>2010-07-08T10:42:52Z</time>
 </trkpt>
 <trkpt lat="47.248222" lon="12.216119">
 <ele>976.70</ele>
 <time>2010-07-08T10:42:56Z</time>
 </trkpt>
 <trkpt lat="47.248123" lon="12.216415">
 <ele>974.92</ele>
 <time>2010-07-08T10:42:58Z</time>
 </trkpt>
 <trkpt lat="47.247997" lon="12.216939">
 <ele>973.57</ele>
 <time>2010-07-08T10:43:02Z</time>
 </trkpt>
 <trkpt lat="47.248093" lon="12.217846">
 <ele>970.39</ele>
 <time>2010-07-08T10:43:09Z</time>
 </trkpt>
 <trkpt lat="47.248222" lon="12.218374">
 <ele>968.48</ele>
 <time>2010-07-08T10:43:13Z</time>
 </trkpt>
 <trkpt lat="47.248322" lon="12.218781">
 <ele>966.84</ele>
 <time>2010-07-08T10:43:16Z</time>
 </trkpt>
 <trkpt lat="47.248352" lon="12.219306">
 <ele>964.55</ele>
 <time>2010-07-08T10:43:20Z</time>
 </trkpt>
 <trkpt lat="47.248329" lon="12.219552">
 <ele>962.55</ele>
 <time>2010-07-08T10:43:22Z</time>
 </trkpt>
 <trkpt lat="47.248295" lon="12.219801">
 <ele>961.49</ele>
 <time>2010-07-08T10:43:24Z</time>
 </trkpt>
 <trkpt lat="47.248154" lon="12.220421">
 <ele>955.04</ele>
 <time>2010-07-08T10:43:29Z</time>
 </trkpt>
 <trkpt lat="47.248077" lon="12.220968">
 <ele>948.83</ele>
 <time>2010-07-08T10:43:33Z</time>
 </trkpt>
 <trkpt lat="47.247986" lon="12.222303">
 <ele>938.50</ele>
 <time>2010-07-08T10:43:41Z</time>
 </trkpt>
 <trkpt lat="47.247932" lon="12.223066">
 <ele>931.80</ele>
 <time>2010-07-08T10:43:46Z</time>
 </trkpt>
 <trkpt lat="47.247890" lon="12.223641">
 <ele>927.85</ele>
 <time>2010-07-08T10:43:50Z</time>
 </trkpt>
 <trkpt lat="47.247856" lon="12.224187">
 <ele>924.40</ele>
 <time>2010-07-08T10:43:55Z</time>
 </trkpt>
 <trkpt lat="47.247787" lon="12.224801">
 <ele>918.81</ele>
 <time>2010-07-08T10:44:00Z</time>
 </trkpt>
 <trkpt lat="47.247646" lon="12.225262">
 <ele>914.62</ele>
 <time>2010-07-08T10:44:05Z</time>
 </trkpt>
 <trkpt lat="47.247494" lon="12.225585">
 <ele>912.33</ele>
 <time>2010-07-08T10:44:09Z</time>
 </trkpt>
 <trkpt lat="47.247417" lon="12.225712">
 <ele>911.53</ele>
 <time>2010-07-08T10:44:11Z</time>
 </trkpt>
 <trkpt lat="47.247372" lon="12.225788">
 <ele>910.78</ele>
 <time>2010-07-08T10:44:13Z</time>
 </trkpt>
 <trkpt lat="47.247269" lon="12.225829">
 <ele>909.77</ele>
 <time>2010-07-08T10:44:16Z</time>
 </trkpt>
 <trkpt lat="47.247253" lon="12.225758">
 <ele>909.09</ele>
 <time>2010-07-08T10:44:17Z</time>
 </trkpt>
 <trkpt lat="47.247166" lon="12.225380">
 <ele>906.15</ele>
 <time>2010-07-08T10:44:22Z</time>
 </trkpt>
 <trkpt lat="47.247055" lon="12.224935">
 <ele>902.01</ele>
 <time>2010-07-08T10:44:27Z</time>
 </trkpt>
 <trkpt lat="47.247005" lon="12.224521">
 <ele>898.60</ele>
 <time>2010-07-08T10:44:32Z</time>
 </trkpt>
 <trkpt lat="47.246983" lon="12.224362">
 <ele>897.78</ele>
 <time>2010-07-08T10:44:35Z</time>
 </trkpt>
 <trkpt lat="47.246704" lon="12.224319">
 <ele>897.48</ele>
 <time>2010-07-08T10:44:40Z</time>
 </trkpt>
 <trkpt lat="47.246677" lon="12.224351">
 <ele>897.26</ele>
 <time>2010-07-08T10:44:42Z</time>
 </trkpt>
 <trkpt lat="47.246651" lon="12.224388">
 <ele>897.47</ele>
 <time>2010-07-08T10:44:45Z</time>
 </trkpt>
 <trkpt lat="47.246597" lon="12.224457">
 <ele>897.61</ele>
 <time>2010-07-08T10:44:49Z</time>
 </trkpt>
 <trkpt lat="47.246632" lon="12.224342">
 <ele>897.32</ele>
 <time>2010-07-08T10:44:53Z</time>
 </trkpt>
 <trkpt lat="47.246681" lon="12.224187">
 <ele>897.09</ele>
 <time>2010-07-08T10:44:57Z</time>
 </trkpt>
 <trkpt lat="47.246597" lon="12.224457">
 <ele>896.78</ele>
 <time>2010-07-08T10:45:01Z</time>
 </trkpt>
 <trkpt lat="47.246750" lon="12.223958">
 <ele>896.13</ele>
 <time>2010-07-08T10:45:06Z</time>
 </trkpt>
 <trkpt lat="47.246910" lon="12.224049">
 <ele>896.29</ele>
 <time>2010-07-08T10:45:11Z</time>
 </trkpt>
 <trkpt lat="47.246891" lon="12.224071">
 <ele>896.22</ele>
 <time>2010-07-08T10:45:12Z</time>
 </trkpt>
 <trkpt lat="47.246696" lon="12.224138">
 <ele>896.09</ele>
 <time>2010-07-08T10:45:19Z</time>
 </trkpt>
 <trkpt lat="47.246620" lon="12.224385">
 <ele>896.88</ele>
 <time>2010-07-08T10:45:25Z</time>
 </trkpt>
 <trkpt lat="47.246414" lon="12.224746">
 <ele>897.98</ele>
 <time>2010-07-08T10:45:33Z</time>
 </trkpt>
 <trkpt lat="47.246258" lon="12.224993">
 <ele>898.77</ele>
 <time>2010-07-08T10:45:40Z</time>
 </trkpt>
 <trkpt lat="47.246189" lon="12.225100">
 <ele>899.99</ele>
 <time>2010-07-08T10:45:45Z</time>
 </trkpt>
 <trkpt lat="47.246723" lon="12.224928">
 <ele>900.48</ele>
 <time>2010-07-08T10:45:50Z</time>
 </trkpt>
 <trkpt lat="47.246792" lon="12.225307">
 <ele>899.84</ele>
 <time>2010-07-08T10:45:56Z</time>
 </trkpt>
 <trkpt lat="47.247086" lon="12.225110">
 <ele>899.63</ele>
 <time>2010-07-08T10:45:58Z</time>
 </trkpt>
 <trkpt lat="47.247143" lon="12.225300">
 <ele>900.05</ele>
 <time>2010-07-08T10:46:03Z</time>
 </trkpt>
 <trkpt lat="47.246792" lon="12.225659">
 <ele>901.58</ele>
 <time>2010-07-08T10:46:09Z</time>
 </trkpt>
 <trkpt lat="47.246811" lon="12.226030">
 <ele>902.84</ele>
 <time>2010-07-08T10:46:18Z</time>
 </trkpt>
 <trkpt lat="47.246861" lon="12.226323">
 <ele>903.71</ele>
 <time>2010-07-08T10:46:26Z</time>
 </trkpt>
 <trkpt lat="47.246906" lon="12.226651">
 <ele>904.59</ele>
 <time>2010-07-08T10:46:34Z</time>
 </trkpt>
 <trkpt lat="47.246944" lon="12.227018">
 <ele>906.18</ele>
 <time>2010-07-08T10:46:44Z</time>
 </trkpt>
 <trkpt lat="47.246964" lon="12.227224">
 <ele>907.42</ele>
 <time>2010-07-08T10:46:50Z</time>
 </trkpt>
 <trkpt lat="47.246990" lon="12.227488">
 <ele>908.60</ele>
 <time>2010-07-08T10:46:57Z</time>
 </trkpt>
 <trkpt lat="47.246998" lon="12.227546">
 <ele>909.08</ele>
 <time>2010-07-08T10:46:59Z</time>
 </trkpt>
 <trkpt lat="47.246864" lon="12.227601">
 <ele>909.51</ele>
 <time>2010-07-08T10:47:04Z</time>
 </trkpt>
 <trkpt lat="47.246674" lon="12.227587">
 <ele>908.71</ele>
 <time>2010-07-08T10:47:10Z</time>
 </trkpt>
 <trkpt lat="47.246353" lon="12.227563">
 <ele>906.00</ele>
 <time>2010-07-08T10:47:15Z</time>
 </trkpt>
 <trkpt lat="47.245953" lon="12.227534">
 <ele>902.72</ele>
 <time>2010-07-08T10:47:20Z</time>
 </trkpt>
 <trkpt lat="47.245392" lon="12.227479">
 <ele>898.34</ele>
 <time>2010-07-08T10:47:27Z</time>
 </trkpt>
 <trkpt lat="47.244980" lon="12.227436">
 <ele>896.27</ele>
 <time>2010-07-08T10:47:32Z</time>
 </trkpt>
 <trkpt lat="47.244835" lon="12.227421">
 <ele>895.95</ele>
 <time>2010-07-08T10:47:34Z</time>
 </trkpt>
 <trkpt lat="47.244621" lon="12.227399">
 <ele>895.23</ele>
 <time>2010-07-08T10:47:38Z</time>
 </trkpt>
 <trkpt lat="47.244881" lon="12.227955">
 <ele>894.20</ele>
 <time>2010-07-08T10:47:41Z</time>
 </trkpt>
 <trkpt lat="47.244820" lon="12.228572">
 <ele>893.56</ele>
 <time>2010-07-08T10:47:51Z</time>
 </trkpt>
 <trkpt lat="47.244774" lon="12.229057">
 <ele>894.34</ele>
 <time>2010-07-08T10:47:58Z</time>
 </trkpt>
 <trkpt lat="47.244820" lon="12.229535">
 <ele>895.00</ele>
 <time>2010-07-08T10:48:06Z</time>
 </trkpt>
 <trkpt lat="47.244911" lon="12.230156">
 <ele>895.99</ele>
 <time>2010-07-08T10:48:16Z</time>
 </trkpt>
 <trkpt lat="47.244923" lon="12.230210">
 <ele>896.04</ele>
 <time>2010-07-08T10:48:17Z</time>
 </trkpt>
 <trkpt lat="47.245033" lon="12.230712">
 <ele>896.16</ele>
 <time>2010-07-08T10:48:25Z</time>
 </trkpt>
 <trkpt lat="47.245098" lon="12.230997">
 <ele>895.58</ele>
 <time>2010-07-08T10:48:29Z</time>
 </trkpt>
 <trkpt lat="47.245270" lon="12.231583">
 <ele>895.27</ele>
 <time>2010-07-08T10:48:37Z</time>
 </trkpt>
 <trkpt lat="47.245502" lon="12.232339">
 <ele>893.70</ele>
 <time>2010-07-08T10:48:46Z</time>
 </trkpt>
 <trkpt lat="47.245640" lon="12.232988">
 <ele>891.90</ele>
 <time>2010-07-08T10:48:52Z</time>
 </trkpt>
 <trkpt lat="47.245663" lon="12.233644">
 <ele>888.96</ele>
 <time>2010-07-08T10:48:57Z</time>
 </trkpt>
 <trkpt lat="47.245567" lon="12.234337">
 <ele>886.20</ele>
 <time>2010-07-08T10:49:02Z</time>
 </trkpt>
 <trkpt lat="47.245373" lon="12.235321">
 <ele>882.29</ele>
 <time>2010-07-08T10:49:09Z</time>
 </trkpt>
 <trkpt lat="47.245129" lon="12.236561">
 <ele>879.82</ele>
 <time>2010-07-08T10:49:18Z</time>
 </trkpt>
 <trkpt lat="47.244961" lon="12.237548">
 <ele>879.85</ele>
 <time>2010-07-08T10:49:26Z</time>
 </trkpt>
 <trkpt lat="47.244904" lon="12.238484">
 <ele>879.32</ele>
 <time>2010-07-08T10:49:34Z</time>
 </trkpt>
 <trkpt lat="47.244987" lon="12.239504">
 <ele>878.16</ele>
 <time>2010-07-08T10:49:43Z</time>
 </trkpt>
 <trkpt lat="47.245087" lon="12.240550">
 <ele>876.96</ele>
 <time>2010-07-08T10:49:52Z</time>
 </trkpt>
 <trkpt lat="47.245110" lon="12.241604">
 <ele>876.65</ele>
 <time>2010-07-08T10:50:01Z</time>
 </trkpt>
 <trkpt lat="47.245129" lon="12.242719">
 <ele>875.65</ele>
 <time>2010-07-08T10:50:11Z</time>
 </trkpt>
 <trkpt lat="47.245163" lon="12.243613">
 <ele>875.43</ele>
 <time>2010-07-08T10:50:20Z</time>
 </trkpt>
 <trkpt lat="47.245258" lon="12.244624">
 <ele>874.10</ele>
 <time>2010-07-08T10:50:30Z</time>
 </trkpt>
 <trkpt lat="47.245213" lon="12.245169">
 <ele>873.48</ele>
 <time>2010-07-08T10:50:35Z</time>
 </trkpt>
 <trkpt lat="47.245094" lon="12.245980">
 <ele>872.08</ele>
 <time>2010-07-08T10:50:43Z</time>
 </trkpt>
 <trkpt lat="47.245087" lon="12.246340">
 <ele>871.93</ele>
 <time>2010-07-08T10:50:47Z</time>
 </trkpt>
 <trkpt lat="47.245106" lon="12.246637">
 <ele>871.93</ele>
 <time>2010-07-08T10:50:50Z</time>
 </trkpt>
 <trkpt lat="47.245274" lon="12.247197">
 <ele>872.30</ele>
 <time>2010-07-08T10:50:57Z</time>
 </trkpt>
 <trkpt lat="47.245457" lon="12.247660">
 <ele>872.89</ele>
 <time>2010-07-08T10:51:03Z</time>
 </trkpt>
 <trkpt lat="47.245735" lon="12.248470">
 <ele>872.07</ele>
 <time>2010-07-08T10:51:13Z</time>
 </trkpt>
 <trkpt lat="47.245941" lon="12.249011">
 <ele>870.20</ele>
 <time>2010-07-08T10:51:19Z</time>
 </trkpt>
 <trkpt lat="47.246250" lon="12.249475">
 <ele>868.60</ele>
 <time>2010-07-08T10:51:25Z</time>
 </trkpt>
 <trkpt lat="47.246597" lon="12.249882">
 <ele>867.83</ele>
 <time>2010-07-08T10:51:31Z</time>
 </trkpt>
 <trkpt lat="47.246750" lon="12.250102">
 <ele>867.66</ele>
 <time>2010-07-08T10:51:34Z</time>
 </trkpt>
 <trkpt lat="47.246986" lon="12.250740">
 <ele>867.66</ele>
 <time>2010-07-08T10:51:41Z</time>
 </trkpt>
 <trkpt lat="47.247150" lon="12.251414">
 <ele>867.59</ele>
 <time>2010-07-08T10:51:48Z</time>
 </trkpt>
 <trkpt lat="47.247303" lon="12.252188">
 <ele>867.43</ele>
 <time>2010-07-08T10:51:56Z</time>
 </trkpt>
 <trkpt lat="47.247456" lon="12.252974">
 <ele>868.66</ele>
 <time>2010-07-08T10:52:05Z</time>
 </trkpt>
 <trkpt lat="47.247616" lon="12.253606">
 <ele>869.37</ele>
 <time>2010-07-08T10:52:13Z</time>
 </trkpt>
 <trkpt lat="47.247795" lon="12.254356">
 <ele>870.33</ele>
 <time>2010-07-08T10:52:23Z</time>
 </trkpt>
 <trkpt lat="47.247879" lon="12.254923">
 <ele>871.03</ele>
 <time>2010-07-08T10:52:30Z</time>
 </trkpt>
 <trkpt lat="47.247849" lon="12.255450">
 <ele>871.09</ele>
 <time>2010-07-08T10:52:37Z</time>
 </trkpt>
 <trkpt lat="47.247719" lon="12.256134">
 <ele>871.23</ele>
 <time>2010-07-08T10:52:46Z</time>
 </trkpt>
 <trkpt lat="47.247532" lon="12.256809">
 <ele>871.97</ele>
 <time>2010-07-08T10:52:55Z</time>
 </trkpt>
 <trkpt lat="47.247227" lon="12.257874">
 <ele>871.29</ele>
 <time>2010-07-08T10:53:09Z</time>
 </trkpt>
 <trkpt lat="47.247032" lon="12.258554">
 <ele>872.35</ele>
 <time>2010-07-08T10:53:18Z</time>
 </trkpt>
 <trkpt lat="47.246857" lon="12.259170">
 <ele>872.90</ele>
 <time>2010-07-08T10:53:26Z</time>
 </trkpt>
 <trkpt lat="47.246758" lon="12.259504">
 <ele>873.17</ele>
 <time>2010-07-08T10:53:31Z</time>
 </trkpt>
 <trkpt lat="47.246559" lon="12.260201">
 <ele>874.47</ele>
 <time>2010-07-08T10:53:42Z</time>
 </trkpt>
 <trkpt lat="47.246418" lon="12.260805">
 <ele>875.49</ele>
 <time>2010-07-08T10:53:52Z</time>
 </trkpt>
 <trkpt lat="47.246368" lon="12.261037">
 <ele>876.00</ele>
 <time>2010-07-08T10:53:56Z</time>
 </trkpt>
 <trkpt lat="47.246292" lon="12.261503">
 <ele>876.57</ele>
 <time>2010-07-08T10:54:04Z</time>
 </trkpt>
 <trkpt lat="47.246231" lon="12.261896">
 <ele>877.46</ele>
 <time>2010-07-08T10:54:11Z</time>
 </trkpt>
 <trkpt lat="47.246197" lon="12.262356">
 <ele>878.18</ele>
 <time>2010-07-08T10:54:19Z</time>
 </trkpt>
 <trkpt lat="47.246189" lon="12.262695">
 <ele>878.83</ele>
 <time>2010-07-08T10:54:25Z</time>
 </trkpt>
 <trkpt lat="47.246189" lon="12.263155">
 <ele>879.43</ele>
 <time>2010-07-08T10:54:33Z</time>
 </trkpt>
 <trkpt lat="47.246235" lon="12.263686">
 <ele>879.77</ele>
 <time>2010-07-08T10:54:42Z</time>
 </trkpt>
 <trkpt lat="47.246319" lon="12.264221">
 <ele>880.26</ele>
 <time>2010-07-08T10:54:51Z</time>
 </trkpt>
 <trkpt lat="47.246342" lon="12.264342">
 <ele>880.13</ele>
 <time>2010-07-08T10:54:53Z</time>
 </trkpt>
 <trkpt lat="47.246445" lon="12.264829">
 <ele>880.36</ele>
 <time>2010-07-08T10:55:01Z</time>
 </trkpt>
 <trkpt lat="47.246471" lon="12.264957">
 <ele>880.27</ele>
 <time>2010-07-08T10:55:03Z</time>
 </trkpt>
 <trkpt lat="47.246544" lon="12.265269">
 <ele>880.07</ele>
 <time>2010-07-08T10:55:08Z</time>
 </trkpt>
 <trkpt lat="47.246609" lon="12.265509">
 <ele>880.69</ele>
 <time>2010-07-08T10:55:14Z</time>
 </trkpt>
 <trkpt lat="47.246655" lon="12.265644">
 <ele>880.64</ele>
 <time>2010-07-08T10:55:19Z</time>
 </trkpt>
 <trkpt lat="47.246727" lon="12.265849">
 <ele>880.53</ele>
 <time>2010-07-08T10:55:25Z</time>
 </trkpt>
 <trkpt lat="47.246727" lon="12.265849">
 <ele>880.35</ele>
 <time>2010-07-08T10:55:31Z</time>
 </trkpt>
 <trkpt lat="47.246964" lon="12.266257">
 <ele>880.78</ele>
 <time>2010-07-08T10:55:36Z</time>
 </trkpt>
 <trkpt lat="47.246933" lon="12.266385">
 <ele>880.57</ele>
 <time>2010-07-08T10:55:38Z</time>
 </trkpt>
 <trkpt lat="47.246967" lon="12.266472">
 <ele>880.54</ele>
 <time>2010-07-08T10:55:40Z</time>
 </trkpt>
 <trkpt lat="47.247059" lon="12.266714">
 <ele>880.17</ele>
 <time>2010-07-08T10:55:44Z</time>
 </trkpt>
 <trkpt lat="47.247364" lon="12.267507">
 <ele>879.00</ele>
 <time>2010-07-08T10:55:55Z</time>
 </trkpt>
 <trkpt lat="47.247627" lon="12.268291">
 <ele>878.54</ele>
 <time>2010-07-08T10:56:05Z</time>
 </trkpt>
 <trkpt lat="47.247772" lon="12.268769">
 <ele>878.80</ele>
 <time>2010-07-08T10:56:11Z</time>
 </trkpt>
 <trkpt lat="47.247913" lon="12.269280">
 <ele>878.50</ele>
 <time>2010-07-08T10:56:17Z</time>
 </trkpt>
 <trkpt lat="47.247932" lon="12.269370">
 <ele>878.33</ele>
 <time>2010-07-08T10:56:18Z</time>
 </trkpt>
 <trkpt lat="47.248066" lon="12.269928">
 <ele>877.28</ele>
 <time>2010-07-08T10:56:24Z</time>
 </trkpt>
 <trkpt lat="47.248203" lon="12.270534">
 <ele>876.30</ele>
 <time>2010-07-08T10:56:30Z</time>
 </trkpt>
 <trkpt lat="47.248318" lon="12.271084">
 <ele>874.80</ele>
 <time>2010-07-08T10:56:35Z</time>
 </trkpt>
 <trkpt lat="47.248386" lon="12.271435">
 <ele>874.13</ele>
 <time>2010-07-08T10:56:38Z</time>
 </trkpt>
 <trkpt lat="47.248585" lon="12.272352">
 <ele>871.88</ele>
 <time>2010-07-08T10:56:46Z</time>
 </trkpt>
 <trkpt lat="47.248756" lon="12.273120">
 <ele>870.24</ele>
 <time>2010-07-08T10:56:52Z</time>
 </trkpt>
 <trkpt lat="47.249062" lon="12.274475">
 <ele>865.61</ele>
 <time>2010-07-08T10:57:02Z</time>
 </trkpt>
 <trkpt lat="47.249352" lon="12.275658">
 <ele>863.42</ele>
 <time>2010-07-08T10:57:11Z</time>
 </trkpt>
 <trkpt lat="47.249615" lon="12.276303">
 <ele>862.65</ele>
 <time>2010-07-08T10:57:17Z</time>
 </trkpt>
 <trkpt lat="47.249931" lon="12.276878">
 <ele>862.33</ele>
 <time>2010-07-08T10:57:23Z</time>
 </trkpt>
 <trkpt lat="47.250355" lon="12.277395">
 <ele>861.88</ele>
 <time>2010-07-08T10:57:30Z</time>
 </trkpt>
 <trkpt lat="47.250950" lon="12.277926">
 <ele>862.27</ele>
 <time>2010-07-08T10:57:39Z</time>
 </trkpt>
 <trkpt lat="47.251476" lon="12.278402">
 <ele>861.81</ele>
 <time>2010-07-08T10:57:47Z</time>
 </trkpt>
 <trkpt lat="47.252136" lon="12.278992">
 <ele>862.34</ele>
 <time>2010-07-08T10:57:57Z</time>
 </trkpt>
 <trkpt lat="47.252586" lon="12.279423">
 <ele>861.67</ele>
 <time>2010-07-08T10:58:04Z</time>
 </trkpt>
 <trkpt lat="47.252522" lon="12.279744">
 <ele>857.03</ele>
 <time>2010-07-08T10:58:53Z</time>
 </trkpt>
 <trkpt lat="47.252369" lon="12.279917">
 <ele>856.91</ele>
 <time>2010-07-08T10:58:54Z</time>
 </trkpt>
 <trkpt lat="47.252250" lon="12.280138">
 <ele>856.92</ele>
 <time>2010-07-08T10:58:59Z</time>
 </trkpt>
 <trkpt lat="47.252071" lon="12.280357">
 <ele>856.93</ele>
 <time>2010-07-08T10:59:04Z</time>
 </trkpt>
 <trkpt lat="47.252052" lon="12.280393">
 <ele>856.81</ele>
 <time>2010-07-08T10:59:05Z</time>
 </trkpt>
 <trkpt lat="47.251987" lon="12.280535">
 <ele>856.06</ele>
 <time>2010-07-08T10:59:08Z</time>
 </trkpt>
 <trkpt lat="47.251877" lon="12.280827">
 <ele>854.88</ele>
 <time>2010-07-08T10:59:14Z</time>
 </trkpt>
 <trkpt lat="47.251877" lon="12.280827">
 <ele>853.80</ele>
 <time>2010-07-08T10:59:18Z</time>
 </trkpt>
 <trkpt lat="47.251877" lon="12.280827">
 <ele>853.28</ele>
 <time>2010-07-08T10:59:22Z</time>
 </trkpt>
 <trkpt lat="47.251877" lon="12.281049">
 <ele>852.74</ele>
 <time>2010-07-08T10:59:25Z</time>
 </trkpt>
 <trkpt lat="47.251877" lon="12.281833">
 <ele>852.57</ele>
 <time>2010-07-08T10:59:34Z</time>
 </trkpt>
 <trkpt lat="47.251778" lon="12.282821">
 <ele>852.44</ele>
 <time>2010-07-08T10:59:44Z</time>
 </trkpt>
 <trkpt lat="47.251694" lon="12.283162">
 <ele>851.86</ele>
 <time>2010-07-08T10:59:47Z</time>
 </trkpt>
 <trkpt lat="47.251320" lon="12.283895">
 <ele>852.18</ele>
 <time>2010-07-08T10:59:53Z</time>
 </trkpt>
 <trkpt lat="47.251320" lon="12.283895">
 <ele>852.71</ele>
 <time>2010-07-08T10:59:57Z</time>
 </trkpt>
 <trkpt lat="47.251320" lon="12.283895">
 <ele>854.15</ele>
 <time>2010-07-08T11:00:02Z</time>
 </trkpt>
 <trkpt lat="47.251347" lon="12.283837">
 <ele>854.82</ele>
 <time>2010-07-08T11:00:06Z</time>
 </trkpt>
 <trkpt lat="47.251320" lon="12.283894">
 <ele>854.82</ele>
 <time>2010-07-08T11:00:07Z</time>
 </trkpt>
 <trkpt lat="47.251320" lon="12.283895">
 <ele>853.86</ele>
 <time>2010-07-08T11:00:15Z</time>
 </trkpt>
 <trkpt lat="47.250839" lon="12.285070">
 <ele>853.39</ele>
 <time>2010-07-08T11:00:23Z</time>
 </trkpt>
 <trkpt lat="47.250465" lon="12.285415">
 <ele>854.23</ele>
 <time>2010-07-08T11:00:31Z</time>
 </trkpt>
 <trkpt lat="47.250141" lon="12.285714">
 <ele>854.83</ele>
 <time>2010-07-08T11:00:38Z</time>
 </trkpt>
 <trkpt lat="47.249889" lon="12.285948">
 <ele>856.85</ele>
 <time>2010-07-08T11:00:45Z</time>
 </trkpt>
 <trkpt lat="47.249760" lon="12.286212">
 <ele>858.40</ele>
 <time>2010-07-08T11:00:51Z</time>
 </trkpt>
 <trkpt lat="47.249577" lon="12.286596">
 <ele>860.18</ele>
 <time>2010-07-08T11:01:00Z</time>
 </trkpt>
 <trkpt lat="47.249454" lon="12.286911">
 <ele>862.16</ele>
 <time>2010-07-08T11:01:07Z</time>
 </trkpt>
 <trkpt lat="47.249393" lon="12.287263">
 <ele>863.18</ele>
 <time>2010-07-08T11:01:14Z</time>
 </trkpt>
 <trkpt lat="47.249386" lon="12.287690">
 <ele>863.81</ele>
 <time>2010-07-08T11:01:22Z</time>
 </trkpt>
 <trkpt lat="47.249397" lon="12.288177">
 <ele>864.39</ele>
 <time>2010-07-08T11:01:31Z</time>
 </trkpt>
 <trkpt lat="47.249413" lon="12.288365">
 <ele>864.08</ele>
 <time>2010-07-08T11:01:34Z</time>
 </trkpt>
 <trkpt lat="47.249447" lon="12.288826">
 <ele>864.52</ele>
 <time>2010-07-08T11:01:41Z</time>
 </trkpt>
 <trkpt lat="47.249580" lon="12.289194">
 <ele>862.85</ele>
 <time>2010-07-08T11:01:47Z</time>
 </trkpt>
 <trkpt lat="47.249718" lon="12.289532">
 <ele>861.02</ele>
 <time>2010-07-08T11:01:51Z</time>
 </trkpt>
 <trkpt lat="47.249973" lon="12.290161">
 <ele>856.85</ele>
 <time>2010-07-08T11:01:57Z</time>
 </trkpt>
 <trkpt lat="47.250095" lon="12.290712">
 <ele>856.11</ele>
 <time>2010-07-08T11:02:02Z</time>
 </trkpt>
 <trkpt lat="47.250088" lon="12.291141">
 <ele>856.17</ele>
 <time>2010-07-08T11:02:06Z</time>
 </trkpt>
 <trkpt lat="47.249866" lon="12.291759">
 <ele>856.78</ele>
 <time>2010-07-08T11:02:13Z</time>
 </trkpt>
 <trkpt lat="47.249626" lon="12.292373">
 <ele>855.80</ele>
 <time>2010-07-08T11:02:20Z</time>
 </trkpt>
 <trkpt lat="47.249336" lon="12.293182">
 <ele>852.85</ele>
 <time>2010-07-08T11:02:28Z</time>
 </trkpt>
 <trkpt lat="47.249249" lon="12.293641">
 <ele>851.37</ele>
 <time>2010-07-08T11:02:32Z</time>
 </trkpt>
 <trkpt lat="47.249268" lon="12.294013">
 <ele>850.16</ele>
 <time>2010-07-08T11:02:35Z</time>
 </trkpt>
 <trkpt lat="47.249363" lon="12.294500">
 <ele>848.88</ele>
 <time>2010-07-08T11:02:39Z</time>
 </trkpt>
 <trkpt lat="47.249401" lon="12.294619">
 <ele>848.41</ele>
 <time>2010-07-08T11:02:40Z</time>
 </trkpt>
 <trkpt lat="47.249638" lon="12.294997">
 <ele>846.48</ele>
 <time>2010-07-08T11:02:44Z</time>
 </trkpt>
 <trkpt lat="47.250023" lon="12.295586">
 <ele>846.11</ele>
 <time>2010-07-08T11:02:51Z</time>
 </trkpt>
 <trkpt lat="47.250076" lon="12.295664">
 <ele>846.07</ele>
 <time>2010-07-08T11:02:52Z</time>
 </trkpt>
 <trkpt lat="47.250458" lon="12.295961">
 <ele>846.52</ele>
 <time>2010-07-08T11:02:58Z</time>
 </trkpt>
 <trkpt lat="47.250919" lon="12.296057">
 <ele>847.15</ele>
 <time>2010-07-08T11:03:05Z</time>
 </trkpt>
 <trkpt lat="47.251354" lon="12.296186">
 <ele>847.78</ele>
 <time>2010-07-08T11:03:12Z</time>
 </trkpt>
 <trkpt lat="47.251820" lon="12.296350">
 <ele>848.13</ele>
 <time>2010-07-08T11:03:20Z</time>
 </trkpt>
 <trkpt lat="47.251877" lon="12.296374">
 <ele>848.20</ele>
 <time>2010-07-08T11:03:21Z</time>
 </trkpt>
 <trkpt lat="47.252052" lon="12.296530">
 <ele>848.65</ele>
 <time>2010-07-08T11:03:25Z</time>
 </trkpt>
 <trkpt lat="47.252022" lon="12.296715">
 <ele>848.88</ele>
 <time>2010-07-08T11:03:28Z</time>
 </trkpt>
 <trkpt lat="47.251862" lon="12.297283">
 <ele>848.27</ele>
 <time>2010-07-08T11:03:36Z</time>
 </trkpt>
 <trkpt lat="47.251713" lon="12.297930">
 <ele>847.52</ele>
 <time>2010-07-08T11:03:44Z</time>
 </trkpt>
 <trkpt lat="47.251461" lon="12.298550">
 <ele>847.66</ele>
 <time>2010-07-08T11:03:52Z</time>
 </trkpt>
 <trkpt lat="47.251312" lon="12.299160">
 <ele>847.31</ele>
 <time>2010-07-08T11:03:59Z</time>
 </trkpt>
 <trkpt lat="47.251217" lon="12.299959">
 <ele>847.23</ele>
 <time>2010-07-08T11:04:08Z</time>
 </trkpt>
 <trkpt lat="47.251019" lon="12.300493">
 <ele>847.77</ele>
 <time>2010-07-08T11:04:15Z</time>
 </trkpt>
 <trkpt lat="47.250767" lon="12.300992">
 <ele>847.21</ele>
 <time>2010-07-08T11:04:22Z</time>
 </trkpt>
 <trkpt lat="47.250450" lon="12.301655">
 <ele>846.75</ele>
 <time>2010-07-08T11:04:31Z</time>
 </trkpt>
 <trkpt lat="47.250385" lon="12.301808">
 <ele>846.59</ele>
 <time>2010-07-08T11:04:33Z</time>
 </trkpt>
 <trkpt lat="47.250206" lon="12.302278">
 <ele>846.76</ele>
 <time>2010-07-08T11:04:39Z</time>
 </trkpt>
 <trkpt lat="47.250149" lon="12.302708">
 <ele>847.05</ele>
 <time>2010-07-08T11:04:44Z</time>
 </trkpt>
 <trkpt lat="47.250168" lon="12.303042">
 <ele>846.92</ele>
 <time>2010-07-08T11:04:48Z</time>
 </trkpt>
 <trkpt lat="47.250259" lon="12.303250">
 <ele>847.26</ele>
 <time>2010-07-08T11:04:51Z</time>
 </trkpt>
 <trkpt lat="47.250645" lon="12.303474">
 <ele>847.59</ele>
 <time>2010-07-08T11:04:58Z</time>
 </trkpt>
 <trkpt lat="47.251007" lon="12.303662">
 <ele>848.54</ele>
 <time>2010-07-08T11:05:05Z</time>
 </trkpt>
 <trkpt lat="47.251171" lon="12.303790">
 <ele>849.59</ele>
 <time>2010-07-08T11:05:09Z</time>
 </trkpt>
 <trkpt lat="47.251232" lon="12.303973">
 <ele>850.82</ele>
 <time>2010-07-08T11:05:13Z</time>
 </trkpt>
 <trkpt lat="47.251190" lon="12.304079">
 <ele>851.24</ele>
 <time>2010-07-08T11:05:15Z</time>
 </trkpt>
 <trkpt lat="47.251045" lon="12.304346">
 <ele>853.02</ele>
 <time>2010-07-08T11:05:23Z</time>
 </trkpt>
 <trkpt lat="47.250935" lon="12.304559">
 <ele>854.70</ele>
 <time>2010-07-08T11:05:29Z</time>
 </trkpt>
 <trkpt lat="47.250916" lon="12.304594">
 <ele>854.97</ele>
 <time>2010-07-08T11:05:30Z</time>
 </trkpt>
 <trkpt lat="47.250927" lon="12.304809">
 <ele>856.21</ele>
 <time>2010-07-08T11:05:36Z</time>
 </trkpt>
 <trkpt lat="47.250946" lon="12.305078">
 <ele>857.81</ele>
 <time>2010-07-08T11:05:43Z</time>
 </trkpt>
 <trkpt lat="47.251007" lon="12.305373">
 <ele>859.36</ele>
 <time>2010-07-08T11:05:51Z</time>
 </trkpt>
 <trkpt lat="47.251087" lon="12.305650">
 <ele>860.22</ele>
 <time>2010-07-08T11:05:58Z</time>
 </trkpt>
 <trkpt lat="47.251186" lon="12.306002">
 <ele>860.54</ele>
 <time>2010-07-08T11:06:06Z</time>
 </trkpt>
 <trkpt lat="47.251350" lon="12.306466">
 <ele>861.22</ele>
 <time>2010-07-08T11:06:16Z</time>
 </trkpt>
 <trkpt lat="47.251495" lon="12.306824">
 <ele>860.54</ele>
 <time>2010-07-08T11:06:23Z</time>
 </trkpt>
 <trkpt lat="47.251633" lon="12.307165">
 <ele>859.21</ele>
 <time>2010-07-08T11:06:28Z</time>
 </trkpt>
 <trkpt lat="47.251835" lon="12.307658">
 <ele>856.41</ele>
 <time>2010-07-08T11:06:34Z</time>
 </trkpt>
 <trkpt lat="47.252083" lon="12.308502">
 <ele>853.53</ele>
 <time>2010-07-08T11:06:42Z</time>
 </trkpt>
 <trkpt lat="47.252205" lon="12.309094">
 <ele>850.45</ele>
 <time>2010-07-08T11:06:47Z</time>
 </trkpt>
 <trkpt lat="47.252258" lon="12.309359">
 <ele>849.53</ele>
 <time>2010-07-08T11:06:49Z</time>
 </trkpt>
 <trkpt lat="47.252380" lon="12.310038">
 <ele>846.34</ele>
 <time>2010-07-08T11:06:54Z</time>
 </trkpt>
 <trkpt lat="47.252426" lon="12.310738">
 <ele>843.90</ele>
 <time>2010-07-08T11:06:59Z</time>
 </trkpt>
 <trkpt lat="47.252365" lon="12.311536">
 <ele>842.30</ele>
 <time>2010-07-08T11:07:05Z</time>
 </trkpt>
 <trkpt lat="47.252357" lon="12.312260">
 <ele>842.53</ele>
 <time>2010-07-08T11:07:11Z</time>
 </trkpt>
 <trkpt lat="47.252369" lon="12.312975">
 <ele>843.18</ele>
 <time>2010-07-08T11:07:18Z</time>
 </trkpt>
 <trkpt lat="47.252480" lon="12.313565">
 <ele>844.15</ele>
 <time>2010-07-08T11:07:25Z</time>
 </trkpt>
 <trkpt lat="47.252712" lon="12.314317">
 <ele>845.33</ele>
 <time>2010-07-08T11:07:35Z</time>
 </trkpt>
 <trkpt lat="47.252735" lon="12.314398">
 <ele>845.48</ele>
 <time>2010-07-08T11:07:36Z</time>
 </trkpt>
 <trkpt lat="47.252804" lon="12.314984">
 <ele>847.23</ele>
 <time>2010-07-08T11:07:44Z</time>
 </trkpt>
 <trkpt lat="47.252850" lon="12.315376">
 <ele>849.30</ele>
 <time>2010-07-08T11:07:51Z</time>
 </trkpt>
 <trkpt lat="47.252872" lon="12.315580">
 <ele>849.98</ele>
 <time>2010-07-08T11:07:55Z</time>
 </trkpt>
 <trkpt lat="47.252914" lon="12.315942">
 <ele>848.11</ele>
 <time>2010-07-08T11:08:00Z</time>
 </trkpt>
 <trkpt lat="47.253002" lon="12.316361">
 <ele>846.39</ele>
 <time>2010-07-08T11:08:05Z</time>
 </trkpt>
 <trkpt lat="47.253136" lon="12.316493">
 <ele>845.75</ele>
 <time>2010-07-08T11:08:08Z</time>
 </trkpt>
 <trkpt lat="47.253666" lon="12.316638">
 <ele>843.98</ele>
 <time>2010-07-08T11:08:17Z</time>
 </trkpt>
 <trkpt lat="47.253963" lon="12.316674">
 <ele>843.35</ele>
 <time>2010-07-08T11:08:22Z</time>
 </trkpt>
 <trkpt lat="47.254425" lon="12.316594">
 <ele>842.74</ele>
 <time>2010-07-08T11:08:29Z</time>
 </trkpt>
 <trkpt lat="47.255020" lon="12.316448">
 <ele>841.42</ele>
 <time>2010-07-08T11:08:38Z</time>
 </trkpt>
 <trkpt lat="47.255344" lon="12.316404">
 <ele>841.25</ele>
 <time>2010-07-08T11:08:43Z</time>
 </trkpt>
 <trkpt lat="47.255543" lon="12.316425">
 <ele>841.15</ele>
 <time>2010-07-08T11:08:46Z</time>
 </trkpt>
 <trkpt lat="47.255936" lon="12.316698">
 <ele>841.45</ele>
 <time>2010-07-08T11:08:53Z</time>
 </trkpt>
 <trkpt lat="47.256210" lon="12.317191">
 <ele>841.32</ele>
 <time>2010-07-08T11:09:00Z</time>
 </trkpt>
 <trkpt lat="47.256306" lon="12.317400">
 <ele>841.38</ele>
 <time>2010-07-08T11:09:03Z</time>
 </trkpt>
 <trkpt lat="47.256432" lon="12.317592">
 <ele>841.91</ele>
 <time>2010-07-08T11:09:07Z</time>
 </trkpt>
 <trkpt lat="47.256454" lon="12.317623">
 <ele>841.87</ele>
 <time>2010-07-08T11:09:08Z</time>
 </trkpt>
 <trkpt lat="47.256171" lon="12.318137">
 <ele>841.06</ele>
 <time>2010-07-08T11:09:14Z</time>
 </trkpt>
 <trkpt lat="47.256175" lon="12.318765">
 <ele>840.75</ele>
 <time>2010-07-08T11:09:22Z</time>
 </trkpt>
 <trkpt lat="47.256270" lon="12.319470">
 <ele>840.29</ele>
 <time>2010-07-08T11:09:28Z</time>
 </trkpt>
 <trkpt lat="47.256280" lon="12.320379">
 <ele>839.91</ele>
 <time>2010-07-08T11:09:38Z</time>
 </trkpt>
 <trkpt lat="47.256297" lon="12.321567">
 <ele>840.08</ele>
 <time>2010-07-08T11:09:49Z</time>
 </trkpt>
 <trkpt lat="47.256333" lon="12.322623">
 <ele>839.68</ele>
 <time>2010-07-08T11:10:00Z</time>
 </trkpt>
 <trkpt lat="47.256360" lon="12.323316">
 <ele>839.46</ele>
 <time>2010-07-08T11:10:08Z</time>
 </trkpt>
 <trkpt lat="47.256411" lon="12.324040">
 <ele>839.32</ele>
 <time>2010-07-08T11:10:14Z</time>
 </trkpt>
 <trkpt lat="47.256559" lon="12.324594">
 <ele>839.09</ele>
 <time>2010-07-08T11:10:21Z</time>
 </trkpt>
 <trkpt lat="47.257047" lon="12.325264">
 <ele>838.97</ele>
 <time>2010-07-08T11:10:29Z</time>
 </trkpt>
 <trkpt lat="47.257364" lon="12.325859">
 <ele>838.33</ele>
 <time>2010-07-08T11:10:39Z</time>
 </trkpt>
 <trkpt lat="47.258071" lon="12.326732">
 <ele>837.90</ele>
 <time>2010-07-08T11:10:51Z</time>
 </trkpt>
 <trkpt lat="47.258446" lon="12.327374">
 <ele>837.58</ele>
 <time>2010-07-08T11:11:01Z</time>
 </trkpt>
 <trkpt lat="47.258789" lon="12.328072">
 <ele>837.21</ele>
 <time>2010-07-08T11:11:11Z</time>
 </trkpt>
 <trkpt lat="47.259076" lon="12.328818">
 <ele>837.26</ele>
 <time>2010-07-08T11:11:22Z</time>
 </trkpt>
 <trkpt lat="47.259405" lon="12.329379">
 <ele>837.21</ele>
 <time>2010-07-08T11:11:29Z</time>
 </trkpt>
 <trkpt lat="47.259897" lon="12.330230">
 <ele>836.57</ele>
 <time>2010-07-08T11:11:38Z</time>
 </trkpt>
 <trkpt lat="47.260459" lon="12.330714">
 <ele>836.14</ele>
 <time>2010-07-08T11:11:48Z</time>
 </trkpt>
 <trkpt lat="47.260922" lon="12.331253">
 <ele>835.28</ele>
 <time>2010-07-08T11:11:58Z</time>
 </trkpt>
 <trkpt lat="47.261426" lon="12.331657">
 <ele>835.46</ele>
 <time>2010-07-08T11:12:08Z</time>
 </trkpt>
 <trkpt lat="47.261965" lon="12.332093">
 <ele>835.42</ele>
 <time>2010-07-08T11:12:19Z</time>
 </trkpt>
 <trkpt lat="47.262744" lon="12.332681">
 <ele>835.56</ele>
 <time>2010-07-08T11:12:32Z</time>
 </trkpt>
 <trkpt lat="47.263430" lon="12.333150">
 <ele>835.55</ele>
 <time>2010-07-08T11:12:43Z</time>
 </trkpt>
 <trkpt lat="47.263604" lon="12.333356">
 <ele>835.25</ele>
 <time>2010-07-08T11:12:52Z</time>
 </trkpt>
 <trkpt lat="47.263741" lon="12.333465">
 <ele>835.31</ele>
 <time>2010-07-08T11:12:54Z</time>
 </trkpt>
 <trkpt lat="47.263879" lon="12.333590">
 <ele>835.59</ele>
 <time>2010-07-08T11:12:58Z</time>
 </trkpt>
 <trkpt lat="47.263905" lon="12.333754">
 <ele>835.64</ele>
 <time>2010-07-08T11:12:59Z</time>
 </trkpt>
 <trkpt lat="47.264136" lon="12.334007">
 <ele>835.04</ele>
 <time>2010-07-08T11:13:04Z</time>
 </trkpt>
 <trkpt lat="47.264355" lon="12.334211">
 <ele>834.27</ele>
 <time>2010-07-08T11:13:12Z</time>
 </trkpt>
 <trkpt lat="47.264430" lon="12.334554">
 <ele>833.89</ele>
 <time>2010-07-08T11:13:15Z</time>
 </trkpt>
 <trkpt lat="47.264762" lon="12.334785">
 <ele>834.45</ele>
 <time>2010-07-08T11:13:22Z</time>
 </trkpt>
 <trkpt lat="47.264903" lon="12.335059">
 <ele>834.41</ele>
 <time>2010-07-08T11:13:26Z</time>
 </trkpt>
 <trkpt lat="47.265102" lon="12.335380">
 <ele>834.25</ele>
 <time>2010-07-08T11:13:34Z</time>
 </trkpt>
 <trkpt lat="47.265278" lon="12.335702">
 <ele>833.90</ele>
 <time>2010-07-08T11:13:41Z</time>
 </trkpt>
 <trkpt lat="47.265471" lon="12.336270">
 <ele>834.00</ele>
 <time>2010-07-08T11:13:50Z</time>
 </trkpt>
 <trkpt lat="47.265799" lon="12.336799">
 <ele>833.90</ele>
 <time>2010-07-08T11:13:51Z</time>
 </trkpt>
 <trkpt lat="47.265852" lon="12.337143">
 <ele>834.67</ele>
 <time>2010-07-08T11:13:56Z</time>
 </trkpt>
 <trkpt lat="47.266043" lon="12.337167">
 <ele>835.01</ele>
 <time>2010-07-08T11:13:59Z</time>
 </trkpt>
 <trkpt lat="47.266209" lon="12.337496">
 <ele>835.63</ele>
 <time>2010-07-08T11:14:06Z</time>
 </trkpt>
 <trkpt lat="47.265968" lon="12.337756">
 <ele>835.61</ele>
 <time>2010-07-08T11:14:09Z</time>
 </trkpt>
 <trkpt lat="47.266174" lon="12.338001">
 <ele>835.57</ele>
 <time>2010-07-08T11:14:10Z</time>
 </trkpt>
 <trkpt lat="47.266281" lon="12.338213">
 <ele>835.43</ele>
 <time>2010-07-08T11:14:17Z</time>
 </trkpt>
 <trkpt lat="47.266407" lon="12.338272">
 <ele>835.20</ele>
 <time>2010-07-08T11:14:19Z</time>
 </trkpt>
 <trkpt lat="47.266604" lon="12.338527">
 <ele>834.65</ele>
 <time>2010-07-08T11:14:24Z</time>
 </trkpt>
 <trkpt lat="47.266762" lon="12.338569">
 <ele>834.85</ele>
 <time>2010-07-08T11:14:28Z</time>
 </trkpt>
 <trkpt lat="47.266912" lon="12.338743">
 <ele>835.53</ele>
 <time>2010-07-08T11:14:33Z</time>
 </trkpt>
 <trkpt lat="47.266776" lon="12.338684">
 <ele>833.63</ele>
 <time>2010-07-08T11:14:38Z</time>
 </trkpt>
 <trkpt lat="47.267155" lon="12.338908">
 <ele>833.22</ele>
 <time>2010-07-08T11:14:40Z</time>
 </trkpt>
 <trkpt lat="47.267231" lon="12.339550">
 <ele>832.95</ele>
 <time>2010-07-08T11:14:48Z</time>
 </trkpt>
 <trkpt lat="47.267239" lon="12.340132">
 <ele>832.76</ele>
 <time>2010-07-08T11:14:55Z</time>
 </trkpt>
 <trkpt lat="47.267250" lon="12.340992">
 <ele>832.07</ele>
 <time>2010-07-08T11:15:05Z</time>
 </trkpt>
 <trkpt lat="47.267342" lon="12.342095">
 <ele>832.26</ele>
 <time>2010-07-08T11:15:18Z</time>
 </trkpt>
 <trkpt lat="47.267406" lon="12.343226">
 <ele>831.99</ele>
 <time>2010-07-08T11:15:31Z</time>
 </trkpt>
 <trkpt lat="47.267536" lon="12.343996">
 <ele>831.59</ele>
 <time>2010-07-08T11:15:40Z</time>
 </trkpt>
 <trkpt lat="47.267723" lon="12.344922">
 <ele>831.03</ele>
 <time>2010-07-08T11:15:51Z</time>
 </trkpt>
 <trkpt lat="47.267838" lon="12.345614">
 <ele>830.59</ele>
 <time>2010-07-08T11:15:59Z</time>
 </trkpt>
 <trkpt lat="47.268024" lon="12.346437">
 <ele>830.56</ele>
 <time>2010-07-08T11:16:09Z</time>
 </trkpt>
 <trkpt lat="47.268238" lon="12.346954">
 <ele>830.16</ele>
 <time>2010-07-08T11:16:16Z</time>
 </trkpt>
 <trkpt lat="47.268375" lon="12.347281">
 <ele>830.28</ele>
 <time>2010-07-08T11:16:25Z</time>
 </trkpt>
 <trkpt lat="47.268375" lon="12.347281">
 <ele>830.30</ele>
 <time>2010-07-08T11:16:33Z</time>
 </trkpt>
 <trkpt lat="47.269176" lon="12.348978">
 <ele>830.30</ele>
 <time>2010-07-08T11:16:43Z</time>
 </trkpt>
 <trkpt lat="47.269539" lon="12.349695">
 <ele>829.92</ele>
 <time>2010-07-08T11:16:53Z</time>
 </trkpt>
 <trkpt lat="47.269936" lon="12.350478">
 <ele>829.61</ele>
 <time>2010-07-08T11:17:04Z</time>
 </trkpt>
 <trkpt lat="47.270294" lon="12.351201">
 <ele>829.25</ele>
 <time>2010-07-08T11:17:14Z</time>
 </trkpt>
 <trkpt lat="47.270699" lon="12.351999">
 <ele>828.98</ele>
 <time>2010-07-08T11:17:25Z</time>
 </trkpt>
 <trkpt lat="47.270988" lon="12.352577">
 <ele>828.89</ele>
 <time>2010-07-08T11:17:33Z</time>
 </trkpt>
 <trkpt lat="47.271313" lon="12.353281">
 <ele>828.70</ele>
 <time>2010-07-08T11:17:44Z</time>
 </trkpt>
 <trkpt lat="47.271692" lon="12.354105">
 <ele>828.47</ele>
 <time>2010-07-08T11:17:56Z</time>
 </trkpt>
 <trkpt lat="47.271958" lon="12.354885">
 <ele>829.57</ele>
 <time>2010-07-08T11:18:01Z</time>
 </trkpt>
 <trkpt lat="47.272232" lon="12.355566">
 <ele>829.50</ele>
 <time>2010-07-08T11:18:07Z</time>
 </trkpt>
 <trkpt lat="47.272596" lon="12.356242">
 <ele>828.18</ele>
 <time>2010-07-08T11:18:18Z</time>
 </trkpt>
 <trkpt lat="47.272840" lon="12.357023">
 <ele>828.03</ele>
 <time>2010-07-08T11:18:27Z</time>
 </trkpt>
 <trkpt lat="47.273110" lon="12.358034">
 <ele>827.58</ele>
 <time>2010-07-08T11:18:38Z</time>
 </trkpt>
 <trkpt lat="47.273145" lon="12.358561">
 <ele>827.61</ele>
 <time>2010-07-08T11:18:47Z</time>
 </trkpt>
 <trkpt lat="47.273234" lon="12.359003">
 <ele>827.90</ele>
 <time>2010-07-08T11:18:55Z</time>
 </trkpt>
 <trkpt lat="47.273307" lon="12.359743">
 <ele>827.42</ele>
 <time>2010-07-08T11:19:05Z</time>
 </trkpt>
 <trkpt lat="47.273309" lon="12.360321">
 <ele>826.96</ele>
 <time>2010-07-08T11:19:17Z</time>
 </trkpt>
 <trkpt lat="47.273306" lon="12.361164">
 <ele>827.59</ele>
 <time>2010-07-08T11:19:25Z</time>
 </trkpt>
 <trkpt lat="47.273180" lon="12.362014">
 <ele>826.94</ele>
 <time>2010-07-08T11:19:32Z</time>
 </trkpt>
 <trkpt lat="47.273149" lon="12.362627">
 <ele>826.92</ele>
 <time>2010-07-08T11:19:41Z</time>
 </trkpt>
 <trkpt lat="47.273125" lon="12.363393">
 <ele>826.97</ele>
 <time>2010-07-08T11:19:48Z</time>
 </trkpt>
 <trkpt lat="47.272934" lon="12.364287">
 <ele>826.24</ele>
 <time>2010-07-08T11:19:58Z</time>
 </trkpt>
 <trkpt lat="47.272766" lon="12.365180">
 <ele>826.05</ele>
 <time>2010-07-08T11:20:08Z</time>
 </trkpt>
 <trkpt lat="47.272659" lon="12.365917">
 <ele>825.86</ele>
 <time>2010-07-08T11:20:16Z</time>
 </trkpt>
 <trkpt lat="47.272526" lon="12.366757">
 <ele>825.59</ele>
 <time>2010-07-08T11:20:25Z</time>
 </trkpt>
 <trkpt lat="47.272366" lon="12.367672">
 <ele>825.24</ele>
 <time>2010-07-08T11:20:35Z</time>
 </trkpt>
 <trkpt lat="47.272282" lon="12.368178">
 <ele>825.42</ele>
 <time>2010-07-08T11:20:41Z</time>
 </trkpt>
 <trkpt lat="47.272221" lon="12.368357">
 <ele>826.22</ele>
 <time>2010-07-08T11:20:44Z</time>
 </trkpt>
 <trkpt lat="47.272144" lon="12.368851">
 <ele>825.33</ele>
 <time>2010-07-08T11:20:50Z</time>
 </trkpt>
 <trkpt lat="47.272018" lon="12.369617">
 <ele>825.29</ele>
 <time>2010-07-08T11:20:59Z</time>
 </trkpt>
 <trkpt lat="47.271935" lon="12.370230">
 <ele>825.18</ele>
 <time>2010-07-08T11:21:06Z</time>
 </trkpt>
 <trkpt lat="47.271893" lon="12.371109">
 <ele>824.73</ele>
 <time>2010-07-08T11:21:16Z</time>
 </trkpt>
 <trkpt lat="47.271931" lon="12.371903">
 <ele>825.12</ele>
 <time>2010-07-08T11:21:25Z</time>
 </trkpt>
 <trkpt lat="47.272049" lon="12.372639">
 <ele>825.77</ele>
 <time>2010-07-08T11:21:34Z</time>
 </trkpt>
 <trkpt lat="47.272198" lon="12.373313">
 <ele>824.66</ele>
 <time>2010-07-08T11:21:42Z</time>
 </trkpt>
 <trkpt lat="47.272148" lon="12.373620">
 <ele>824.63</ele>
 <time>2010-07-08T11:21:46Z</time>
 </trkpt>
 <trkpt lat="47.272079" lon="12.373838">
 <ele>825.70</ele>
 <time>2010-07-08T11:21:50Z</time>
 </trkpt>
 <trkpt lat="47.272129" lon="12.374090">
 <ele>825.98</ele>
 <time>2010-07-08T11:21:54Z</time>
 </trkpt>
 <trkpt lat="47.272202" lon="12.374309">
 <ele>824.99</ele>
 <time>2010-07-08T11:21:57Z</time>
 </trkpt>
 <trkpt lat="47.272213" lon="12.374586">
 <ele>824.27</ele>
 <time>2010-07-08T11:22:01Z</time>
 </trkpt>
 <trkpt lat="47.272243" lon="12.374670">
 <ele>825.06</ele>
 <time>2010-07-08T11:22:04Z</time>
 </trkpt>
 <trkpt lat="47.272385" lon="12.374726">
 <ele>825.36</ele>
 <time>2010-07-08T11:22:09Z</time>
 </trkpt>
 <trkpt lat="47.272472" lon="12.374762">
 <ele>825.02</ele>
 <time>2010-07-08T11:22:11Z</time>
 </trkpt>
 <trkpt lat="47.273075" lon="12.375648">
 <ele>823.89</ele>
 <time>2010-07-08T11:22:19Z</time>
 </trkpt>
 <trkpt lat="47.272896" lon="12.375218">
 <ele>824.05</ele>
 <time>2010-07-08T11:22:23Z</time>
 </trkpt>
 <trkpt lat="47.273071" lon="12.375584">
 <ele>824.59</ele>
 <time>2010-07-08T11:22:30Z</time>
 </trkpt>
 <trkpt lat="47.273170" lon="12.375749">
 <ele>825.07</ele>
 <time>2010-07-08T11:22:34Z</time>
 </trkpt>
 <trkpt lat="47.273251" lon="12.376009">
 <ele>824.63</ele>
 <time>2010-07-08T11:22:38Z</time>
 </trkpt>
 <trkpt lat="47.273335" lon="12.376710">
 <ele>823.25</ele>
 <time>2010-07-08T11:22:47Z</time>
 </trkpt>
 <trkpt lat="47.273075" lon="12.375648">
 <ele>823.24</ele>
 <time>2010-07-08T11:22:48Z</time>
 </trkpt>
 <trkpt lat="47.273422" lon="12.377526">
 <ele>823.36</ele>
 <time>2010-07-08T11:22:57Z</time>
 </trkpt>
 <trkpt lat="47.273464" lon="12.378152">
 <ele>824.07</ele>
 <time>2010-07-08T11:23:05Z</time>
 </trkpt>
 <trkpt lat="47.273506" lon="12.378495">
 <ele>825.37</ele>
 <time>2010-07-08T11:23:11Z</time>
 </trkpt>
 <trkpt lat="47.273617" lon="12.378976">
 <ele>823.75</ele>
 <time>2010-07-08T11:23:17Z</time>
 </trkpt>
 <trkpt lat="47.273771" lon="12.379881">
 <ele>821.91</ele>
 <time>2010-07-08T11:23:27Z</time>
 </trkpt>
 <trkpt lat="47.273963" lon="12.380880">
 <ele>821.72</ele>
 <time>2010-07-08T11:23:39Z</time>
 </trkpt>
 <trkpt lat="47.274170" lon="12.381564">
 <ele>820.73</ele>
 <time>2010-07-08T11:23:48Z</time>
 </trkpt>
 <trkpt lat="47.274272" lon="12.382071">
 <ele>820.62</ele>
 <time>2010-07-08T11:23:56Z</time>
 </trkpt>
 <trkpt lat="47.274560" lon="12.382900">
 <ele>821.36</ele>
 <time>2010-07-08T11:24:06Z</time>
 </trkpt>
 <trkpt lat="47.274743" lon="12.383502">
 <ele>820.52</ele>
 <time>2010-07-08T11:24:15Z</time>
 </trkpt>
 <trkpt lat="47.275054" lon="12.384297">
 <ele>820.25</ele>
 <time>2010-07-08T11:24:25Z</time>
 </trkpt>
 <trkpt lat="47.275413" lon="12.385271">
 <ele>819.88</ele>
 <time>2010-07-08T11:24:37Z</time>
 </trkpt>
 <trkpt lat="47.275737" lon="12.386164">
 <ele>819.88</ele>
 <time>2010-07-08T11:24:48Z</time>
 </trkpt>
 <trkpt lat="47.275944" lon="12.386831">
 <ele>819.99</ele>
 <time>2010-07-08T11:24:57Z</time>
 </trkpt>
 <trkpt lat="47.276149" lon="12.387449">
 <ele>819.65</ele>
 <time>2010-07-08T11:25:06Z</time>
 </trkpt>
 <trkpt lat="47.276369" lon="12.388232">
 <ele>819.15</ele>
 <time>2010-07-08T11:25:16Z</time>
 </trkpt>
 <trkpt lat="47.276759" lon="12.389056">
 <ele>819.39</ele>
 <time>2010-07-08T11:25:24Z</time>
 </trkpt>
 <trkpt lat="47.277170" lon="12.389779">
 <ele>819.05</ele>
 <time>2010-07-08T11:25:32Z</time>
 </trkpt>
 <trkpt lat="47.277538" lon="12.390625">
 <ele>818.71</ele>
 <time>2010-07-08T11:25:43Z</time>
 </trkpt>
 <trkpt lat="47.277740" lon="12.391575">
 <ele>817.98</ele>
 <time>2010-07-08T11:25:54Z</time>
 </trkpt>
 <trkpt lat="47.277939" lon="12.392636">
 <ele>817.47</ele>
 <time>2010-07-08T11:26:06Z</time>
 </trkpt>
 <trkpt lat="47.278145" lon="12.393752">
 <ele>816.90</ele>
 <time>2010-07-08T11:26:19Z</time>
 </trkpt>
 <trkpt lat="47.278316" lon="12.394672">
 <ele>816.62</ele>
 <time>2010-07-08T11:26:30Z</time>
 </trkpt>
 <trkpt lat="47.278507" lon="12.395783">
 <ele>816.22</ele>
 <time>2010-07-08T11:26:43Z</time>
 </trkpt>
 <trkpt lat="47.278599" lon="12.396469">
 <ele>816.07</ele>
 <time>2010-07-08T11:26:51Z</time>
 </trkpt>
 <trkpt lat="47.278620" lon="12.397351">
 <ele>815.38</ele>
 <time>2010-07-08T11:27:03Z</time>
 </trkpt>
 <trkpt lat="47.278589" lon="12.397964">
 <ele>815.18</ele>
 <time>2010-07-08T11:27:09Z</time>
 </trkpt>
 <trkpt lat="47.278605" lon="12.398691">
 <ele>815.43</ele>
 <time>2010-07-08T11:27:17Z</time>
 </trkpt>
 <trkpt lat="47.278671" lon="12.399596">
 <ele>814.62</ele>
 <time>2010-07-08T11:27:27Z</time>
 </trkpt>
 <trkpt lat="47.278809" lon="12.400459">
 <ele>814.73</ele>
 <time>2010-07-08T11:27:39Z</time>
 </trkpt>
 <trkpt lat="47.278683" lon="12.401220">
 <ele>814.79</ele>
 <time>2010-07-08T11:27:49Z</time>
 </trkpt>
 <trkpt lat="47.278557" lon="12.401967">
 <ele>814.32</ele>
 <time>2010-07-08T11:27:59Z</time>
 </trkpt>
 <trkpt lat="47.278767" lon="12.402830">
 <ele>814.41</ele>
 <time>2010-07-08T11:28:06Z</time>
 </trkpt>
 <trkpt lat="47.278835" lon="12.403030">
 <ele>815.39</ele>
 <time>2010-07-08T11:28:12Z</time>
 </trkpt>
 <trkpt lat="47.278866" lon="12.403118">
 <ele>815.04</ele>
 <time>2010-07-08T11:28:14Z</time>
 </trkpt>
 <trkpt lat="47.278915" lon="12.403634">
 <ele>814.63</ele>
 <time>2010-07-08T11:28:22Z</time>
 </trkpt>
 <trkpt lat="47.278870" lon="12.404499">
 <ele>814.58</ele>
 <time>2010-07-08T11:28:33Z</time>
 </trkpt>
 <trkpt lat="47.278828" lon="12.405239">
 <ele>814.24</ele>
 <time>2010-07-08T11:28:42Z</time>
 </trkpt>
 <trkpt lat="47.278774" lon="12.406222">
 <ele>813.57</ele>
 <time>2010-07-08T11:28:54Z</time>
 </trkpt>
 <trkpt lat="47.278717" lon="12.407089">
 <ele>813.22</ele>
 <time>2010-07-08T11:29:05Z</time>
 </trkpt>
 <trkpt lat="47.278652" lon="12.408035">
 <ele>812.39</ele>
 <time>2010-07-08T11:29:17Z</time>
 </trkpt>
 <trkpt lat="47.278580" lon="12.409050">
 <ele>812.44</ele>
 <time>2010-07-08T11:29:30Z</time>
 </trkpt>
 <trkpt lat="47.278492" lon="12.410294">
 <ele>812.23</ele>
 <time>2010-07-08T11:29:46Z</time>
 </trkpt>
 <trkpt lat="47.278419" lon="12.411236">
 <ele>812.12</ele>
 <time>2010-07-08T11:29:58Z</time>
 </trkpt>
 <trkpt lat="47.278347" lon="12.412110">
 <ele>811.64</ele>
 <time>2010-07-08T11:30:09Z</time>
 </trkpt>
 <trkpt lat="47.278278" lon="12.412919">
 <ele>812.11</ele>
 <time>2010-07-08T11:30:19Z</time>
 </trkpt>
 <trkpt lat="47.278217" lon="12.413649">
 <ele>811.40</ele>
 <time>2010-07-08T11:30:28Z</time>
 </trkpt>
 <trkpt lat="47.278145" lon="12.414525">
 <ele>811.68</ele>
 <time>2010-07-08T11:30:39Z</time>
 </trkpt>
 <trkpt lat="47.278076" lon="12.415422">
 <ele>811.50</ele>
 <time>2010-07-08T11:30:50Z</time>
 </trkpt>
 <trkpt lat="47.278038" lon="12.415982">
 <ele>811.16</ele>
 <time>2010-07-08T11:30:57Z</time>
 </trkpt>
 <trkpt lat="47.277946" lon="12.416213">
 <ele>811.25</ele>
 <time>2010-07-08T11:31:01Z</time>
 </trkpt>
 <trkpt lat="47.277882" lon="12.416310">
 <ele>812.75</ele>
 <time>2010-07-08T11:31:07Z</time>
 </trkpt>
 <trkpt lat="47.277908" lon="12.417022">
 <ele>812.99</ele>
 <time>2010-07-08T11:31:14Z</time>
 </trkpt>
 <trkpt lat="47.277954" lon="12.417379">
 <ele>812.20</ele>
 <time>2010-07-08T11:31:21Z</time>
 </trkpt>
 <trkpt lat="47.278065" lon="12.418139">
 <ele>811.17</ele>
 <time>2010-07-08T11:31:29Z</time>
 </trkpt>
 <trkpt lat="47.278049" lon="12.418623">
 <ele>811.09</ele>
 <time>2010-07-08T11:31:35Z</time>
 </trkpt>
 <trkpt lat="47.277950" lon="12.419304">
 <ele>812.19</ele>
 <time>2010-07-08T11:31:42Z</time>
 </trkpt>
 <trkpt lat="47.277676" lon="12.419647">
 <ele>811.07</ele>
 <time>2010-07-08T11:31:48Z</time>
 </trkpt>
 <trkpt lat="47.277695" lon="12.420058">
 <ele>810.67</ele>
 <time>2010-07-08T11:31:53Z</time>
 </trkpt>
 <trkpt lat="47.277710" lon="12.420620">
 <ele>811.68</ele>
 <time>2010-07-08T11:32:00Z</time>
 </trkpt>
 <trkpt lat="47.277672" lon="12.421058">
 <ele>812.61</ele>
 <time>2010-07-08T11:32:06Z</time>
 </trkpt>
 <trkpt lat="47.277576" lon="12.421516">
 <ele>814.47</ele>
 <time>2010-07-08T11:32:14Z</time>
 </trkpt>
 <trkpt lat="47.277500" lon="12.421852">
 <ele>815.51</ele>
 <time>2010-07-08T11:32:21Z</time>
 </trkpt>
 <trkpt lat="47.277431" lon="12.422168">
 <ele>817.46</ele>
 <time>2010-07-08T11:32:33Z</time>
 </trkpt>
 <trkpt lat="47.277145" lon="12.422889">
 <ele>817.23</ele>
 <time>2010-07-08T11:32:42Z</time>
 </trkpt>
 <trkpt lat="47.277065" lon="12.423100">
 <ele>816.92</ele>
 <time>2010-07-08T11:32:46Z</time>
 </trkpt>
 <trkpt lat="47.276985" lon="12.423313">
 <ele>816.98</ele>
 <time>2010-07-08T11:32:50Z</time>
 </trkpt>
 <trkpt lat="47.277023" lon="12.423434">
 <ele>817.20</ele>
 <time>2010-07-08T11:32:52Z</time>
 </trkpt>
 <trkpt lat="47.277130" lon="12.423439">
 <ele>817.25</ele>
 <time>2010-07-08T11:32:55Z</time>
 </trkpt>
 <trkpt lat="47.277443" lon="12.423304">
 <ele>814.47</ele>
 <time>2010-07-08T11:33:01Z</time>
 </trkpt>
 <trkpt lat="47.277821" lon="12.423508">
 <ele>813.00</ele>
 <time>2010-07-08T11:33:08Z</time>
 </trkpt>
 <trkpt lat="47.277878" lon="12.423545">
 <ele>812.77</ele>
 <time>2010-07-08T11:33:09Z</time>
 </trkpt>
 <trkpt lat="47.278095" lon="12.423692">
 <ele>811.66</ele>
 <time>2010-07-08T11:33:15Z</time>
 </trkpt>
 <trkpt lat="47.278095" lon="12.423692">
 <ele>811.52</ele>
 <time>2010-07-08T11:33:16Z</time>
 </trkpt>
 <trkpt lat="47.278393" lon="12.424274">
 <ele>810.35</ele>
 <time>2010-07-08T11:33:21Z</time>
 </trkpt>
 <trkpt lat="47.278526" lon="12.424913">
 <ele>810.43</ele>
 <time>2010-07-08T11:33:29Z</time>
 </trkpt>
 <trkpt lat="47.278599" lon="12.425516">
 <ele>809.20</ele>
 <time>2010-07-08T11:33:36Z</time>
 </trkpt>
 <trkpt lat="47.278687" lon="12.426390">
 <ele>809.13</ele>
 <time>2010-07-08T11:33:46Z</time>
 </trkpt>
 <trkpt lat="47.278721" lon="12.427173">
 <ele>808.99</ele>
 <time>2010-07-08T11:33:55Z</time>
 </trkpt>
 <trkpt lat="47.278740" lon="12.427742">
 <ele>808.65</ele>
 <time>2010-07-08T11:34:02Z</time>
 </trkpt>
 <trkpt lat="47.278709" lon="12.428427">
 <ele>807.88</ele>
 <time>2010-07-08T11:34:10Z</time>
 </trkpt>
 <trkpt lat="47.278667" lon="12.429400">
 <ele>807.62</ele>
 <time>2010-07-08T11:34:21Z</time>
 </trkpt>
 <trkpt lat="47.278610" lon="12.430270">
 <ele>807.80</ele>
 <time>2010-07-08T11:34:31Z</time>
 </trkpt>
 <trkpt lat="47.278576" lon="12.430744">
 <ele>807.86</ele>
 <time>2010-07-08T11:34:37Z</time>
 </trkpt>
 <trkpt lat="47.278587" lon="12.431361">
 <ele>807.47</ele>
 <time>2010-07-08T11:34:45Z</time>
 </trkpt>
 <trkpt lat="47.278606" lon="12.431929">
 <ele>806.93</ele>
 <time>2010-07-08T11:34:52Z</time>
 </trkpt>
 <trkpt lat="47.278721" lon="12.432564">
 <ele>807.01</ele>
 <time>2010-07-08T11:35:00Z</time>
 </trkpt>
 <trkpt lat="47.278912" lon="12.433358">
 <ele>806.27</ele>
 <time>2010-07-08T11:35:10Z</time>
 </trkpt>
 <trkpt lat="47.279037" lon="12.433934">
 <ele>805.45</ele>
 <time>2010-07-08T11:35:17Z</time>
 </trkpt>
 <trkpt lat="47.279137" lon="12.434541">
 <ele>805.95</ele>
 <time>2010-07-08T11:35:25Z</time>
 </trkpt>
 <trkpt lat="47.279148" lon="12.434608">
 <ele>805.95</ele>
 <time>2010-07-08T11:35:26Z</time>
 </trkpt>
 <trkpt lat="47.279221" lon="12.435070">
 <ele>806.38</ele>
 <time>2010-07-08T11:35:34Z</time>
 </trkpt>
 <trkpt lat="47.279236" lon="12.435577">
 <ele>805.59</ele>
 <time>2010-07-08T11:35:42Z</time>
 </trkpt>
 <trkpt lat="47.279232" lon="12.436158">
 <ele>805.38</ele>
 <time>2010-07-08T11:35:50Z</time>
 </trkpt>
 <trkpt lat="47.279213" lon="12.436894">
 <ele>805.66</ele>
 <time>2010-07-08T11:36:00Z</time>
 </trkpt>
 <trkpt lat="47.279198" lon="12.437420">
 <ele>805.77</ele>
 <time>2010-07-08T11:36:07Z</time>
 </trkpt>
 <trkpt lat="47.279194" lon="12.438123">
 <ele>805.65</ele>
 <time>2010-07-08T11:36:16Z</time>
 </trkpt>
 <trkpt lat="47.279156" lon="12.439024">
 <ele>805.35</ele>
 <time>2010-07-08T11:36:27Z</time>
 </trkpt>
 <trkpt lat="47.279106" lon="12.439769">
 <ele>805.26</ele>
 <time>2010-07-08T11:36:36Z</time>
 </trkpt>
 <trkpt lat="47.279022" lon="12.440616">
 <ele>804.99</ele>
 <time>2010-07-08T11:36:46Z</time>
 </trkpt>
 <trkpt lat="47.278980" lon="12.440950">
 <ele>804.88</ele>
 <time>2010-07-08T11:36:50Z</time>
 </trkpt>
 <trkpt lat="47.278908" lon="12.441527">
 <ele>804.73</ele>
 <time>2010-07-08T11:36:57Z</time>
 </trkpt>
 <trkpt lat="47.278893" lon="12.442111">
 <ele>804.69</ele>
 <time>2010-07-08T11:37:04Z</time>
 </trkpt>
 <trkpt lat="47.278893" lon="12.442976">
 <ele>804.52</ele>
 <time>2010-07-08T11:37:14Z</time>
 </trkpt>
 <trkpt lat="47.278900" lon="12.443909">
 <ele>804.04</ele>
 <time>2010-07-08T11:37:25Z</time>
 </trkpt>
 <trkpt lat="47.278969" lon="12.444656">
 <ele>803.98</ele>
 <time>2010-07-08T11:37:34Z</time>
 </trkpt>
 <trkpt lat="47.279114" lon="12.445441">
 <ele>803.59</ele>
 <time>2010-07-08T11:37:44Z</time>
 </trkpt>
 <trkpt lat="47.279346" lon="12.446282">
 <ele>803.36</ele>
 <time>2010-07-08T11:37:55Z</time>
 </trkpt>
 <trkpt lat="47.279663" lon="12.447087">
 <ele>803.27</ele>
 <time>2010-07-08T11:38:06Z</time>
 </trkpt>
 <trkpt lat="47.279976" lon="12.447797">
 <ele>803.85</ele>
 <time>2010-07-08T11:38:16Z</time>
 </trkpt>
 <trkpt lat="47.280266" lon="12.448435">
 <ele>802.40</ele>
 <time>2010-07-08T11:38:25Z</time>
 </trkpt>
 <trkpt lat="47.280579" lon="12.449121">
 <ele>802.96</ele>
 <time>2010-07-08T11:38:35Z</time>
 </trkpt>
 <trkpt lat="47.280861" lon="12.449729">
 <ele>802.86</ele>
 <time>2010-07-08T11:38:44Z</time>
 </trkpt>
 <trkpt lat="47.280956" lon="12.449914">
 <ele>803.31</ele>
 <time>2010-07-08T11:38:47Z</time>
 </trkpt>
 <trkpt lat="47.281097" lon="12.450186">
 <ele>803.67</ele>
 <time>2010-07-08T11:38:52Z</time>
 </trkpt>
 <trkpt lat="47.281467" lon="12.450883">
 <ele>802.78</ele>
 <time>2010-07-08T11:39:03Z</time>
 </trkpt>
 <trkpt lat="47.281788" lon="12.451563">
 <ele>802.44</ele>
 <time>2010-07-08T11:39:13Z</time>
 </trkpt>
 <trkpt lat="47.282154" lon="12.452328">
 <ele>802.49</ele>
 <time>2010-07-08T11:39:24Z</time>
 </trkpt>
 <trkpt lat="47.282581" lon="12.453250">
 <ele>801.74</ele>
 <time>2010-07-08T11:39:37Z</time>
 </trkpt>
 <trkpt lat="47.282829" lon="12.453826">
 <ele>801.42</ele>
 <time>2010-07-08T11:39:45Z</time>
 </trkpt>
 <trkpt lat="47.283058" lon="12.454524">
 <ele>801.23</ele>
 <time>2010-07-08T11:39:55Z</time>
 </trkpt>
 <trkpt lat="47.283112" lon="12.455017">
 <ele>801.26</ele>
 <time>2010-07-08T11:40:02Z</time>
 </trkpt>
 <trkpt lat="47.283127" lon="12.455467">
 <ele>800.52</ele>
 <time>2010-07-08T11:40:08Z</time>
 </trkpt>
 <trkpt lat="47.283127" lon="12.456403">
 <ele>800.74</ele>
 <time>2010-07-08T11:40:20Z</time>
 </trkpt>
 <trkpt lat="47.283108" lon="12.457341">
 <ele>800.64</ele>
 <time>2010-07-08T11:40:32Z</time>
 </trkpt>
 <trkpt lat="47.283104" lon="12.458131">
 <ele>800.66</ele>
 <time>2010-07-08T11:40:42Z</time>
 </trkpt>
 <trkpt lat="47.283112" lon="12.458933">
 <ele>799.91</ele>
 <time>2010-07-08T11:40:52Z</time>
 </trkpt>
 <trkpt lat="47.283123" lon="12.459725">
 <ele>800.09</ele>
 <time>2010-07-08T11:41:02Z</time>
 </trkpt>
 <trkpt lat="47.283176" lon="12.460544">
 <ele>799.96</ele>
 <time>2010-07-08T11:41:12Z</time>
 </trkpt>
 <trkpt lat="47.283218" lon="12.461350">
 <ele>799.99</ele>
 <time>2010-07-08T11:41:22Z</time>
 </trkpt>
 <trkpt lat="47.283268" lon="12.462022">
 <ele>799.18</ele>
 <time>2010-07-08T11:41:30Z</time>
 </trkpt>
 <trkpt lat="47.283329" lon="12.462654">
 <ele>798.94</ele>
 <time>2010-07-08T11:41:38Z</time>
 </trkpt>
 <trkpt lat="47.283405" lon="12.463507">
 <ele>799.27</ele>
 <time>2010-07-08T11:41:49Z</time>
 </trkpt>
 <trkpt lat="47.283455" lon="12.464210">
 <ele>800.12</ele>
 <time>2010-07-08T11:41:58Z</time>
 </trkpt>
 <trkpt lat="47.283478" lon="12.464521">
 <ele>801.85</ele>
 <time>2010-07-08T11:42:04Z</time>
 </trkpt>
 <trkpt lat="47.283482" lon="12.464579">
 <ele>802.22</ele>
 <time>2010-07-08T11:42:08Z</time>
 </trkpt>
 <trkpt lat="47.283482" lon="12.464579">
 <ele>801.97</ele>
 <time>2010-07-08T11:43:31Z</time>
 </trkpt>
 <trkpt lat="47.283482" lon="12.464579">
 <ele>801.93</ele>
 <time>2010-07-08T11:43:32Z</time>
 </trkpt>
 <trkpt lat="47.283482" lon="12.464579">
 <ele>801.78</ele>
 <time>2010-07-08T11:43:42Z</time>
 </trkpt>
 <trkpt lat="47.283482" lon="12.464579">
 <ele>801.66</ele>
 <time>2010-07-08T11:43:45Z</time>
 </trkpt>
 <trkpt lat="47.283489" lon="12.464684">
 <ele>801.63</ele>
 <time>2010-07-08T11:44:31Z</time>
 </trkpt>
 <trkpt lat="47.283497" lon="12.464830">
 <ele>800.74</ele>
 <time>2010-07-08T11:44:35Z</time>
 </trkpt>
 <trkpt lat="47.283520" lon="12.465194">
 <ele>800.10</ele>
 <time>2010-07-08T11:44:40Z</time>
 </trkpt>
 <trkpt lat="47.283554" lon="12.465708">
 <ele>798.77</ele>
 <time>2010-07-08T11:44:46Z</time>
 </trkpt>
 <trkpt lat="47.283596" lon="12.466549">
 <ele>796.89</ele>
 <time>2010-07-08T11:44:54Z</time>
 </trkpt>
 <trkpt lat="47.283604" lon="12.467239">
 <ele>797.36</ele>
 <time>2010-07-08T11:45:01Z</time>
 </trkpt>
 <trkpt lat="47.283678" lon="12.468351">
 <ele>797.87</ele>
 <time>2010-07-08T11:45:12Z</time>
 </trkpt>
 <trkpt lat="47.283711" lon="12.469308">
 <ele>796.77</ele>
 <time>2010-07-08T11:45:21Z</time>
 </trkpt>
 <trkpt lat="47.283709" lon="12.470250">
 <ele>796.92</ele>
 <time>2010-07-08T11:45:29Z</time>
 </trkpt>
 <trkpt lat="47.283695" lon="12.471127">
 <ele>796.32</ele>
 <time>2010-07-08T11:45:39Z</time>
 </trkpt>
 <trkpt lat="47.283782" lon="12.471685">
 <ele>796.50</ele>
 <time>2010-07-08T11:45:46Z</time>
 </trkpt>
 <trkpt lat="47.283831" lon="12.472410">
 <ele>796.24</ele>
 <time>2010-07-08T11:45:53Z</time>
 </trkpt>
 <trkpt lat="47.283821" lon="12.473469">
 <ele>795.83</ele>
 <time>2010-07-08T11:46:03Z</time>
 </trkpt>
 <trkpt lat="47.283855" lon="12.474525">
 <ele>795.73</ele>
 <time>2010-07-08T11:46:13Z</time>
 </trkpt>
 <trkpt lat="47.283883" lon="12.475267">
 <ele>795.94</ele>
 <time>2010-07-08T11:46:21Z</time>
 </trkpt>
 <trkpt lat="47.283829" lon="12.475898">
 <ele>796.14</ele>
 <time>2010-07-08T11:46:29Z</time>
 </trkpt>
 <trkpt lat="47.283745" lon="12.476646">
 <ele>795.51</ele>
 <time>2010-07-08T11:46:39Z</time>
 </trkpt>
 <trkpt lat="47.283686" lon="12.477062">
 <ele>795.56</ele>
 <time>2010-07-08T11:46:40Z</time>
 </trkpt>
 <trkpt lat="47.283576" lon="12.477663">
 <ele>795.42</ele>
 <time>2010-07-08T11:46:48Z</time>
 </trkpt>
 <trkpt lat="47.283556" lon="12.478275">
 <ele>795.54</ele>
 <time>2010-07-08T11:46:56Z</time>
 </trkpt>
 <trkpt lat="47.283472" lon="12.478577">
 <ele>795.50</ele>
 <time>2010-07-08T11:47:03Z</time>
 </trkpt>
 <trkpt lat="47.283435" lon="12.478909">
 <ele>795.44</ele>
 <time>2010-07-08T11:47:11Z</time>
 </trkpt>
 <trkpt lat="47.283388" lon="12.479341">
 <ele>794.62</ele>
 <time>2010-07-08T11:47:16Z</time>
 </trkpt>
 <trkpt lat="47.283359" lon="12.479557">
 <ele>794.31</ele>
 <time>2010-07-08T11:47:20Z</time>
 </trkpt>
 <trkpt lat="47.283342" lon="12.479806">
 <ele>794.82</ele>
 <time>2010-07-08T11:47:25Z</time>
 </trkpt>
 <trkpt lat="47.283333" lon="12.480435">
 <ele>794.57</ele>
 <time>2010-07-08T11:47:27Z</time>
 </trkpt>
 <trkpt lat="47.283193" lon="12.480722">
 <ele>793.96</ele>
 <time>2010-07-08T11:47:30Z</time>
 </trkpt>
 <trkpt lat="47.282485" lon="12.481235">
 <ele>793.14</ele>
 <time>2010-07-08T11:47:39Z</time>
 </trkpt>
 <trkpt lat="47.282073" lon="12.481453">
 <ele>793.31</ele>
 <time>2010-07-08T11:47:49Z</time>
 </trkpt>
 <trkpt lat="47.281795" lon="12.481582">
 <ele>793.25</ele>
 <time>2010-07-08T11:47:56Z</time>
 </trkpt>
 <trkpt lat="47.281618" lon="12.481706">
 <ele>793.51</ele>
 <time>2010-07-08T11:48:00Z</time>
 </trkpt>
 <trkpt lat="47.281450" lon="12.481764">
 <ele>793.63</ele>
 <time>2010-07-08T11:48:07Z</time>
 </trkpt>
 <trkpt lat="47.281116" lon="12.481689">
 <ele>793.61</ele>
 <time>2010-07-08T11:48:13Z</time>
 </trkpt>
 <trkpt lat="47.281113" lon="12.481691">
 <ele>793.61</ele>
 <time>2010-07-08T11:48:14Z</time>
 </trkpt>
 <trkpt lat="47.281261" lon="12.481872">
 <ele>793.53</ele>
 <time>2010-07-08T11:48:20Z</time>
 </trkpt>
 <trkpt lat="47.280994" lon="12.481735">
 <ele>793.98</ele>
 <time>2010-07-08T11:48:26Z</time>
 </trkpt>
 <trkpt lat="47.280994" lon="12.481735">
 <ele>793.92</ele>
 <time>2010-07-08T11:48:27Z</time>
 </trkpt>
 <trkpt lat="47.280994" lon="12.481735">
 <ele>793.72</ele>
 <time>2010-07-08T11:48:30Z</time>
 </trkpt>
 <trkpt lat="47.281000" lon="12.481769">
 <ele>793.75</ele>
 <time>2010-07-08T11:48:35Z</time>
 </trkpt>
 <trkpt lat="47.281002" lon="12.481835">
 <ele>793.80</ele>
 <time>2010-07-08T11:48:41Z</time>
 </trkpt>
 <trkpt lat="47.281084" lon="12.481980">
 <ele>794.27</ele>
 <time>2010-07-08T11:48:44Z</time>
 </trkpt>
 <trkpt lat="47.281078" lon="12.482228">
 <ele>793.96</ele>
 <time>2010-07-08T11:48:50Z</time>
 </trkpt>
 <trkpt lat="47.281072" lon="12.482460">
 <ele>794.27</ele>
 <time>2010-07-08T11:48:56Z</time>
 </trkpt>
 <trkpt lat="47.281010" lon="12.482744">
 <ele>794.58</ele>
 <time>2010-07-08T11:49:02Z</time>
 </trkpt>
 <trkpt lat="47.281004" lon="12.482942">
 <ele>794.93</ele>
 <time>2010-07-08T11:49:07Z</time>
 </trkpt>
 <trkpt lat="47.281008" lon="12.483157">
 <ele>794.91</ele>
 <time>2010-07-08T11:49:13Z</time>
 </trkpt>
 <trkpt lat="47.280980" lon="12.483406">
 <ele>794.19</ele>
 <time>2010-07-08T11:49:18Z</time>
 </trkpt>
 <trkpt lat="47.280946" lon="12.483887">
 <ele>794.00</ele>
 <time>2010-07-08T11:49:27Z</time>
 </trkpt>
 <trkpt lat="47.280990" lon="12.484364">
 <ele>794.24</ele>
 <time>2010-07-08T11:49:31Z</time>
 </trkpt>
 <trkpt lat="47.280918" lon="12.484665">
 <ele>794.54</ele>
 <time>2010-07-08T11:49:34Z</time>
 </trkpt>
 <trkpt lat="47.280889" lon="12.485143">
 <ele>794.67</ele>
 <time>2010-07-08T11:49:42Z</time>
 </trkpt>
 <trkpt lat="47.280851" lon="12.485458">
 <ele>794.59</ele>
 <time>2010-07-08T11:49:43Z</time>
 </trkpt>
 <trkpt lat="47.280794" lon="12.485941">
 <ele>795.11</ele>
 <time>2010-07-08T11:49:48Z</time>
 </trkpt>
 <trkpt lat="47.280563" lon="12.486150">
 <ele>795.09</ele>
 <time>2010-07-08T11:49:52Z</time>
 </trkpt>
 <trkpt lat="47.280212" lon="12.485818">
 <ele>794.99</ele>
 <time>2010-07-08T11:49:56Z</time>
 </trkpt>
 <trkpt lat="47.280318" lon="12.486261">
 <ele>795.07</ele>
 <time>2010-07-08T11:49:57Z</time>
 </trkpt>
 <trkpt lat="47.280327" lon="12.486673">
 <ele>798.15</ele>
 <time>2010-07-08T11:50:06Z</time>
 </trkpt>
 <trkpt lat="47.280335" lon="12.487037">
 <ele>797.66</ele>
 <time>2010-07-08T11:50:13Z</time>
 </trkpt>
 <trkpt lat="47.280309" lon="12.487385">
 <ele>794.15</ele>
 <time>2010-07-08T11:50:19Z</time>
 </trkpt>
 <trkpt lat="47.280347" lon="12.487582">
 <ele>794.15</ele>
 <time>2010-07-08T11:50:20Z</time>
 </trkpt>
 <trkpt lat="47.280309" lon="12.487931">
 <ele>793.59</ele>
 <time>2010-07-08T11:50:24Z</time>
 </trkpt>
 <trkpt lat="47.280148" lon="12.488298">
 <ele>793.48</ele>
 <time>2010-07-08T11:50:27Z</time>
 </trkpt>
 <trkpt lat="47.280300" lon="12.488336">
 <ele>793.29</ele>
 <time>2010-07-08T11:50:30Z</time>
 </trkpt>
 <trkpt lat="47.280849" lon="12.488459">
 <ele>792.72</ele>
 <time>2010-07-08T11:50:40Z</time>
 </trkpt>
 <trkpt lat="47.281124" lon="12.488516">
 <ele>792.70</ele>
 <time>2010-07-08T11:50:45Z</time>
 </trkpt>
 <trkpt lat="47.281319" lon="12.488550">
 <ele>792.49</ele>
 <time>2010-07-08T11:50:49Z</time>
 </trkpt>
 <trkpt lat="47.281532" lon="12.488588">
 <ele>792.82</ele>
 <time>2010-07-08T11:50:54Z</time>
 </trkpt>
 <trkpt lat="47.281994" lon="12.488683">
 <ele>792.99</ele>
 <time>2010-07-08T11:51:03Z</time>
 </trkpt>
 <trkpt lat="47.282150" lon="12.488752">
 <ele>793.17</ele>
 <time>2010-07-08T11:51:08Z</time>
 </trkpt>
 <trkpt lat="47.282188" lon="12.488780">
 <ele>793.17</ele>
 <time>2010-07-08T11:51:10Z</time>
 </trkpt>
 <trkpt lat="47.282215" lon="12.488799">
 <ele>793.10</ele>
 <time>2010-07-08T11:51:13Z</time>
 </trkpt>
 <trkpt lat="47.281898" lon="12.488803">
 <ele>793.05</ele>
 <time>2010-07-08T11:51:17Z</time>
 </trkpt>
 <trkpt lat="47.281879" lon="12.489031">
 <ele>792.69</ele>
 <time>2010-07-08T11:51:23Z</time>
 </trkpt>
 <trkpt lat="47.281876" lon="12.489082">
 <ele>792.58</ele>
 <time>2010-07-08T11:51:24Z</time>
 </trkpt>
 <trkpt lat="47.281830" lon="12.489663">
 <ele>792.14</ele>
 <time>2010-07-08T11:51:33Z</time>
 </trkpt>
 <trkpt lat="47.281815" lon="12.489805">
 <ele>792.15</ele>
 <time>2010-07-08T11:51:35Z</time>
 </trkpt>
 <trkpt lat="47.281788" lon="12.490146">
 <ele>791.60</ele>
 <time>2010-07-08T11:51:43Z</time>
 </trkpt>
 <trkpt lat="47.282238" lon="12.490039">
 <ele>791.63</ele>
 <time>2010-07-08T11:51:44Z</time>
 </trkpt>
 <trkpt lat="47.281867" lon="12.490750">
 <ele>792.24</ele>
 <time>2010-07-08T11:51:54Z</time>
 </trkpt>
 <trkpt lat="47.281721" lon="12.491269">
 <ele>792.20</ele>
 <time>2010-07-08T11:51:59Z</time>
 </trkpt>
 <trkpt lat="47.281361" lon="12.491765">
 <ele>792.53</ele>
 <time>2010-07-08T11:52:03Z</time>
 </trkpt>
 <trkpt lat="47.281145" lon="12.491676">
 <ele>792.20</ele>
 <time>2010-07-08T11:52:06Z</time>
 </trkpt>
 <trkpt lat="47.280805" lon="12.491577">
 <ele>791.71</ele>
 <time>2010-07-08T11:52:14Z</time>
 </trkpt>
 <trkpt lat="47.280470" lon="12.491659">
 <ele>791.93</ele>
 <time>2010-07-08T11:52:24Z</time>
 </trkpt>
 <trkpt lat="47.280087" lon="12.491660">
 <ele>792.10</ele>
 <time>2010-07-08T11:52:32Z</time>
 </trkpt>
 <trkpt lat="47.279764" lon="12.491808">
 <ele>792.16</ele>
 <time>2010-07-08T11:52:38Z</time>
 </trkpt>
 <trkpt lat="47.279301" lon="12.491434">
 <ele>792.33</ele>
 <time>2010-07-08T11:52:45Z</time>
 </trkpt>
 <trkpt lat="47.279263" lon="12.491441">
 <ele>792.55</ele>
 <time>2010-07-08T11:52:49Z</time>
 </trkpt>
 <trkpt lat="47.279251" lon="12.491443">
 <ele>792.54</ele>
 <time>2010-07-08T11:52:50Z</time>
 </trkpt>
 <trkpt lat="47.278950" lon="12.491598">
 <ele>792.06</ele>
 <time>2010-07-08T11:52:54Z</time>
 </trkpt>
 <trkpt lat="47.278629" lon="12.491861">
 <ele>791.00</ele>
 <time>2010-07-08T11:53:01Z</time>
 </trkpt>
 <trkpt lat="47.278353" lon="12.492089">
 <ele>790.30</ele>
 <time>2010-07-08T11:53:07Z</time>
 </trkpt>
 <trkpt lat="47.278055" lon="12.492351">
 <ele>790.25</ele>
 <time>2010-07-08T11:53:11Z</time>
 </trkpt>
 <trkpt lat="47.278171" lon="12.492495">
 <ele>790.56</ele>
 <time>2010-07-08T11:53:15Z</time>
 </trkpt>
 <trkpt lat="47.278116" lon="12.492547">
 <ele>790.55</ele>
 <time>2010-07-08T11:53:16Z</time>
 </trkpt>
 <trkpt lat="47.278153" lon="12.492694">
 <ele>790.59</ele>
 <time>2010-07-08T11:53:21Z</time>
 </trkpt>
 <trkpt lat="47.278135" lon="12.492910">
 <ele>790.28</ele>
 <time>2010-07-08T11:53:25Z</time>
 </trkpt>
 <trkpt lat="47.278105" lon="12.493109">
 <ele>790.35</ele>
 <time>2010-07-08T11:53:26Z</time>
 </trkpt>
 <trkpt lat="47.277976" lon="12.493347">
 <ele>790.25</ele>
 <time>2010-07-08T11:53:28Z</time>
 </trkpt>
 <trkpt lat="47.277983" lon="12.493694">
 <ele>789.43</ele>
 <time>2010-07-08T11:53:34Z</time>
 </trkpt>
 <trkpt lat="47.277912" lon="12.494044">
 <ele>788.87</ele>
 <time>2010-07-08T11:53:42Z</time>
 </trkpt>
 <trkpt lat="47.278642" lon="12.494472">
 <ele>788.59</ele>
 <time>2010-07-08T11:53:45Z</time>
 </trkpt>
 <trkpt lat="47.279194" lon="12.494907">
 <ele>787.92</ele>
 <time>2010-07-08T11:53:54Z</time>
 </trkpt>
 <trkpt lat="47.279209" lon="12.495570">
 <ele>787.69</ele>
 <time>2010-07-08T11:54:02Z</time>
 </trkpt>
 <trkpt lat="47.279297" lon="12.496047">
 <ele>787.65</ele>
 <time>2010-07-08T11:54:08Z</time>
 </trkpt>
 <trkpt lat="47.279598" lon="12.496843">
 <ele>787.85</ele>
 <time>2010-07-08T11:54:19Z</time>
 </trkpt>
 <trkpt lat="47.279797" lon="12.497360">
 <ele>787.86</ele>
 <time>2010-07-08T11:54:26Z</time>
 </trkpt>
 <trkpt lat="47.280041" lon="12.498043">
 <ele>787.62</ele>
 <time>2010-07-08T11:54:35Z</time>
 </trkpt>
 <trkpt lat="47.280201" lon="12.498500">
 <ele>788.15</ele>
 <time>2010-07-08T11:54:41Z</time>
 </trkpt>
 <trkpt lat="47.280285" lon="12.498882">
 <ele>788.29</ele>
 <time>2010-07-08T11:54:46Z</time>
 </trkpt>
 <trkpt lat="47.280216" lon="12.499188">
 <ele>788.03</ele>
 <time>2010-07-08T11:54:50Z</time>
 </trkpt>
 <trkpt lat="47.280087" lon="12.499491">
 <ele>787.53</ele>
 <time>2010-07-08T11:54:54Z</time>
 </trkpt>
 <trkpt lat="47.280018" lon="12.499933">
 <ele>787.24</ele>
 <time>2010-07-08T11:54:59Z</time>
 </trkpt>
 <trkpt lat="47.280106" lon="12.500126">
 <ele>787.39</ele>
 <time>2010-07-08T11:55:02Z</time>
 </trkpt>
 <trkpt lat="47.280148" lon="12.500177">
 <ele>787.57</ele>
 <time>2010-07-08T11:55:03Z</time>
 </trkpt>
 <trkpt lat="47.280338" lon="12.500328">
 <ele>788.39</ele>
 <time>2010-07-08T11:55:07Z</time>
 </trkpt>
 <trkpt lat="47.280491" lon="12.500556">
 <ele>788.28</ele>
 <time>2010-07-08T11:55:11Z</time>
 </trkpt>
 <trkpt lat="47.280518" lon="12.500628">
 <ele>788.30</ele>
 <time>2010-07-08T11:55:12Z</time>
 </trkpt>
 <trkpt lat="47.280682" lon="12.501232">
 <ele>788.23</ele>
 <time>2010-07-08T11:55:20Z</time>
 </trkpt>
 <trkpt lat="47.280956" lon="12.502047">
 <ele>787.96</ele>
 <time>2010-07-08T11:55:31Z</time>
 </trkpt>
 <trkpt lat="47.281170" lon="12.502626">
 <ele>788.29</ele>
 <time>2010-07-08T11:55:39Z</time>
 </trkpt>
 <trkpt lat="47.281208" lon="12.502985">
 <ele>788.75</ele>
 <time>2010-07-08T11:55:44Z</time>
 </trkpt>
 <trkpt lat="47.281136" lon="12.503877">
 <ele>788.69</ele>
 <time>2010-07-08T11:55:55Z</time>
 </trkpt>
 <trkpt lat="47.281075" lon="12.504711">
 <ele>787.76</ele>
 <time>2010-07-08T11:56:05Z</time>
 </trkpt>
 <trkpt lat="47.281033" lon="12.505353">
 <ele>788.23</ele>
 <time>2010-07-08T11:56:13Z</time>
 </trkpt>
 <trkpt lat="47.280968" lon="12.505992">
 <ele>788.66</ele>
 <time>2010-07-08T11:56:21Z</time>
 </trkpt>
 <trkpt lat="47.280895" lon="12.506564">
 <ele>788.13</ele>
 <time>2010-07-08T11:56:28Z</time>
 </trkpt>
 <trkpt lat="47.280762" lon="12.507616">
 <ele>788.07</ele>
 <time>2010-07-08T11:56:41Z</time>
 </trkpt>
 <trkpt lat="47.280666" lon="12.508432">
 <ele>787.86</ele>
 <time>2010-07-08T11:56:51Z</time>
 </trkpt>
 <trkpt lat="47.280636" lon="12.509167">
 <ele>787.95</ele>
 <time>2010-07-08T11:57:00Z</time>
 </trkpt>
 <trkpt lat="47.280609" lon="12.509896">
 <ele>788.19</ele>
 <time>2010-07-08T11:57:09Z</time>
 </trkpt>
 <trkpt lat="47.280602" lon="12.510716">
 <ele>788.08</ele>
 <time>2010-07-08T11:57:19Z</time>
 </trkpt>
 <trkpt lat="47.280598" lon="12.511324">
 <ele>788.02</ele>
 <time>2010-07-08T11:57:27Z</time>
 </trkpt>
 <trkpt lat="47.280590" lon="12.511960">
 <ele>787.10</ele>
 <time>2010-07-08T11:57:35Z</time>
 </trkpt>
 <trkpt lat="47.280586" lon="12.512486">
 <ele>787.31</ele>
 <time>2010-07-08T11:57:42Z</time>
 </trkpt>
 <trkpt lat="47.280598" lon="12.512937">
 <ele>787.71</ele>
 <time>2010-07-08T11:57:49Z</time>
 </trkpt>
 <trkpt lat="47.280628" lon="12.513299">
 <ele>787.37</ele>
 <time>2010-07-08T11:57:54Z</time>
 </trkpt>
 <trkpt lat="47.280788" lon="12.513989">
 <ele>786.72</ele>
 <time>2010-07-08T11:58:03Z</time>
 </trkpt>
 <trkpt lat="47.280842" lon="12.514317">
 <ele>786.22</ele>
 <time>2010-07-08T11:58:07Z</time>
 </trkpt>
 <trkpt lat="47.280777" lon="12.515231">
 <ele>786.40</ele>
 <time>2010-07-08T11:58:18Z</time>
 </trkpt>
 <trkpt lat="47.280762" lon="12.515764">
 <ele>787.20</ele>
 <time>2010-07-08T11:58:25Z</time>
 </trkpt>
 <trkpt lat="47.280758" lon="12.516153">
 <ele>786.28</ele>
 <time>2010-07-08T11:58:31Z</time>
 </trkpt>
 <trkpt lat="47.280777" lon="12.516736">
 <ele>786.36</ele>
 <time>2010-07-08T11:58:39Z</time>
 </trkpt>
 <trkpt lat="47.280823" lon="12.517429">
 <ele>786.24</ele>
 <time>2010-07-08T11:58:48Z</time>
 </trkpt>
 <trkpt lat="47.280811" lon="12.518231">
 <ele>786.09</ele>
 <time>2010-07-08T11:58:58Z</time>
 </trkpt>
 <trkpt lat="47.280766" lon="12.518885">
 <ele>786.32</ele>
 <time>2010-07-08T11:59:06Z</time>
 </trkpt>
 <trkpt lat="47.280685" lon="12.519688">
 <ele>786.66</ele>
 <time>2010-07-08T11:59:16Z</time>
 </trkpt>
 <trkpt lat="47.280678" lon="12.519852">
 <ele>786.57</ele>
 <time>2010-07-08T11:59:18Z</time>
 </trkpt>
 <trkpt lat="47.280704" lon="12.520494">
 <ele>786.76</ele>
 <time>2010-07-08T11:59:26Z</time>
 </trkpt>
 <trkpt lat="47.280617" lon="12.521389">
 <ele>786.53</ele>
 <time>2010-07-08T11:59:37Z</time>
 </trkpt>
 <trkpt lat="47.280579" lon="12.522079">
 <ele>786.47</ele>
 <time>2010-07-08T11:59:46Z</time>
 </trkpt>
 <trkpt lat="47.280560" lon="12.522518">
 <ele>786.71</ele>
 <time>2010-07-08T11:59:53Z</time>
 </trkpt>
 <trkpt lat="47.280548" lon="12.522776">
 <ele>787.00</ele>
 <time>2010-07-08T11:59:58Z</time>
 </trkpt>
 <trkpt lat="47.280598" lon="12.522925">
 <ele>787.58</ele>
 <time>2010-07-08T12:00:04Z</time>
 </trkpt>
 <trkpt lat="47.280609" lon="12.522955">
 <ele>787.26</ele>
 <time>2010-07-08T12:00:06Z</time>
 </trkpt>
 <trkpt lat="47.280842" lon="12.523260">
 <ele>786.14</ele>
 <time>2010-07-08T12:00:13Z</time>
 </trkpt>
 <trkpt lat="47.281105" lon="12.523654">
 <ele>785.67</ele>
 <time>2010-07-08T12:00:20Z</time>
 </trkpt>
 <trkpt lat="47.281319" lon="12.524238">
 <ele>785.23</ele>
 <time>2010-07-08T12:00:28Z</time>
 </trkpt>
 <trkpt lat="47.281490" lon="12.524745">
 <ele>785.50</ele>
 <time>2010-07-08T12:00:35Z</time>
 </trkpt>
 <trkpt lat="47.281879" lon="12.525566">
 <ele>785.14</ele>
 <time>2010-07-08T12:00:47Z</time>
 </trkpt>
 <trkpt lat="47.282219" lon="12.526253">
 <ele>785.31</ele>
 <time>2010-07-08T12:00:57Z</time>
 </trkpt>
 <trkpt lat="47.282501" lon="12.526830">
 <ele>786.12</ele>
 <time>2010-07-08T12:01:06Z</time>
 </trkpt>
 <trkpt lat="47.282707" lon="12.527036">
 <ele>786.24</ele>
 <time>2010-07-08T12:01:11Z</time>
 </trkpt>
 <trkpt lat="47.283077" lon="12.527100">
 <ele>787.63</ele>
 <time>2010-07-08T12:01:19Z</time>
 </trkpt>
 <trkpt lat="47.283131" lon="12.527101">
 <ele>788.34</ele>
 <time>2010-07-08T12:01:22Z</time>
 </trkpt>
 <trkpt lat="47.283131" lon="12.527101">
 <ele>788.53</ele>
 <time>2010-07-08T12:01:23Z</time>
 </trkpt>
 <trkpt lat="47.283211" lon="12.527103">
 <ele>788.30</ele>
 <time>2010-07-08T12:01:30Z</time>
 </trkpt>
 <trkpt lat="47.283382" lon="12.527108">
 <ele>788.54</ele>
 <time>2010-07-08T12:01:36Z</time>
 </trkpt>
 <trkpt lat="47.283569" lon="12.527113">
 <ele>787.73</ele>
 <time>2010-07-08T12:01:42Z</time>
 </trkpt>
 <trkpt lat="47.283985" lon="12.527159">
 <ele>786.18</ele>
 <time>2010-07-08T12:01:51Z</time>
 </trkpt>
 <trkpt lat="47.284279" lon="12.527272">
 <ele>785.62</ele>
 <time>2010-07-08T12:01:58Z</time>
 </trkpt>
 <trkpt lat="47.284527" lon="12.527400">
 <ele>785.65</ele>
 <time>2010-07-08T12:02:04Z</time>
 </trkpt>
 <trkpt lat="47.284595" lon="12.527436">
 <ele>785.98</ele>
 <time>2010-07-08T12:02:06Z</time>
 </trkpt>
 <trkpt lat="47.284744" lon="12.527506">
 <ele>786.04</ele>
 <time>2010-07-08T12:02:10Z</time>
 </trkpt>
 <trkpt lat="47.285065" lon="12.527544">
 <ele>786.35</ele>
 <time>2010-07-08T12:02:18Z</time>
 </trkpt>
 <trkpt lat="47.285412" lon="12.527476">
 <ele>786.51</ele>
 <time>2010-07-08T12:02:27Z</time>
 </trkpt>
 <trkpt lat="47.285740" lon="12.527487">
 <ele>787.62</ele>
 <time>2010-07-08T12:02:36Z</time>
 </trkpt>
 <trkpt lat="47.286045" lon="12.527533">
 <ele>788.66</ele>
 <time>2010-07-08T12:02:44Z</time>
 </trkpt>
 <trkpt lat="47.286316" lon="12.527612">
 <ele>790.07</ele>
 <time>2010-07-08T12:02:52Z</time>
 </trkpt>
 <trkpt lat="47.286545" lon="12.527708">
 <ele>791.78</ele>
 <time>2010-07-08T12:03:00Z</time>
 </trkpt>
 <trkpt lat="47.286667" lon="12.527969">
 <ele>792.26</ele>
 <time>2010-07-08T12:03:05Z</time>
 </trkpt>
 <trkpt lat="47.286633" lon="12.528375">
 <ele>792.00</ele>
 <time>2010-07-08T12:03:13Z</time>
 </trkpt>
 <trkpt lat="47.286575" lon="12.528988">
 <ele>792.71</ele>
 <time>2010-07-08T12:03:23Z</time>
 </trkpt>
 <trkpt lat="47.286526" lon="12.529739">
 <ele>792.40</ele>
 <time>2010-07-08T12:03:34Z</time>
 </trkpt>
 <trkpt lat="47.286499" lon="12.530487">
 <ele>792.77</ele>
 <time>2010-07-08T12:03:44Z</time>
 </trkpt>
 <trkpt lat="47.286518" lon="12.531359">
 <ele>792.40</ele>
 <time>2010-07-08T12:03:55Z</time>
 </trkpt>
 <trkpt lat="47.286587" lon="12.532253">
 <ele>791.88</ele>
 <time>2010-07-08T12:04:06Z</time>
 </trkpt>
 <trkpt lat="47.286694" lon="12.533059">
 <ele>792.66</ele>
 <time>2010-07-08T12:04:16Z</time>
 </trkpt>
 <trkpt lat="47.286823" lon="12.533874">
 <ele>792.87</ele>
 <time>2010-07-08T12:04:26Z</time>
 </trkpt>
 <trkpt lat="47.286961" lon="12.534664">
 <ele>793.23</ele>
 <time>2010-07-08T12:04:36Z</time>
 </trkpt>
 <trkpt lat="47.287090" lon="12.535380">
 <ele>793.87</ele>
 <time>2010-07-08T12:04:45Z</time>
 </trkpt>
 <trkpt lat="47.287212" lon="12.536436">
 <ele>794.69</ele>
 <time>2010-07-08T12:04:58Z</time>
 </trkpt>
 <trkpt lat="47.287239" lon="12.537350">
 <ele>795.47</ele>
 <time>2010-07-08T12:05:09Z</time>
 </trkpt>
 <trkpt lat="47.287197" lon="12.538374">
 <ele>796.01</ele>
 <time>2010-07-08T12:05:21Z</time>
 </trkpt>
 <trkpt lat="47.287106" lon="12.539476">
 <ele>795.43</ele>
 <time>2010-07-08T12:05:34Z</time>
 </trkpt>
 <trkpt lat="47.286968" lon="12.540402">
 <ele>795.70</ele>
 <time>2010-07-08T12:05:45Z</time>
 </trkpt>
 <trkpt lat="47.286839" lon="12.541158">
 <ele>795.10</ele>
 <time>2010-07-08T12:05:54Z</time>
 </trkpt>
 <trkpt lat="47.286736" lon="12.541437">
 <ele>795.05</ele>
 <time>2010-07-08T12:05:58Z</time>
 </trkpt>
 <trkpt lat="47.286655" lon="12.541660">
 <ele>795.10</ele>
 <time>2010-07-08T12:06:02Z</time>
 </trkpt>
 <trkpt lat="47.286572" lon="12.541889">
 <ele>794.88</ele>
 <time>2010-07-08T12:06:07Z</time>
 </trkpt>
 <trkpt lat="47.286453" lon="12.542201">
 <ele>795.36</ele>
 <time>2010-07-08T12:06:12Z</time>
 </trkpt>
 <trkpt lat="47.286301" lon="12.542616">
 <ele>796.38</ele>
 <time>2010-07-08T12:06:20Z</time>
 </trkpt>
 <trkpt lat="47.286175" lon="12.542964">
 <ele>796.74</ele>
 <time>2010-07-08T12:06:27Z</time>
 </trkpt>
 <trkpt lat="47.286106" lon="12.543148">
 <ele>797.48</ele>
 <time>2010-07-08T12:06:31Z</time>
 </trkpt>
 <trkpt lat="47.286018" lon="12.543390">
 <ele>798.90</ele>
 <time>2010-07-08T12:06:37Z</time>
 </trkpt>
 <trkpt lat="47.286896" lon="12.544288">
 <ele>799.17</ele>
 <time>2010-07-08T12:06:42Z</time>
 </trkpt>
 <trkpt lat="47.286789" lon="12.544606">
 <ele>796.09</ele>
 <time>2010-07-08T12:06:47Z</time>
 </trkpt>
 <trkpt lat="47.286678" lon="12.545342">
 <ele>791.08</ele>
 <time>2010-07-08T12:06:53Z</time>
 </trkpt>
 <trkpt lat="47.286469" lon="12.546558">
 <ele>785.23</ele>
 <time>2010-07-08T12:07:02Z</time>
 </trkpt>
 <trkpt lat="47.286392" lon="12.547264">
 <ele>783.10</ele>
 <time>2010-07-08T12:07:07Z</time>
 </trkpt>
 <trkpt lat="47.286404" lon="12.548246">
 <ele>781.20</ele>
 <time>2010-07-08T12:07:14Z</time>
 </trkpt>
 <trkpt lat="47.286438" lon="12.549266">
 <ele>780.61</ele>
 <time>2010-07-08T12:07:22Z</time>
 </trkpt>
 <trkpt lat="47.286434" lon="12.549941">
 <ele>781.19</ele>
 <time>2010-07-08T12:07:28Z</time>
 </trkpt>
 <trkpt lat="47.286377" lon="12.550755">
 <ele>781.23</ele>
 <time>2010-07-08T12:07:36Z</time>
 </trkpt>
 <trkpt lat="47.286278" lon="12.551593">
 <ele>781.80</ele>
 <time>2010-07-08T12:07:45Z</time>
 </trkpt>
 <trkpt lat="47.286240" lon="12.552347">
 <ele>783.39</ele>
 <time>2010-07-08T12:07:54Z</time>
 </trkpt>
 <trkpt lat="47.286205" lon="12.553063">
 <ele>785.03</ele>
 <time>2010-07-08T12:08:04Z</time>
 </trkpt>
 <trkpt lat="47.286182" lon="12.553812">
 <ele>786.96</ele>
 <time>2010-07-08T12:08:15Z</time>
 </trkpt>
 <trkpt lat="47.286163" lon="12.554467">
 <ele>788.19</ele>
 <time>2010-07-08T12:08:25Z</time>
 </trkpt>
 <trkpt lat="47.286163" lon="12.555039">
 <ele>789.32</ele>
 <time>2010-07-08T12:08:34Z</time>
 </trkpt>
 <trkpt lat="47.286163" lon="12.555538">
 <ele>791.12</ele>
 <time>2010-07-08T12:08:42Z</time>
 </trkpt>
 <trkpt lat="47.286137" lon="12.556024">
 <ele>792.65</ele>
 <time>2010-07-08T12:08:50Z</time>
 </trkpt>
 <trkpt lat="47.286064" lon="12.556570">
 <ele>793.23</ele>
 <time>2010-07-08T12:08:59Z</time>
 </trkpt>
 <trkpt lat="47.285984" lon="12.556947">
 <ele>793.18</ele>
 <time>2010-07-08T12:09:05Z</time>
 </trkpt>
 <trkpt lat="47.285786" lon="12.557342">
 <ele>792.22</ele>
 <time>2010-07-08T12:09:12Z</time>
 </trkpt>
 <trkpt lat="47.285538" lon="12.557792">
 <ele>791.40</ele>
 <time>2010-07-08T12:09:19Z</time>
 </trkpt>
 <trkpt lat="47.285221" lon="12.558370">
 <ele>790.41</ele>
 <time>2010-07-08T12:09:27Z</time>
 </trkpt>
 <trkpt lat="47.284893" lon="12.558966">
 <ele>789.09</ele>
 <time>2010-07-08T12:09:35Z</time>
 </trkpt>
 <trkpt lat="47.284718" lon="12.559541">
 <ele>788.86</ele>
 <time>2010-07-08T12:09:42Z</time>
 </trkpt>
 <trkpt lat="47.284637" lon="12.560297">
 <ele>789.61</ele>
 <time>2010-07-08T12:09:51Z</time>
 </trkpt>
 <trkpt lat="47.284618" lon="12.560869">
 <ele>790.40</ele>
 <time>2010-07-08T12:09:58Z</time>
 </trkpt>
 <trkpt lat="47.284618" lon="12.561406">
 <ele>790.81</ele>
 <time>2010-07-08T12:10:05Z</time>
 </trkpt>
 <trkpt lat="47.284618" lon="12.561764">
 <ele>792.55</ele>
 <time>2010-07-08T12:10:10Z</time>
 </trkpt>
 <trkpt lat="47.284580" lon="12.561976">
 <ele>794.19</ele>
 <time>2010-07-08T12:10:15Z</time>
 </trkpt>
 <trkpt lat="47.284504" lon="12.562256">
 <ele>794.06</ele>
 <time>2010-07-08T12:10:22Z</time>
 </trkpt>
 <trkpt lat="47.284470" lon="12.562373">
 <ele>791.73</ele>
 <time>2010-07-08T12:10:28Z</time>
 </trkpt>
 <trkpt lat="47.284416" lon="12.563149">
 <ele>789.67</ele>
 <time>2010-07-08T12:10:33Z</time>
 </trkpt>
 <trkpt lat="47.284348" lon="12.563798">
 <ele>787.68</ele>
 <time>2010-07-08T12:10:39Z</time>
 </trkpt>
 <trkpt lat="47.284176" lon="12.564907">
 <ele>785.91</ele>
 <time>2010-07-08T12:10:49Z</time>
 </trkpt>
 <trkpt lat="47.284077" lon="12.565802">
 <ele>785.16</ele>
 <time>2010-07-08T12:10:57Z</time>
 </trkpt>
 <trkpt lat="47.284088" lon="12.566675">
 <ele>784.82</ele>
 <time>2010-07-08T12:11:05Z</time>
 </trkpt>
 <trkpt lat="47.284111" lon="12.567310">
 <ele>784.43</ele>
 <time>2010-07-08T12:11:11Z</time>
 </trkpt>
 <trkpt lat="47.284130" lon="12.568322">
 <ele>784.67</ele>
 <time>2010-07-08T12:11:21Z</time>
 </trkpt>
 <trkpt lat="47.284149" lon="12.569206">
 <ele>784.32</ele>
 <time>2010-07-08T12:11:30Z</time>
 </trkpt>
 <trkpt lat="47.284164" lon="12.569904">
 <ele>783.74</ele>
 <time>2010-07-08T12:11:37Z</time>
 </trkpt>
 <trkpt lat="47.284172" lon="12.570411">
 <ele>782.90</ele>
 <time>2010-07-08T12:11:42Z</time>
 </trkpt>
 <trkpt lat="47.284210" lon="12.570770">
 <ele>782.68</ele>
 <time>2010-07-08T12:11:46Z</time>
 </trkpt>
 <trkpt lat="47.284348" lon="12.571431">
 <ele>783.72</ele>
 <time>2010-07-08T12:11:53Z</time>
 </trkpt>
 <trkpt lat="47.284412" lon="12.571865">
 <ele>785.49</ele>
 <time>2010-07-08T12:11:58Z</time>
 </trkpt>
 <trkpt lat="47.284424" lon="12.571944">
 <ele>785.97</ele>
 <time>2010-07-08T12:11:59Z</time>
 </trkpt>
 <trkpt lat="47.284309" lon="12.572097">
 <ele>787.09</ele>
 <time>2010-07-08T12:12:03Z</time>
 </trkpt>
 <trkpt lat="47.284081" lon="12.572187">
 <ele>786.04</ele>
 <time>2010-07-08T12:12:07Z</time>
 </trkpt>
 <trkpt lat="47.283604" lon="12.572216">
 <ele>783.66</ele>
 <time>2010-07-08T12:12:14Z</time>
 </trkpt>
 <trkpt lat="47.283028" lon="12.572152">
 <ele>780.92</ele>
 <time>2010-07-08T12:12:21Z</time>
 </trkpt>
 <trkpt lat="47.282619" lon="12.572133">
 <ele>779.05</ele>
 <time>2010-07-08T12:12:26Z</time>
 </trkpt>
 <trkpt lat="47.282238" lon="12.572243">
 <ele>776.74</ele>
 <time>2010-07-08T12:12:31Z</time>
 </trkpt>
 <trkpt lat="47.282211" lon="12.572261">
 <ele>776.50</ele>
 <time>2010-07-08T12:12:32Z</time>
 </trkpt>
 <trkpt lat="47.281982" lon="12.572265">
 <ele>778.06</ele>
 <time>2010-07-08T12:12:35Z</time>
 </trkpt>
 <trkpt lat="47.281982" lon="12.572265">
 <ele>779.34</ele>
 <time>2010-07-08T12:12:40Z</time>
 </trkpt>
 <trkpt lat="47.281708" lon="12.571731">
 <ele>778.66</ele>
 <time>2010-07-08T12:12:45Z</time>
 </trkpt>
 <trkpt lat="47.281429" lon="12.571423">
 <ele>778.30</ele>
 <time>2010-07-08T12:12:51Z</time>
 </trkpt>
 <trkpt lat="47.280807" lon="12.570735">
 <ele>778.21</ele>
 <time>2010-07-08T12:13:03Z</time>
 </trkpt>
 <trkpt lat="47.280376" lon="12.570295">
 <ele>778.93</ele>
 <time>2010-07-08T12:13:11Z</time>
 </trkpt>
 <trkpt lat="47.280048" lon="12.570024">
 <ele>779.17</ele>
 <time>2010-07-08T12:13:17Z</time>
 </trkpt>
 <trkpt lat="47.279755" lon="12.569889">
 <ele>779.93</ele>
 <time>2010-07-08T12:13:22Z</time>
 </trkpt>
 <trkpt lat="47.279579" lon="12.569819">
 <ele>779.72</ele>
 <time>2010-07-08T12:13:26Z</time>
 </trkpt>
 <trkpt lat="47.279427" lon="12.569991">
 <ele>779.50</ele>
 <time>2010-07-08T12:13:28Z</time>
 </trkpt>
 <trkpt lat="47.279343" lon="12.570650">
 <ele>777.72</ele>
 <time>2010-07-08T12:13:36Z</time>
 </trkpt>
 <trkpt lat="47.279343" lon="12.571653">
 <ele>777.34</ele>
 <time>2010-07-08T12:13:47Z</time>
 </trkpt>
 <trkpt lat="47.279369" lon="12.572459">
 <ele>777.34</ele>
 <time>2010-07-08T12:13:56Z</time>
 </trkpt>
 <trkpt lat="47.279510" lon="12.573599">
 <ele>777.32</ele>
 <time>2010-07-08T12:14:09Z</time>
 </trkpt>
 <trkpt lat="47.279613" lon="12.574380">
 <ele>777.13</ele>
 <time>2010-07-08T12:14:18Z</time>
 </trkpt>
 <trkpt lat="47.279774" lon="12.575311">
 <ele>776.83</ele>
 <time>2010-07-08T12:14:29Z</time>
 </trkpt>
 <trkpt lat="47.279915" lon="12.576134">
 <ele>776.30</ele>
 <time>2010-07-08T12:14:39Z</time>
 </trkpt>
 <trkpt lat="47.279942" lon="12.576299">
 <ele>776.28</ele>
 <time>2010-07-08T12:14:48Z</time>
 </trkpt>
 <trkpt lat="47.280095" lon="12.577603">
 <ele>775.89</ele>
 <time>2010-07-08T12:14:57Z</time>
 </trkpt>
 <trkpt lat="47.280167" lon="12.578083">
 <ele>776.33</ele>
 <time>2010-07-08T12:15:03Z</time>
 </trkpt>
 <trkpt lat="47.280087" lon="12.578703">
 <ele>776.56</ele>
 <time>2010-07-08T12:15:11Z</time>
 </trkpt>
 <trkpt lat="47.280265" lon="12.579265">
 <ele>776.30</ele>
 <time>2010-07-08T12:15:19Z</time>
 </trkpt>
 <trkpt lat="47.280519" lon="12.580113">
 <ele>775.96</ele>
 <time>2010-07-08T12:15:26Z</time>
 </trkpt>
 <trkpt lat="47.280531" lon="12.580674">
 <ele>775.84</ele>
 <time>2010-07-08T12:15:35Z</time>
 </trkpt>
 <trkpt lat="47.280681" lon="12.581395">
 <ele>775.73</ele>
 <time>2010-07-08T12:15:45Z</time>
 </trkpt>
 <trkpt lat="47.280747" lon="12.581871">
 <ele>775.38</ele>
 <time>2010-07-08T12:15:48Z</time>
 </trkpt>
 <trkpt lat="47.280823" lon="12.582728">
 <ele>775.49</ele>
 <time>2010-07-08T12:15:59Z</time>
 </trkpt>
 <trkpt lat="47.280881" lon="12.583419">
 <ele>775.24</ele>
 <time>2010-07-08T12:16:08Z</time>
 </trkpt>
 <trkpt lat="47.280949" lon="12.583961">
 <ele>774.91</ele>
 <time>2010-07-08T12:16:15Z</time>
 </trkpt>
 <trkpt lat="47.281011" lon="12.584768">
 <ele>775.45</ele>
 <time>2010-07-08T12:16:25Z</time>
 </trkpt>
 <trkpt lat="47.281021" lon="12.585483">
 <ele>775.05</ele>
 <time>2010-07-08T12:16:34Z</time>
 </trkpt>
 <trkpt lat="47.281036" lon="12.585974">
 <ele>775.10</ele>
 <time>2010-07-08T12:16:43Z</time>
 </trkpt>
 <trkpt lat="47.281008" lon="12.586207">
 <ele>774.98</ele>
 <time>2010-07-08T12:16:51Z</time>
 </trkpt>
 <trkpt lat="47.280979" lon="12.586456">
 <ele>774.95</ele>
 <time>2010-07-08T12:16:52Z</time>
 </trkpt>
 <trkpt lat="47.280537" lon="12.587752">
 <ele>774.74</ele>
 <time>2010-07-08T12:17:03Z</time>
 </trkpt>
 <trkpt lat="47.280281" lon="12.588422">
 <ele>774.78</ele>
 <time>2010-07-08T12:17:12Z</time>
 </trkpt>
 <trkpt lat="47.280132" lon="12.588967">
 <ele>774.61</ele>
 <time>2010-07-08T12:17:19Z</time>
 </trkpt>
 <trkpt lat="47.280010" lon="12.589695">
 <ele>774.67</ele>
 <time>2010-07-08T12:17:28Z</time>
 </trkpt>
 <trkpt lat="47.279949" lon="12.590429">
 <ele>774.60</ele>
 <time>2010-07-08T12:17:37Z</time>
 </trkpt>
 <trkpt lat="47.279907" lon="12.591349">
 <ele>774.15</ele>
 <time>2010-07-08T12:17:48Z</time>
 </trkpt>
 <trkpt lat="47.279888" lon="12.592368">
 <ele>774.13</ele>
 <time>2010-07-08T12:18:00Z</time>
 </trkpt>
 <trkpt lat="47.279888" lon="12.593218">
 <ele>774.31</ele>
 <time>2010-07-08T12:18:10Z</time>
 </trkpt>
 <trkpt lat="47.279881" lon="12.594150">
 <ele>774.21</ele>
 <time>2010-07-08T12:18:21Z</time>
 </trkpt>
 <trkpt lat="47.279686" lon="12.595868">
 <ele>773.52</ele>
 <time>2010-07-08T12:18:34Z</time>
 </trkpt>
 <trkpt lat="47.279686" lon="12.595868">
 <ele>773.55</ele>
 <time>2010-07-08T12:18:36Z</time>
 </trkpt>
 <trkpt lat="47.279686" lon="12.595868">
 <ele>774.14</ele>
 <time>2010-07-08T12:18:43Z</time>
 </trkpt>
 <trkpt lat="47.279690" lon="12.596406">
 <ele>774.29</ele>
 <time>2010-07-08T12:18:50Z</time>
 </trkpt>
 <trkpt lat="47.279697" lon="12.597244">
 <ele>773.82</ele>
 <time>2010-07-08T12:19:00Z</time>
 </trkpt>
 <trkpt lat="47.279709" lon="12.598175">
 <ele>773.51</ele>
 <time>2010-07-08T12:19:11Z</time>
 </trkpt>
 <trkpt lat="47.279716" lon="12.598841">
 <ele>773.52</ele>
 <time>2010-07-08T12:19:19Z</time>
 </trkpt>
 <trkpt lat="47.279724" lon="12.599692">
 <ele>773.14</ele>
 <time>2010-07-08T12:19:29Z</time>
 </trkpt>
 <trkpt lat="47.279736" lon="12.600535">
 <ele>773.02</ele>
 <time>2010-07-08T12:19:39Z</time>
 </trkpt>
 <trkpt lat="47.279739" lon="12.601196">
 <ele>773.14</ele>
 <time>2010-07-08T12:19:47Z</time>
 </trkpt>
 <trkpt lat="47.279751" lon="12.601960">
 <ele>772.57</ele>
 <time>2010-07-08T12:19:56Z</time>
 </trkpt>
 <trkpt lat="47.279835" lon="12.602871">
 <ele>772.15</ele>
 <time>2010-07-08T12:20:07Z</time>
 </trkpt>
 <trkpt lat="47.279900" lon="12.603528">
 <ele>772.63</ele>
 <time>2010-07-08T12:20:15Z</time>
 </trkpt>
 <trkpt lat="47.279984" lon="12.604177">
 <ele>772.19</ele>
 <time>2010-07-08T12:20:23Z</time>
 </trkpt>
 <trkpt lat="47.280125" lon="12.604887">
 <ele>772.30</ele>
 <time>2010-07-08T12:20:32Z</time>
 </trkpt>
 <trkpt lat="47.280247" lon="12.605519">
 <ele>771.75</ele>
 <time>2010-07-08T12:20:40Z</time>
 </trkpt>
 <trkpt lat="47.280350" lon="12.606147">
 <ele>771.99</ele>
 <time>2010-07-08T12:20:48Z</time>
 </trkpt>
 <trkpt lat="47.280357" lon="12.606798">
 <ele>772.23</ele>
 <time>2010-07-08T12:20:56Z</time>
 </trkpt>
 <trkpt lat="47.280361" lon="12.607291">
 <ele>771.88</ele>
 <time>2010-07-08T12:21:02Z</time>
 </trkpt>
 <trkpt lat="47.280373" lon="12.608047">
 <ele>771.66</ele>
 <time>2010-07-08T12:21:11Z</time>
 </trkpt>
 <trkpt lat="47.280380" lon="12.609051">
 <ele>771.27</ele>
 <time>2010-07-08T12:21:23Z</time>
 </trkpt>
 <trkpt lat="47.280388" lon="12.609713">
 <ele>771.16</ele>
 <time>2010-07-08T12:21:31Z</time>
 </trkpt>
 <trkpt lat="47.280396" lon="12.610395">
 <ele>771.06</ele>
 <time>2010-07-08T12:21:39Z</time>
 </trkpt>
 <trkpt lat="47.280403" lon="12.611152">
 <ele>771.41</ele>
 <time>2010-07-08T12:21:48Z</time>
 </trkpt>
 <trkpt lat="47.280411" lon="12.611832">
 <ele>771.13</ele>
 <time>2010-07-08T12:21:56Z</time>
 </trkpt>
 <trkpt lat="47.280357" lon="12.612220">
 <ele>770.97</ele>
 <time>2010-07-08T12:22:00Z</time>
 </trkpt>
 <trkpt lat="47.280220" lon="12.612430">
 <ele>769.74</ele>
 <time>2010-07-08T12:22:03Z</time>
 </trkpt>
 <trkpt lat="47.279823" lon="12.613038">
 <ele>769.01</ele>
 <time>2010-07-08T12:22:12Z</time>
 </trkpt>
 <trkpt lat="47.279438" lon="12.613625">
 <ele>769.10</ele>
 <time>2010-07-08T12:22:21Z</time>
 </trkpt>
 <trkpt lat="47.279163" lon="12.614083">
 <ele>769.04</ele>
 <time>2010-07-08T12:22:28Z</time>
 </trkpt>
 <trkpt lat="47.278999" lon="12.614560">
 <ele>768.90</ele>
 <time>2010-07-08T12:22:34Z</time>
 </trkpt>
 <trkpt lat="47.278877" lon="12.615048">
 <ele>768.99</ele>
 <time>2010-07-08T12:22:40Z</time>
 </trkpt>
 <trkpt lat="47.278847" lon="12.615651">
 <ele>769.24</ele>
 <time>2010-07-08T12:22:47Z</time>
 </trkpt>
 <trkpt lat="47.278889" lon="12.616281">
 <ele>768.98</ele>
 <time>2010-07-08T12:22:54Z</time>
 </trkpt>
 <trkpt lat="47.278957" lon="12.617240">
 <ele>768.80</ele>
 <time>2010-07-08T12:23:05Z</time>
 </trkpt>
 <trkpt lat="47.279037" lon="12.618020">
 <ele>769.23</ele>
 <time>2010-07-08T12:23:14Z</time>
 </trkpt>
 <trkpt lat="47.279114" lon="12.618588">
 <ele>769.95</ele>
 <time>2010-07-08T12:23:21Z</time>
 </trkpt>
 <trkpt lat="47.279121" lon="12.618661">
 <ele>769.94</ele>
 <time>2010-07-08T12:23:22Z</time>
 </trkpt>
 <trkpt lat="47.279106" lon="12.619179">
 <ele>770.37</ele>
 <time>2010-07-08T12:23:29Z</time>
 </trkpt>
 <trkpt lat="47.279034" lon="12.619742">
 <ele>770.69</ele>
 <time>2010-07-08T12:23:37Z</time>
 </trkpt>
 <trkpt lat="47.278950" lon="12.620376">
 <ele>769.83</ele>
 <time>2010-07-08T12:23:45Z</time>
 </trkpt>
 <trkpt lat="47.278854" lon="12.621097">
 <ele>770.03</ele>
 <time>2010-07-08T12:23:54Z</time>
 </trkpt>
 <trkpt lat="47.278877" lon="12.621381">
 <ele>770.16</ele>
 <time>2010-07-08T12:23:58Z</time>
 </trkpt>
 <trkpt lat="47.278908" lon="12.621381">
 <ele>771.02</ele>
 <time>2010-07-08T12:24:00Z</time>
 </trkpt>
 <trkpt lat="47.278934" lon="12.621381">
 <ele>771.48</ele>
 <time>2010-07-08T12:24:06Z</time>
 </trkpt>
 <trkpt lat="47.279236" lon="12.621403">
 <ele>771.01</ele>
 <time>2010-07-08T12:24:11Z</time>
 </trkpt>
 <trkpt lat="47.279675" lon="12.621409">
 <ele>770.30</ele>
 <time>2010-07-08T12:24:19Z</time>
 </trkpt>
 <trkpt lat="47.280113" lon="12.621416">
 <ele>771.45</ele>
 <time>2010-07-08T12:24:28Z</time>
 </trkpt>
 <trkpt lat="47.280502" lon="12.621421">
 <ele>771.89</ele>
 <time>2010-07-08T12:24:36Z</time>
 </trkpt>
 <trkpt lat="47.280704" lon="12.621428">
 <ele>772.06</ele>
 <time>2010-07-08T12:24:40Z</time>
 </trkpt>
 <trkpt lat="47.280972" lon="12.621575">
 <ele>772.32</ele>
 <time>2010-07-08T12:24:47Z</time>
 </trkpt>
 <trkpt lat="47.281414" lon="12.622098">
 <ele>773.31</ele>
 <time>2010-07-08T12:24:57Z</time>
 </trkpt>
 <trkpt lat="47.281666" lon="12.622400">
 <ele>773.90</ele>
 <time>2010-07-08T12:25:04Z</time>
 </trkpt>
 <trkpt lat="47.281788" lon="12.622562">
 <ele>774.40</ele>
 <time>2010-07-08T12:25:08Z</time>
 </trkpt>
 <trkpt lat="47.281727" lon="12.622666">
 <ele>774.06</ele>
 <time>2010-07-08T12:25:10Z</time>
 </trkpt>
 <trkpt lat="47.281536" lon="12.622991">
 <ele>770.89</ele>
 <time>2010-07-08T12:25:15Z</time>
 </trkpt>
 <trkpt lat="47.281441" lon="12.623319">
 <ele>769.79</ele>
 <time>2010-07-08T12:25:19Z</time>
 </trkpt>
 <trkpt lat="47.281548" lon="12.624019">
 <ele>770.17</ele>
 <time>2010-07-08T12:25:27Z</time>
 </trkpt>
 <trkpt lat="47.281719" lon="12.624727">
 <ele>770.50</ele>
 <time>2010-07-08T12:25:36Z</time>
 </trkpt>
 <trkpt lat="47.281780" lon="12.625026">
 <ele>770.94</ele>
 <time>2010-07-08T12:25:40Z</time>
 </trkpt>
 <trkpt lat="47.282036" lon="12.625331">
 <ele>771.84</ele>
 <time>2010-07-08T12:25:47Z</time>
 </trkpt>
 <trkpt lat="47.282192" lon="12.625494">
 <ele>772.39</ele>
 <time>2010-07-08T12:25:51Z</time>
 </trkpt>
 <trkpt lat="47.282368" lon="12.625662">
 <ele>772.94</ele>
 <time>2010-07-08T12:25:56Z</time>
 </trkpt>
 <trkpt lat="47.282345" lon="12.626038">
 <ele>772.28</ele>
 <time>2010-07-08T12:25:59Z</time>
 </trkpt>
 <trkpt lat="47.282345" lon="12.626120">
 <ele>772.26</ele>
 <time>2010-07-08T12:26:00Z</time>
 </trkpt>
 <trkpt lat="47.282192" lon="12.626460">
 <ele>773.29</ele>
 <time>2010-07-08T12:26:06Z</time>
 </trkpt>
 <trkpt lat="47.281994" lon="12.626877">
 <ele>771.65</ele>
 <time>2010-07-08T12:26:12Z</time>
 </trkpt>
 <trkpt lat="47.281734" lon="12.627431">
 <ele>770.86</ele>
 <time>2010-07-08T12:26:18Z</time>
 </trkpt>
 <trkpt lat="47.281548" lon="12.627854">
 <ele>769.58</ele>
 <time>2010-07-08T12:26:23Z</time>
 </trkpt>
 <trkpt lat="47.281414" lon="12.628108">
 <ele>769.35</ele>
 <time>2010-07-08T12:26:27Z</time>
 </trkpt>
 <trkpt lat="47.281460" lon="12.628236">
 <ele>770.16</ele>
 <time>2010-07-08T12:26:30Z</time>
 </trkpt>
 <trkpt lat="47.281544" lon="12.628413">
 <ele>770.28</ele>
 <time>2010-07-08T12:26:34Z</time>
 </trkpt>
 <trkpt lat="47.281662" lon="12.628809">
 <ele>769.40</ele>
 <time>2010-07-08T12:26:40Z</time>
 </trkpt>
 <trkpt lat="47.281975" lon="12.629210">
 <ele>768.56</ele>
 <time>2010-07-08T12:26:48Z</time>
 </trkpt>
 <trkpt lat="47.282177" lon="12.629806">
 <ele>767.99</ele>
 <time>2010-07-08T12:26:56Z</time>
 </trkpt>
 <trkpt lat="47.282330" lon="12.630604">
 <ele>767.01</ele>
 <time>2010-07-08T12:27:05Z</time>
 </trkpt>
 <trkpt lat="47.282429" lon="12.631292">
 <ele>766.91</ele>
 <time>2010-07-08T12:27:13Z</time>
 </trkpt>
 <trkpt lat="47.282379" lon="12.631878">
 <ele>767.62</ele>
 <time>2010-07-08T12:27:20Z</time>
 </trkpt>
 <trkpt lat="47.282330" lon="12.632417">
 <ele>768.09</ele>
 <time>2010-07-08T12:27:27Z</time>
 </trkpt>
 <trkpt lat="47.282242" lon="12.632465">
 <ele>768.72</ele>
 <time>2010-07-08T12:27:31Z</time>
 </trkpt>
 <trkpt lat="47.282215" lon="12.632454">
 <ele>768.72</ele>
 <time>2010-07-08T12:27:32Z</time>
 </trkpt>
 <trkpt lat="47.282043" lon="12.632389">
 <ele>769.21</ele>
 <time>2010-07-08T12:27:39Z</time>
 </trkpt>
 <trkpt lat="47.282043" lon="12.632389">
 <ele>769.75</ele>
 <time>2010-07-08T12:27:44Z</time>
 </trkpt>
 <trkpt lat="47.281628" lon="12.632496">
 <ele>768.68</ele>
 <time>2010-07-08T12:27:48Z</time>
 </trkpt>
 <trkpt lat="47.281563" lon="12.632940">
 <ele>767.22</ele>
 <time>2010-07-08T12:27:54Z</time>
 </trkpt>
 <trkpt lat="47.281418" lon="12.633777">
 <ele>767.50</ele>
 <time>2010-07-08T12:28:05Z</time>
 </trkpt>
 <trkpt lat="47.281307" lon="12.634566">
 <ele>767.08</ele>
 <time>2010-07-08T12:28:15Z</time>
 </trkpt>
 <trkpt lat="47.281265" lon="12.635322">
 <ele>767.50</ele>
 <time>2010-07-08T12:28:24Z</time>
 </trkpt>
 <trkpt lat="47.281307" lon="12.636251">
 <ele>766.92</ele>
 <time>2010-07-08T12:28:35Z</time>
 </trkpt>
 <trkpt lat="47.281427" lon="12.637302">
 <ele>766.42</ele>
 <time>2010-07-08T12:28:46Z</time>
 </trkpt>
 <trkpt lat="47.281486" lon="12.637977">
 <ele>766.50</ele>
 <time>2010-07-08T12:28:56Z</time>
 </trkpt>
 <trkpt lat="47.281599" lon="12.638534">
 <ele>766.47</ele>
 <time>2010-07-08T12:29:04Z</time>
 </trkpt>
 <trkpt lat="47.281511" lon="12.639183">
 <ele>766.67</ele>
 <time>2010-07-08T12:29:11Z</time>
 </trkpt>
 <trkpt lat="47.281292" lon="12.639779">
 <ele>766.46</ele>
 <time>2010-07-08T12:29:19Z</time>
 </trkpt>
 <trkpt lat="47.281213" lon="12.640535">
 <ele>766.32</ele>
 <time>2010-07-08T12:29:30Z</time>
 </trkpt>
 <trkpt lat="47.281025" lon="12.641271">
 <ele>766.55</ele>
 <time>2010-07-08T12:29:40Z</time>
 </trkpt>
 <trkpt lat="47.280871" lon="12.641988">
 <ele>766.44</ele>
 <time>2010-07-08T12:29:50Z</time>
 </trkpt>
 <trkpt lat="47.280582" lon="12.643191">
 <ele>765.77</ele>
 <time>2010-07-08T12:30:00Z</time>
 </trkpt>
 <trkpt lat="47.280472" lon="12.643915">
 <ele>765.50</ele>
 <time>2010-07-08T12:30:09Z</time>
 </trkpt>
 <trkpt lat="47.280426" lon="12.644721">
 <ele>765.88</ele>
 <time>2010-07-08T12:30:19Z</time>
 </trkpt>
 <trkpt lat="47.280437" lon="12.645040">
 <ele>766.65</ele>
 <time>2010-07-08T12:30:24Z</time>
 </trkpt>
 <trkpt lat="47.280479" lon="12.645475">
 <ele>766.33</ele>
 <time>2010-07-08T12:30:30Z</time>
 </trkpt>
 <trkpt lat="47.280590" lon="12.646030">
 <ele>765.40</ele>
 <time>2010-07-08T12:30:37Z</time>
 </trkpt>
 <trkpt lat="47.280781" lon="12.646531">
 <ele>766.33</ele>
 <time>2010-07-08T12:30:44Z</time>
 </trkpt>
 <trkpt lat="47.281025" lon="12.646989">
 <ele>765.68</ele>
 <time>2010-07-08T12:30:51Z</time>
 </trkpt>
 <trkpt lat="47.281303" lon="12.647286">
 <ele>766.16</ele>
 <time>2010-07-08T12:30:57Z</time>
 </trkpt>
 <trkpt lat="47.281574" lon="12.647588">
 <ele>765.58</ele>
 <time>2010-07-08T12:31:03Z</time>
 </trkpt>
 <trkpt lat="47.282087" lon="12.648067">
 <ele>765.31</ele>
 <time>2010-07-08T12:31:09Z</time>
 </trkpt>
 <trkpt lat="47.282327" lon="12.648222">
 <ele>766.02</ele>
 <time>2010-07-08T12:31:15Z</time>
 </trkpt>
 <trkpt lat="47.282375" lon="12.648368">
 <ele>766.34</ele>
 <time>2010-07-08T12:31:20Z</time>
 </trkpt>
 <trkpt lat="47.282284" lon="12.648323">
 <ele>766.31</ele>
 <time>2010-07-08T12:31:22Z</time>
 </trkpt>
 <trkpt lat="47.282570" lon="12.648411">
 <ele>765.66</ele>
 <time>2010-07-08T12:31:27Z</time>
 </trkpt>
 <trkpt lat="47.282593" lon="12.648542">
 <ele>765.25</ele>
 <time>2010-07-08T12:31:29Z</time>
 </trkpt>
 <trkpt lat="47.282612" lon="12.648679">
 <ele>765.11</ele>
 <time>2010-07-08T12:31:31Z</time>
 </trkpt>
 <trkpt lat="47.282658" lon="12.648982">
 <ele>764.43</ele>
 <time>2010-07-08T12:31:35Z</time>
 </trkpt>
 <trkpt lat="47.282700" lon="12.649281">
 <ele>764.41</ele>
 <time>2010-07-08T12:31:39Z</time>
 </trkpt>
 <trkpt lat="47.282719" lon="12.649414">
 <ele>764.70</ele>
 <time>2010-07-08T12:31:41Z</time>
 </trkpt>
 <trkpt lat="47.282799" lon="12.649953">
 <ele>763.84</ele>
 <time>2010-07-08T12:31:48Z</time>
 </trkpt>
 <trkpt lat="47.282887" lon="12.650541">
 <ele>764.41</ele>
 <time>2010-07-08T12:31:55Z</time>
 </trkpt>
 <trkpt lat="47.282986" lon="12.651204">
 <ele>763.91</ele>
 <time>2010-07-08T12:32:03Z</time>
 </trkpt>
 <trkpt lat="47.283115" lon="12.652093">
 <ele>764.76</ele>
 <time>2010-07-08T12:32:14Z</time>
 </trkpt>
 <trkpt lat="47.283195" lon="12.652627">
 <ele>765.34</ele>
 <time>2010-07-08T12:32:21Z</time>
 </trkpt>
 <trkpt lat="47.283257" lon="12.653025">
 <ele>766.92</ele>
 <time>2010-07-08T12:32:27Z</time>
 </trkpt>
 <trkpt lat="47.283257" lon="12.653048">
 <ele>767.26</ele>
 <time>2010-07-08T12:32:30Z</time>
 </trkpt>
 <trkpt lat="47.283287" lon="12.653242">
 <ele>765.87</ele>
 <time>2010-07-08T12:32:37Z</time>
 </trkpt>
 <trkpt lat="47.283352" lon="12.653675">
 <ele>765.08</ele>
 <time>2010-07-08T12:32:44Z</time>
 </trkpt>
 <trkpt lat="47.283348" lon="12.654409">
 <ele>765.29</ele>
 <time>2010-07-08T12:32:53Z</time>
 </trkpt>
 <trkpt lat="47.283337" lon="12.654558">
 <ele>765.49</ele>
 <time>2010-07-08T12:32:55Z</time>
 </trkpt>
 <trkpt lat="47.283295" lon="12.655069">
 <ele>765.79</ele>
 <time>2010-07-08T12:33:02Z</time>
 </trkpt>
 <trkpt lat="47.283279" lon="12.655213">
 <ele>766.10</ele>
 <time>2010-07-08T12:33:04Z</time>
 </trkpt>
 <trkpt lat="47.283058" lon="12.655658">
 <ele>765.43</ele>
 <time>2010-07-08T12:33:10Z</time>
 </trkpt>
 <trkpt lat="47.282936" lon="12.655844">
 <ele>765.46</ele>
 <time>2010-07-08T12:33:14Z</time>
 </trkpt>
 <trkpt lat="47.282902" lon="12.655890">
 <ele>765.57</ele>
 <time>2010-07-08T12:33:15Z</time>
 </trkpt>
 <trkpt lat="47.282719" lon="12.656165">
 <ele>766.45</ele>
 <time>2010-07-08T12:33:21Z</time>
 </trkpt>
 <trkpt lat="47.282669" lon="12.656226">
 <ele>766.40</ele>
 <time>2010-07-08T12:33:23Z</time>
 </trkpt>
 <trkpt lat="47.282436" lon="12.656452">
 <ele>766.38</ele>
 <time>2010-07-08T12:33:29Z</time>
 </trkpt>
 <trkpt lat="47.282352" lon="12.656534">
 <ele>766.09</ele>
 <time>2010-07-08T12:33:31Z</time>
 </trkpt>
 <trkpt lat="47.281940" lon="12.656997">
 <ele>765.79</ele>
 <time>2010-07-08T12:33:40Z</time>
 </trkpt>
 <trkpt lat="47.281853" lon="12.657217">
 <ele>766.37</ele>
 <time>2010-07-08T12:33:44Z</time>
 </trkpt>
 <trkpt lat="47.281769" lon="12.657429">
 <ele>767.10</ele>
 <time>2010-07-08T12:33:48Z</time>
 </trkpt>
 <trkpt lat="47.281658" lon="12.657716">
 <ele>767.73</ele>
 <time>2010-07-08T12:33:53Z</time>
 </trkpt>
 <trkpt lat="47.281399" lon="12.658371">
 <ele>766.94</ele>
 <time>2010-07-08T12:34:03Z</time>
 </trkpt>
 <trkpt lat="47.281132" lon="12.659048">
 <ele>767.25</ele>
 <time>2010-07-08T12:34:13Z</time>
 </trkpt>
 <trkpt lat="47.280941" lon="12.659526">
 <ele>766.87</ele>
 <time>2010-07-08T12:34:20Z</time>
 </trkpt>
 <trkpt lat="47.280724" lon="12.660084">
 <ele>766.92</ele>
 <time>2010-07-08T12:34:28Z</time>
 </trkpt>
 <trkpt lat="47.280575" lon="12.660660">
 <ele>767.28</ele>
 <time>2010-07-08T12:34:36Z</time>
 </trkpt>
 <trkpt lat="47.280418" lon="12.661315">
 <ele>767.04</ele>
 <time>2010-07-08T12:34:45Z</time>
 </trkpt>
 <trkpt lat="47.280258" lon="12.661986">
 <ele>767.14</ele>
 <time>2010-07-08T12:34:54Z</time>
 </trkpt>
 <trkpt lat="47.280025" lon="12.662973">
 <ele>767.42</ele>
 <time>2010-07-08T12:35:07Z</time>
 </trkpt>
 <trkpt lat="47.279819" lon="12.663628">
 <ele>767.85</ele>
 <time>2010-07-08T12:35:15Z</time>
 </trkpt>
 <trkpt lat="47.279324" lon="12.663959">
 <ele>768.45</ele>
 <time>2010-07-08T12:35:25Z</time>
 </trkpt>
 <trkpt lat="47.279072" lon="12.664126">
 <ele>769.05</ele>
 <time>2010-07-08T12:35:30Z</time>
 </trkpt>
 <trkpt lat="47.278915" lon="12.664230">
 <ele>770.26</ele>
 <time>2010-07-08T12:35:34Z</time>
 </trkpt>
 <trkpt lat="47.278687" lon="12.664617">
 <ele>769.31</ele>
 <time>2010-07-08T12:35:39Z</time>
 </trkpt>
 <trkpt lat="47.278488" lon="12.665031">
 <ele>768.86</ele>
 <time>2010-07-08T12:35:45Z</time>
 </trkpt>
 <trkpt lat="47.278236" lon="12.665567">
 <ele>768.42</ele>
 <time>2010-07-08T12:35:53Z</time>
 </trkpt>
 <trkpt lat="47.278103" lon="12.665844">
 <ele>768.02</ele>
 <time>2010-07-08T12:35:57Z</time>
 </trkpt>
 <trkpt lat="47.278023" lon="12.666149">
 <ele>767.47</ele>
 <time>2010-07-08T12:36:02Z</time>
 </trkpt>
 <trkpt lat="47.277988" lon="12.666581">
 <ele>766.85</ele>
 <time>2010-07-08T12:36:07Z</time>
 </trkpt>
 <trkpt lat="47.277939" lon="12.667264">
 <ele>766.44</ele>
 <time>2010-07-08T12:36:15Z</time>
 </trkpt>
 <trkpt lat="47.277889" lon="12.667780">
 <ele>765.92</ele>
 <time>2010-07-08T12:36:21Z</time>
 </trkpt>
 <trkpt lat="47.277771" lon="12.668378">
 <ele>765.58</ele>
 <time>2010-07-08T12:36:28Z</time>
 </trkpt>
 <trkpt lat="47.277622" lon="12.669125">
 <ele>765.55</ele>
 <time>2010-07-08T12:36:37Z</time>
 </trkpt>
 <trkpt lat="47.277405" lon="12.669874">
 <ele>765.49</ele>
 <time>2010-07-08T12:36:46Z</time>
 </trkpt>
 <trkpt lat="47.277161" lon="12.670585">
 <ele>764.96</ele>
 <time>2010-07-08T12:36:55Z</time>
 </trkpt>
 <trkpt lat="47.277111" lon="12.670731">
 <ele>765.15</ele>
 <time>2010-07-08T12:36:57Z</time>
 </trkpt>
 <trkpt lat="47.276928" lon="12.670941">
 <ele>765.55</ele>
 <time>2010-07-08T12:37:02Z</time>
 </trkpt>
 <trkpt lat="47.276543" lon="12.671283">
 <ele>767.62</ele>
 <time>2010-07-08T12:37:12Z</time>
 </trkpt>
 <trkpt lat="47.276524" lon="12.671455">
 <ele>767.72</ele>
 <time>2010-07-08T12:37:13Z</time>
 </trkpt>
 <trkpt lat="47.276543" lon="12.671524">
 <ele>768.17</ele>
 <time>2010-07-08T12:37:18Z</time>
 </trkpt>
 <trkpt lat="47.276566" lon="12.671659">
 <ele>768.19</ele>
 <time>2010-07-08T12:37:20Z</time>
 </trkpt>
 <trkpt lat="47.276669" lon="12.672313">
 <ele>766.72</ele>
 <time>2010-07-08T12:37:28Z</time>
 </trkpt>
 <trkpt lat="47.276783" lon="12.673036">
 <ele>766.00</ele>
 <time>2010-07-08T12:37:36Z</time>
 </trkpt>
 <trkpt lat="47.276928" lon="12.673948">
 <ele>765.35</ele>
 <time>2010-07-08T12:37:46Z</time>
 </trkpt>
 <trkpt lat="47.277081" lon="12.674910">
 <ele>763.47</ele>
 <time>2010-07-08T12:37:56Z</time>
 </trkpt>
 <trkpt lat="47.277233" lon="12.675879">
 <ele>762.84</ele>
 <time>2010-07-08T12:38:06Z</time>
 </trkpt>
 <trkpt lat="47.277412" lon="12.677009">
 <ele>762.75</ele>
 <time>2010-07-08T12:38:18Z</time>
 </trkpt>
 <trkpt lat="47.277546" lon="12.677861">
 <ele>761.96</ele>
 <time>2010-07-08T12:38:27Z</time>
 </trkpt>
 <trkpt lat="47.277679" lon="12.678700">
 <ele>761.81</ele>
 <time>2010-07-08T12:38:36Z</time>
 </trkpt>
 <trkpt lat="47.277813" lon="12.679537">
 <ele>761.06</ele>
 <time>2010-07-08T12:38:45Z</time>
 </trkpt>
 <trkpt lat="47.277912" lon="12.680169">
 <ele>761.16</ele>
 <time>2010-07-08T12:38:52Z</time>
 </trkpt>
 <trkpt lat="47.278011" lon="12.680792">
 <ele>760.87</ele>
 <time>2010-07-08T12:38:59Z</time>
 </trkpt>
 <trkpt lat="47.278034" lon="12.680926">
 <ele>761.05</ele>
 <time>2010-07-08T12:39:03Z</time>
 </trkpt>
 <trkpt lat="47.277927" lon="12.680942">
 <ele>761.26</ele>
 <time>2010-07-08T12:39:05Z</time>
 </trkpt>
 <trkpt lat="47.277805" lon="12.680959">
 <ele>761.27</ele>
 <time>2010-07-08T12:39:07Z</time>
 </trkpt>
 <trkpt lat="47.277477" lon="12.681007">
 <ele>760.44</ele>
 <time>2010-07-08T12:39:12Z</time>
 </trkpt>
 <trkpt lat="47.277039" lon="12.681071">
 <ele>760.36</ele>
 <time>2010-07-08T12:39:19Z</time>
 </trkpt>
 <trkpt lat="47.276657" lon="12.681224">
 <ele>762.53</ele>
 <time>2010-07-08T12:39:26Z</time>
 </trkpt>
 <trkpt lat="47.276260" lon="12.681486">
 <ele>764.22</ele>
 <time>2010-07-08T12:39:35Z</time>
 </trkpt>
 <trkpt lat="47.275948" lon="12.681689">
 <ele>765.92</ele>
 <time>2010-07-08T12:39:43Z</time>
 </trkpt>
 <trkpt lat="47.275803" lon="12.681785">
 <ele>767.26</ele>
 <time>2010-07-08T12:39:49Z</time>
 </trkpt>
 <trkpt lat="47.275818" lon="12.681876">
 <ele>768.29</ele>
 <time>2010-07-08T12:39:53Z</time>
 </trkpt>
 <trkpt lat="47.275879" lon="12.682248">
 <ele>768.30</ele>
 <time>2010-07-08T12:39:59Z</time>
 </trkpt>
 <trkpt lat="47.275898" lon="12.682377">
 <ele>768.33</ele>
 <time>2010-07-08T12:40:01Z</time>
 </trkpt>
 <trkpt lat="47.275993" lon="12.682967">
 <ele>769.18</ele>
 <time>2010-07-08T12:40:10Z</time>
 </trkpt>
 <trkpt lat="47.276085" lon="12.683519">
 <ele>768.29</ele>
 <time>2010-07-08T12:40:18Z</time>
 </trkpt>
 <trkpt lat="47.276123" lon="12.683750">
 <ele>767.73</ele>
 <time>2010-07-08T12:40:21Z</time>
 </trkpt>
 <trkpt lat="47.276222" lon="12.684376">
 <ele>765.00</ele>
 <time>2010-07-08T12:40:28Z</time>
 </trkpt>
 <trkpt lat="47.276390" lon="12.685244">
 <ele>762.18</ele>
 <time>2010-07-08T12:40:36Z</time>
 </trkpt>
 <trkpt lat="47.276649" lon="12.686000">
 <ele>761.43</ele>
 <time>2010-07-08T12:40:44Z</time>
 </trkpt>
 <trkpt lat="47.276749" lon="12.686766">
 <ele>761.89</ele>
 <time>2010-07-08T12:40:52Z</time>
 </trkpt>
 <trkpt lat="47.276779" lon="12.687255">
 <ele>761.15</ele>
 <time>2010-07-08T12:40:57Z</time>
 </trkpt>
 <trkpt lat="47.276688" lon="12.688085">
 <ele>760.83</ele>
 <time>2010-07-08T12:41:05Z</time>
 </trkpt>
 <trkpt lat="47.276665" lon="12.688278">
 <ele>760.71</ele>
 <time>2010-07-08T12:41:07Z</time>
 </trkpt>
 <trkpt lat="47.276794" lon="12.688678">
 <ele>760.08</ele>
 <time>2010-07-08T12:41:11Z</time>
 </trkpt>
 <trkpt lat="47.276897" lon="12.688781">
 <ele>759.86</ele>
 <time>2010-07-08T12:41:13Z</time>
 </trkpt>
 <trkpt lat="47.277184" lon="12.689067">
 <ele>759.32</ele>
 <time>2010-07-08T12:41:18Z</time>
 </trkpt>
 <trkpt lat="47.277397" lon="12.689313">
 <ele>758.59</ele>
 <time>2010-07-08T12:41:22Z</time>
 </trkpt>
 <trkpt lat="47.277435" lon="12.689507">
 <ele>758.40</ele>
 <time>2010-07-08T12:41:24Z</time>
 </trkpt>
 <trkpt lat="47.277573" lon="12.690210">
 <ele>759.74</ele>
 <time>2010-07-08T12:41:32Z</time>
 </trkpt>
 <trkpt lat="47.277664" lon="12.690676">
 <ele>761.07</ele>
 <time>2010-07-08T12:41:38Z</time>
 </trkpt>
 <trkpt lat="47.277767" lon="12.691203">
 <ele>761.71</ele>
 <time>2010-07-08T12:41:45Z</time>
 </trkpt>
 <trkpt lat="47.277882" lon="12.691800">
 <ele>762.91</ele>
 <time>2010-07-08T12:41:53Z</time>
 </trkpt>
 <trkpt lat="47.278042" lon="12.692614">
 <ele>765.39</ele>
 <time>2010-07-08T12:42:04Z</time>
 </trkpt>
 <trkpt lat="47.278114" lon="12.692979">
 <ele>766.54</ele>
 <time>2010-07-08T12:42:09Z</time>
 </trkpt>
 <trkpt lat="47.278240" lon="12.693475">
 <ele>767.05</ele>
 <time>2010-07-08T12:42:16Z</time>
 </trkpt>
 <trkpt lat="47.278362" lon="12.693900">
 <ele>767.27</ele>
 <time>2010-07-08T12:42:22Z</time>
 </trkpt>
 <trkpt lat="47.278465" lon="12.694265">
 <ele>766.59</ele>
 <time>2010-07-08T12:42:27Z</time>
 </trkpt>
 <trkpt lat="47.278633" lon="12.694860">
 <ele>764.88</ele>
 <time>2010-07-08T12:42:34Z</time>
 </trkpt>
 <trkpt lat="47.278778" lon="12.695369">
 <ele>764.72</ele>
 <time>2010-07-08T12:42:40Z</time>
 </trkpt>
 <trkpt lat="47.278851" lon="12.695624">
 <ele>764.01</ele>
 <time>2010-07-08T12:42:43Z</time>
 </trkpt>
 <trkpt lat="47.278992" lon="12.696126">
 <ele>763.36</ele>
 <time>2010-07-08T12:42:49Z</time>
 </trkpt>
 <trkpt lat="47.279064" lon="12.696762">
 <ele>763.08</ele>
 <time>2010-07-08T12:42:55Z</time>
 </trkpt>
 <trkpt lat="47.279072" lon="12.697604">
 <ele>763.41</ele>
 <time>2010-07-08T12:43:04Z</time>
 </trkpt>
 <trkpt lat="47.279079" lon="12.698300">
 <ele>763.34</ele>
 <time>2010-07-08T12:43:12Z</time>
 </trkpt>
 <trkpt lat="47.279083" lon="12.698843">
 <ele>762.71</ele>
 <time>2010-07-08T12:43:18Z</time>
 </trkpt>
 <trkpt lat="47.279228" lon="12.699007">
 <ele>762.21</ele>
 <time>2010-07-08T12:43:22Z</time>
 </trkpt>
 <trkpt lat="47.279285" lon="12.699030">
 <ele>761.97</ele>
 <time>2010-07-08T12:43:23Z</time>
 </trkpt>
 <trkpt lat="47.279800" lon="12.699229">
 <ele>758.91</ele>
 <time>2010-07-08T12:43:30Z</time>
 </trkpt>
 <trkpt lat="47.280514" lon="12.699506">
 <ele>757.92</ele>
 <time>2010-07-08T12:43:39Z</time>
 </trkpt>
 <trkpt lat="47.280952" lon="12.699676">
 <ele>756.54</ele>
 <time>2010-07-08T12:43:45Z</time>
 </trkpt>
 <trkpt lat="47.281029" lon="12.699705">
 <ele>756.20</ele>
 <time>2010-07-08T12:43:46Z</time>
 </trkpt>
 <trkpt lat="47.281296" lon="12.699923">
 <ele>756.55</ele>
 <time>2010-07-08T12:43:50Z</time>
 </trkpt>
 <trkpt lat="47.281300" lon="12.700121">
 <ele>756.55</ele>
 <time>2010-07-08T12:43:52Z</time>
 </trkpt>
 <trkpt lat="47.281319" lon="12.701020">
 <ele>756.73</ele>
 <time>2010-07-08T12:44:01Z</time>
 </trkpt>
 <trkpt lat="47.281342" lon="12.702129">
 <ele>755.77</ele>
 <time>2010-07-08T12:44:12Z</time>
 </trkpt>
 <trkpt lat="47.281368" lon="12.703286">
 <ele>755.46</ele>
 <time>2010-07-08T12:44:24Z</time>
 </trkpt>
 <trkpt lat="47.281380" lon="12.703959">
 <ele>755.64</ele>
 <time>2010-07-08T12:44:31Z</time>
 </trkpt>
 <trkpt lat="47.281399" lon="12.704819">
 <ele>755.49</ele>
 <time>2010-07-08T12:44:40Z</time>
 </trkpt>
 <trkpt lat="47.281528" lon="12.705048">
 <ele>755.40</ele>
 <time>2010-07-08T12:44:44Z</time>
 </trkpt>
 <trkpt lat="47.281647" lon="12.705130">
 <ele>755.16</ele>
 <time>2010-07-08T12:44:46Z</time>
 </trkpt>
 <trkpt lat="47.282143" lon="12.705475">
 <ele>755.02</ele>
 <time>2010-07-08T12:44:54Z</time>
 </trkpt>
 <trkpt lat="47.282627" lon="12.705812">
 <ele>754.53</ele>
 <time>2010-07-08T12:45:02Z</time>
 </trkpt>
 <trkpt lat="47.283211" lon="12.706218">
 <ele>754.64</ele>
 <time>2010-07-08T12:45:12Z</time>
 </trkpt>
 <trkpt lat="47.283699" lon="12.706488">
 <ele>754.59</ele>
 <time>2010-07-08T12:45:20Z</time>
 </trkpt>
 <trkpt lat="47.284130" lon="12.706746">
 <ele>754.53</ele>
 <time>2010-07-08T12:45:27Z</time>
 </trkpt>
 <trkpt lat="47.284603" lon="12.707448">
 <ele>754.73</ele>
 <time>2010-07-08T12:45:37Z</time>
 </trkpt>
 <trkpt lat="47.285061" lon="12.708131">
 <ele>754.80</ele>
 <time>2010-07-08T12:45:47Z</time>
 </trkpt>
 <trkpt lat="47.285320" lon="12.708523">
 <ele>754.89</ele>
 <time>2010-07-08T12:45:53Z</time>
 </trkpt>
 <trkpt lat="47.285660" lon="12.708842">
 <ele>755.26</ele>
 <time>2010-07-08T12:46:00Z</time>
 </trkpt>
 <trkpt lat="47.286221" lon="12.709346">
 <ele>754.67</ele>
 <time>2010-07-08T12:46:11Z</time>
 </trkpt>
 <trkpt lat="47.286674" lon="12.709754">
 <ele>754.73</ele>
 <time>2010-07-08T12:46:20Z</time>
 </trkpt>
 <trkpt lat="47.286823" lon="12.709888">
 <ele>754.84</ele>
 <time>2010-07-08T12:46:23Z</time>
 </trkpt>
 <trkpt lat="47.286972" lon="12.710279">
 <ele>754.98</ele>
 <time>2010-07-08T12:46:28Z</time>
 </trkpt>
 <trkpt lat="47.287209" lon="12.711189">
 <ele>755.12</ele>
 <time>2010-07-08T12:46:39Z</time>
 </trkpt>
 <trkpt lat="47.287239" lon="12.711355">
 <ele>755.33</ele>
 <time>2010-07-08T12:46:41Z</time>
 </trkpt>
 <trkpt lat="47.287647" lon="12.712045">
 <ele>755.64</ele>
 <time>2010-07-08T12:46:52Z</time>
 </trkpt>
 <trkpt lat="47.287865" lon="12.712407">
 <ele>755.89</ele>
 <time>2010-07-08T12:46:58Z</time>
 </trkpt>
 <trkpt lat="47.288071" lon="12.712677">
 <ele>757.25</ele>
 <time>2010-07-08T12:47:04Z</time>
 </trkpt>
 <trkpt lat="47.288181" lon="12.712798">
 <ele>757.88</ele>
 <time>2010-07-08T12:47:08Z</time>
 </trkpt>
 <trkpt lat="47.288284" lon="12.712915">
 <ele>757.45</ele>
 <time>2010-07-08T12:47:11Z</time>
 </trkpt>
 <trkpt lat="47.288506" lon="12.713162">
 <ele>757.53</ele>
 <time>2010-07-08T12:47:17Z</time>
 </trkpt>
 <trkpt lat="47.288769" lon="12.713564">
 <ele>758.32</ele>
 <time>2010-07-08T12:47:25Z</time>
 </trkpt>
 <trkpt lat="47.288799" lon="12.713623">
 <ele>758.31</ele>
 <time>2010-07-08T12:47:26Z</time>
 </trkpt>
 <trkpt lat="47.288853" lon="12.713826">
 <ele>759.01</ele>
 <time>2010-07-08T12:47:30Z</time>
 </trkpt>
 <trkpt lat="47.288837" lon="12.713887">
 <ele>759.26</ele>
 <time>2010-07-08T12:47:31Z</time>
 </trkpt>
 <trkpt lat="47.288567" lon="12.714381">
 <ele>758.79</ele>
 <time>2010-07-08T12:47:39Z</time>
 </trkpt>
 <trkpt lat="47.288525" lon="12.714435">
 <ele>758.83</ele>
 <time>2010-07-08T12:47:40Z</time>
 </trkpt>
 <trkpt lat="47.288452" lon="12.714672">
 <ele>759.43</ele>
 <time>2010-07-08T12:47:44Z</time>
 </trkpt>
 <trkpt lat="47.288502" lon="12.714979">
 <ele>760.96</ele>
 <time>2010-07-08T12:47:48Z</time>
 </trkpt>
 <trkpt lat="47.288448" lon="12.714991">
 <ele>761.52</ele>
 <time>2010-07-08T12:47:51Z</time>
 </trkpt>
 <trkpt lat="47.288250" lon="12.715246">
 <ele>759.35</ele>
 <time>2010-07-08T12:47:56Z</time>
 </trkpt>
 <trkpt lat="47.288090" lon="12.715567">
 <ele>759.56</ele>
 <time>2010-07-08T12:48:01Z</time>
 </trkpt>
 <trkpt lat="47.288071" lon="12.715637">
 <ele>759.96</ele>
 <time>2010-07-08T12:48:02Z</time>
 </trkpt>
 <trkpt lat="47.287933" lon="12.715871">
 <ele>760.73</ele>
 <time>2010-07-08T12:48:07Z</time>
 </trkpt>
 <trkpt lat="47.287792" lon="12.716014">
 <ele>759.57</ele>
 <time>2010-07-08T12:48:12Z</time>
 </trkpt>
 <trkpt lat="47.287750" lon="12.716057">
 <ele>759.04</ele>
 <time>2010-07-08T12:48:13Z</time>
 </trkpt>
 <trkpt lat="47.287518" lon="12.716287">
 <ele>757.36</ele>
 <time>2010-07-08T12:48:18Z</time>
 </trkpt>
 <trkpt lat="47.287197" lon="12.716511">
 <ele>757.25</ele>
 <time>2010-07-08T12:48:24Z</time>
 </trkpt>
 <trkpt lat="47.286877" lon="12.716621">
 <ele>756.89</ele>
 <time>2010-07-08T12:48:30Z</time>
 </trkpt>
 <trkpt lat="47.286484" lon="12.716758">
 <ele>758.19</ele>
 <time>2010-07-08T12:48:38Z</time>
 </trkpt>
 <trkpt lat="47.286068" lon="12.716900">
 <ele>756.81</ele>
 <time>2010-07-08T12:48:45Z</time>
 </trkpt>
 <trkpt lat="47.285454" lon="12.717091">
 <ele>754.96</ele>
 <time>2010-07-08T12:48:54Z</time>
 </trkpt>
 <trkpt lat="47.284840" lon="12.717281">
 <ele>754.20</ele>
 <time>2010-07-08T12:49:03Z</time>
 </trkpt>
 <trkpt lat="47.284412" lon="12.717473">
 <ele>754.82</ele>
 <time>2010-07-08T12:49:10Z</time>
 </trkpt>
 <trkpt lat="47.283806" lon="12.718005">
 <ele>754.21</ele>
 <time>2010-07-08T12:49:21Z</time>
 </trkpt>
 <trkpt lat="47.283550" lon="12.718446">
 <ele>753.91</ele>
 <time>2010-07-08T12:49:27Z</time>
 </trkpt>
 <trkpt lat="47.283237" lon="12.718928">
 <ele>753.80</ele>
 <time>2010-07-08T12:49:34Z</time>
 </trkpt>
 <trkpt lat="47.282784" lon="12.719633">
 <ele>753.03</ele>
 <time>2010-07-08T12:49:44Z</time>
 </trkpt>
 <trkpt lat="47.282375" lon="12.720244">
 <ele>752.88</ele>
 <time>2010-07-08T12:49:53Z</time>
 </trkpt>
 <trkpt lat="47.281940" lon="12.720898">
 <ele>752.99</ele>
 <time>2010-07-08T12:50:03Z</time>
 </trkpt>
 <trkpt lat="47.281898" lon="12.720962">
 <ele>752.85</ele>
 <time>2010-07-08T12:50:04Z</time>
 </trkpt>
 <trkpt lat="47.281746" lon="12.721153">
 <ele>752.99</ele>
 <time>2010-07-08T12:50:08Z</time>
 </trkpt>
 <trkpt lat="47.281639" lon="12.721116">
 <ele>753.68</ele>
 <time>2010-07-08T12:50:10Z</time>
 </trkpt>
 <trkpt lat="47.281162" lon="12.720951">
 <ele>753.35</ele>
 <time>2010-07-08T12:50:18Z</time>
 </trkpt>
 <trkpt lat="47.280972" lon="12.720885">
 <ele>752.95</ele>
 <time>2010-07-08T12:50:21Z</time>
 </trkpt>
 <trkpt lat="47.280354" lon="12.720817">
 <ele>752.88</ele>
 <time>2010-07-08T12:50:30Z</time>
 </trkpt>
 <trkpt lat="47.280052" lon="12.720902">
 <ele>752.75</ele>
 <time>2010-07-08T12:50:35Z</time>
 </trkpt>
 <trkpt lat="47.279556" lon="12.720819">
 <ele>752.72</ele>
 <time>2010-07-08T12:50:43Z</time>
 </trkpt>
 <trkpt lat="47.279240" lon="12.720785">
 <ele>752.97</ele>
 <time>2010-07-08T12:50:48Z</time>
 </trkpt>
 <trkpt lat="47.278900" lon="12.720780">
 <ele>754.69</ele>
 <time>2010-07-08T12:50:54Z</time>
 </trkpt>
 <trkpt lat="47.278637" lon="12.720811">
 <ele>756.30</ele>
 <time>2010-07-08T12:51:00Z</time>
 </trkpt>
 <trkpt lat="47.278423" lon="12.720921">
 <ele>755.86</ele>
 <time>2010-07-08T12:51:04Z</time>
 </trkpt>
 <trkpt lat="47.278427" lon="12.721085">
 <ele>755.16</ele>
 <time>2010-07-08T12:51:06Z</time>
 </trkpt>
 <trkpt lat="47.278461" lon="12.721939">
 <ele>753.17</ele>
 <time>2010-07-08T12:51:15Z</time>
 </trkpt>
 <trkpt lat="47.278488" lon="12.722665">
 <ele>753.03</ele>
 <time>2010-07-08T12:51:23Z</time>
 </trkpt>
 <trkpt lat="47.278526" lon="12.723639">
 <ele>753.17</ele>
 <time>2010-07-08T12:51:34Z</time>
 </trkpt>
 <trkpt lat="47.278534" lon="12.724452">
 <ele>753.42</ele>
 <time>2010-07-08T12:51:43Z</time>
 </trkpt>
 <trkpt lat="47.278545" lon="12.725371">
 <ele>753.75</ele>
 <time>2010-07-08T12:51:53Z</time>
 </trkpt>
 <trkpt lat="47.278526" lon="12.726083">
 <ele>753.24</ele>
 <time>2010-07-08T12:52:01Z</time>
 </trkpt>
 <trkpt lat="47.278503" lon="12.726875">
 <ele>753.06</ele>
 <time>2010-07-08T12:52:10Z</time>
 </trkpt>
 <trkpt lat="47.278500" lon="12.727766">
 <ele>753.26</ele>
 <time>2010-07-08T12:52:20Z</time>
 </trkpt>
 <trkpt lat="47.278492" lon="12.728751">
 <ele>752.57</ele>
 <time>2010-07-08T12:52:31Z</time>
 </trkpt>
 <trkpt lat="47.278484" lon="12.729818">
 <ele>752.57</ele>
 <time>2010-07-08T12:52:43Z</time>
 </trkpt>
 <trkpt lat="47.278492" lon="12.730716">
 <ele>752.66</ele>
 <time>2010-07-08T12:52:53Z</time>
 </trkpt>
 <trkpt lat="47.278503" lon="12.731698">
 <ele>752.32</ele>
 <time>2010-07-08T12:53:04Z</time>
 </trkpt>
 <trkpt lat="47.278446" lon="12.731972">
 <ele>752.59</ele>
 <time>2010-07-08T12:53:08Z</time>
 </trkpt>
 <trkpt lat="47.278297" lon="12.731980">
 <ele>752.56</ele>
 <time>2010-07-08T12:53:11Z</time>
 </trkpt>
 <trkpt lat="47.277718" lon="12.731886">
 <ele>753.67</ele>
 <time>2010-07-08T12:53:21Z</time>
 </trkpt>
 <trkpt lat="47.277668" lon="12.731878">
 <ele>754.03</ele>
 <time>2010-07-08T12:53:22Z</time>
 </trkpt>
 <trkpt lat="47.277481" lon="12.731928">
 <ele>755.36</ele>
 <time>2010-07-08T12:53:26Z</time>
 </trkpt>
 <trkpt lat="47.277454" lon="12.731985">
 <ele>755.51</ele>
 <time>2010-07-08T12:53:27Z</time>
 </trkpt>
 <trkpt lat="47.277195" lon="12.732518">
 <ele>756.05</ele>
 <time>2010-07-08T12:53:37Z</time>
 </trkpt>
 <trkpt lat="47.277069" lon="12.732778">
 <ele>757.15</ele>
 <time>2010-07-08T12:53:42Z</time>
 </trkpt>
 <trkpt lat="47.276825" lon="12.733215">
 <ele>758.48</ele>
 <time>2010-07-08T12:53:51Z</time>
 </trkpt>
 <trkpt lat="47.276741" lon="12.733359">
 <ele>758.62</ele>
 <time>2010-07-08T12:53:54Z</time>
 </trkpt>
 <trkpt lat="47.276653" lon="12.733638">
 <ele>759.28</ele>
 <time>2010-07-08T12:53:59Z</time>
 </trkpt>
 <trkpt lat="47.276581" lon="12.734104">
 <ele>759.75</ele>
 <time>2010-07-08T12:54:06Z</time>
 </trkpt>
 <trkpt lat="47.276554" lon="12.734424">
 <ele>758.67</ele>
 <time>2010-07-08T12:54:10Z</time>
 </trkpt>
 <trkpt lat="47.276600" lon="12.734671">
 <ele>758.24</ele>
 <time>2010-07-08T12:54:13Z</time>
 </trkpt>
 <trkpt lat="47.276615" lon="12.734952">
 <ele>757.38</ele>
 <time>2010-07-08T12:54:16Z</time>
 </trkpt>
 <trkpt lat="47.276466" lon="12.735542">
 <ele>755.39</ele>
 <time>2010-07-08T12:54:22Z</time>
 </trkpt>
 <trkpt lat="47.276451" lon="12.735649">
 <ele>755.02</ele>
 <time>2010-07-08T12:54:23Z</time>
 </trkpt>
 <trkpt lat="47.276394" lon="12.736380">
 <ele>755.10</ele>
 <time>2010-07-08T12:54:30Z</time>
 </trkpt>
 <trkpt lat="47.276367" lon="12.736793">
 <ele>756.83</ele>
 <time>2010-07-08T12:54:35Z</time>
 </trkpt>
 <trkpt lat="47.276360" lon="12.736932">
 <ele>757.61</ele>
 <time>2010-07-08T12:54:37Z</time>
 </trkpt>
 <trkpt lat="47.276367" lon="12.737070">
 <ele>758.38</ele>
 <time>2010-07-08T12:54:39Z</time>
 </trkpt>
 <trkpt lat="47.276379" lon="12.737269">
 <ele>759.07</ele>
 <time>2010-07-08T12:54:42Z</time>
 </trkpt>
 <trkpt lat="47.276257" lon="12.737679">
 <ele>759.06</ele>
 <time>2010-07-08T12:54:48Z</time>
 </trkpt>
 <trkpt lat="47.276192" lon="12.737793">
 <ele>758.90</ele>
 <time>2010-07-08T12:54:50Z</time>
 </trkpt>
 <trkpt lat="47.276142" lon="12.738041">
 <ele>758.34</ele>
 <time>2010-07-08T12:54:53Z</time>
 </trkpt>
 <trkpt lat="47.276154" lon="12.738450">
 <ele>758.45</ele>
 <time>2010-07-08T12:54:58Z</time>
 </trkpt>
 <trkpt lat="47.276268" lon="12.739078">
 <ele>759.42</ele>
 <time>2010-07-08T12:55:06Z</time>
 </trkpt>
 <trkpt lat="47.276264" lon="12.739402">
 <ele>759.18</ele>
 <time>2010-07-08T12:55:10Z</time>
 </trkpt>
 <trkpt lat="47.276115" lon="12.740038">
 <ele>756.73</ele>
 <time>2010-07-08T12:55:17Z</time>
 </trkpt>
 <trkpt lat="47.276035" lon="12.740367">
 <ele>755.12</ele>
 <time>2010-07-08T12:55:20Z</time>
 </trkpt>
 <trkpt lat="47.275993" lon="12.740732">
 <ele>753.81</ele>
 <time>2010-07-08T12:55:23Z</time>
 </trkpt>
 <trkpt lat="47.276005" lon="12.740863">
 <ele>753.53</ele>
 <time>2010-07-08T12:55:24Z</time>
 </trkpt>
 <trkpt lat="47.276127" lon="12.741234">
 <ele>753.79</ele>
 <time>2010-07-08T12:55:28Z</time>
 </trkpt>
 <trkpt lat="47.276199" lon="12.741417">
 <ele>754.07</ele>
 <time>2010-07-08T12:55:30Z</time>
 </trkpt>
 <trkpt lat="47.276325" lon="12.741800">
 <ele>754.12</ele>
 <time>2010-07-08T12:55:34Z</time>
 </trkpt>
 <trkpt lat="47.276302" lon="12.742763">
 <ele>753.54</ele>
 <time>2010-07-08T12:55:44Z</time>
 </trkpt>
 <trkpt lat="47.276405" lon="12.743755">
 <ele>752.72</ele>
 <time>2010-07-08T12:55:54Z</time>
 </trkpt>
 <trkpt lat="47.276443" lon="12.744424">
 <ele>752.43</ele>
 <time>2010-07-08T12:56:01Z</time>
 </trkpt>
 <trkpt lat="47.276363" lon="12.745355">
 <ele>752.53</ele>
 <time>2010-07-08T12:56:11Z</time>
 </trkpt>
 <trkpt lat="47.276257" lon="12.746281">
 <ele>753.00</ele>
 <time>2010-07-08T12:56:21Z</time>
 </trkpt>
 <trkpt lat="47.276226" lon="12.746651">
 <ele>753.28</ele>
 <time>2010-07-08T12:56:25Z</time>
 </trkpt>
 <trkpt lat="47.276123" lon="12.746981">
 <ele>753.01</ele>
 <time>2010-07-08T12:56:29Z</time>
 </trkpt>
 <trkpt lat="47.275890" lon="12.747572">
 <ele>752.64</ele>
 <time>2010-07-08T12:56:36Z</time>
 </trkpt>
 <trkpt lat="47.275646" lon="12.748433">
 <ele>753.05</ele>
 <time>2010-07-08T12:56:46Z</time>
 </trkpt>
 <trkpt lat="47.275406" lon="12.749165">
 <ele>752.96</ele>
 <time>2010-07-08T12:56:55Z</time>
 </trkpt>
 <trkpt lat="47.275280" lon="12.749541">
 <ele>753.63</ele>
 <time>2010-07-08T12:57:00Z</time>
 </trkpt>
 <trkpt lat="47.275227" lon="12.749792">
 <ele>753.74</ele>
 <time>2010-07-08T12:57:03Z</time>
 </trkpt>
 <trkpt lat="47.275192" lon="12.750075">
 <ele>754.38</ele>
 <time>2010-07-08T12:57:07Z</time>
 </trkpt>
 <trkpt lat="47.275150" lon="12.750596">
 <ele>754.42</ele>
 <time>2010-07-08T12:57:14Z</time>
 </trkpt>
 <trkpt lat="47.275131" lon="12.750845">
 <ele>754.43</ele>
 <time>2010-07-08T12:57:17Z</time>
 </trkpt>
 <trkpt lat="47.275043" lon="12.751400">
 <ele>754.78</ele>
 <time>2010-07-08T12:57:24Z</time>
 </trkpt>
 <trkpt lat="47.274937" lon="12.751950">
 <ele>755.08</ele>
 <time>2010-07-08T12:57:31Z</time>
 </trkpt>
 <trkpt lat="47.274818" lon="12.752588">
 <ele>754.63</ele>
 <time>2010-07-08T12:57:39Z</time>
 </trkpt>
 <trkpt lat="47.274700" lon="12.753261">
 <ele>754.29</ele>
 <time>2010-07-08T12:57:47Z</time>
 </trkpt>
 <trkpt lat="47.274685" lon="12.753342">
 <ele>754.22</ele>
 <time>2010-07-08T12:57:48Z</time>
 </trkpt>
 <trkpt lat="47.274509" lon="12.754363">
 <ele>754.68</ele>
 <time>2010-07-08T12:58:00Z</time>
 </trkpt>
 <trkpt lat="47.274422" lon="12.755149">
 <ele>754.81</ele>
 <time>2010-07-08T12:58:09Z</time>
 </trkpt>
 <trkpt lat="47.274338" lon="12.755925">
 <ele>755.25</ele>
 <time>2010-07-08T12:58:18Z</time>
 </trkpt>
 <trkpt lat="47.274300" lon="12.756075">
 <ele>755.21</ele>
 <time>2010-07-08T12:58:20Z</time>
 </trkpt>
 <trkpt lat="47.274052" lon="12.756995">
 <ele>755.07</ele>
 <time>2010-07-08T12:58:31Z</time>
 </trkpt>
 <trkpt lat="47.273998" lon="12.757411">
 <ele>754.98</ele>
 <time>2010-07-08T12:58:36Z</time>
 </trkpt>
 <trkpt lat="47.273998" lon="12.757889">
 <ele>755.78</ele>
 <time>2010-07-08T12:58:42Z</time>
 </trkpt>
 <trkpt lat="47.274132" lon="12.758347">
 <ele>756.53</ele>
 <time>2010-07-08T12:58:49Z</time>
 </trkpt>
 <trkpt lat="47.274204" lon="12.758598">
 <ele>758.11</ele>
 <time>2010-07-08T12:58:54Z</time>
 </trkpt>
 <trkpt lat="47.274235" lon="12.758711">
 <ele>758.27</ele>
 <time>2010-07-08T12:59:00Z</time>
 </trkpt>
 <trkpt lat="47.274235" lon="12.758711">
 <ele>758.13</ele>
 <time>2010-07-08T12:59:01Z</time>
 </trkpt>
 <trkpt lat="47.274258" lon="12.759075">
 <ele>757.67</ele>
 <time>2010-07-08T12:59:07Z</time>
 </trkpt>
 <trkpt lat="47.274258" lon="12.759075">
 <ele>757.37</ele>
 <time>2010-07-08T12:59:09Z</time>
 </trkpt>
 <trkpt lat="47.274456" lon="12.759833">
 <ele>755.91</ele>
 <time>2010-07-08T12:59:15Z</time>
 </trkpt>
 <trkpt lat="47.274509" lon="12.760170">
 <ele>755.43</ele>
 <time>2010-07-08T12:59:19Z</time>
 </trkpt>
 <trkpt lat="47.274643" lon="12.760513">
 <ele>756.07</ele>
 <time>2010-07-08T12:59:26Z</time>
 </trkpt>
 <trkpt lat="47.274796" lon="12.761358">
 <ele>756.36</ele>
 <time>2010-07-08T12:59:34Z</time>
 </trkpt>
 <trkpt lat="47.275082" lon="12.762345">
 <ele>755.67</ele>
 <time>2010-07-08T12:59:46Z</time>
 </trkpt>
 <trkpt lat="47.275303" lon="12.763164">
 <ele>755.80</ele>
 <time>2010-07-08T12:59:56Z</time>
 </trkpt>
 <trkpt lat="47.275360" lon="12.763820">
 <ele>756.48</ele>
 <time>2010-07-08T13:00:04Z</time>
 </trkpt>
 <trkpt lat="47.275406" lon="12.764315">
 <ele>755.80</ele>
 <time>2010-07-08T13:00:10Z</time>
 </trkpt>
 <trkpt lat="47.275471" lon="12.765080">
 <ele>755.50</ele>
 <time>2010-07-08T13:00:19Z</time>
 </trkpt>
 <trkpt lat="47.275536" lon="12.765838">
 <ele>755.61</ele>
 <time>2010-07-08T13:00:28Z</time>
 </trkpt>
 <trkpt lat="47.275620" lon="12.766768">
 <ele>754.73</ele>
 <time>2010-07-08T13:00:39Z</time>
 </trkpt>
 <trkpt lat="47.275700" lon="12.767510">
 <ele>755.33</ele>
 <time>2010-07-08T13:00:48Z</time>
 </trkpt>
 <trkpt lat="47.275894" lon="12.768249">
 <ele>754.67</ele>
 <time>2010-07-08T13:00:57Z</time>
 </trkpt>
 <trkpt lat="47.276123" lon="12.768865">
 <ele>754.27</ele>
 <time>2010-07-08T13:01:05Z</time>
 </trkpt>
 <trkpt lat="47.276386" lon="12.769360">
 <ele>753.80</ele>
 <time>2010-07-08T13:01:12Z</time>
 </trkpt>
 <trkpt lat="47.276733" lon="12.770005">
 <ele>753.58</ele>
 <time>2010-07-08T13:01:21Z</time>
 </trkpt>
 <trkpt lat="47.277016" lon="12.770531">
 <ele>754.02</ele>
 <time>2010-07-08T13:01:29Z</time>
 </trkpt>
 <trkpt lat="47.277222" lon="12.770918">
 <ele>754.40</ele>
 <time>2010-07-08T13:01:36Z</time>
 </trkpt>
 <trkpt lat="47.277348" lon="12.771154">
 <ele>753.98</ele>
 <time>2010-07-08T13:01:40Z</time>
 </trkpt>
 <trkpt lat="47.277489" lon="12.771401">
 <ele>753.67</ele>
 <time>2010-07-08T13:01:44Z</time>
 </trkpt>
 <trkpt lat="47.277660" lon="12.771528">
 <ele>752.44</ele>
 <time>2010-07-08T13:01:47Z</time>
 </trkpt>
 <trkpt lat="47.277950" lon="12.771823">
 <ele>751.36</ele>
 <time>2010-07-08T13:01:52Z</time>
 </trkpt>
 <trkpt lat="47.278259" lon="12.772418">
 <ele>750.70</ele>
 <time>2010-07-08T13:02:00Z</time>
 </trkpt>
 <trkpt lat="47.278679" lon="12.773216">
 <ele>748.62</ele>
 <time>2010-07-08T13:02:10Z</time>
 </trkpt>
 <trkpt lat="47.279167" lon="12.774151">
 <ele>746.66</ele>
 <time>2010-07-08T13:02:21Z</time>
 </trkpt>
 <trkpt lat="47.279606" lon="12.774992">
 <ele>745.72</ele>
 <time>2010-07-08T13:02:31Z</time>
 </trkpt>
 <trkpt lat="47.280022" lon="12.775789">
 <ele>745.59</ele>
 <time>2010-07-08T13:02:41Z</time>
 </trkpt>
 <trkpt lat="47.280449" lon="12.776656">
 <ele>745.13</ele>
 <time>2010-07-08T13:02:52Z</time>
 </trkpt>
 <trkpt lat="47.280464" lon="12.776747">
 <ele>745.07</ele>
 <time>2010-07-08T13:02:53Z</time>
 </trkpt>
 <trkpt lat="47.280521" lon="12.777115">
 <ele>744.66</ele>
 <time>2010-07-08T13:02:57Z</time>
 </trkpt>
 <trkpt lat="47.280674" lon="12.778033">
 <ele>744.06</ele>
 <time>2010-07-08T13:03:07Z</time>
 </trkpt>
 <trkpt lat="47.280777" lon="12.778669">
 <ele>744.06</ele>
 <time>2010-07-08T13:03:14Z</time>
 </trkpt>
 <trkpt lat="47.280846" lon="12.778945">
 <ele>744.38</ele>
 <time>2010-07-08T13:03:18Z</time>
 </trkpt>
 <trkpt lat="47.280891" lon="12.778945">
 <ele>744.62</ele>
 <time>2010-07-08T13:03:19Z</time>
 </trkpt>
 <trkpt lat="47.281315" lon="12.778945">
 <ele>745.13</ele>
 <time>2010-07-08T13:03:27Z</time>
 </trkpt>
 <trkpt lat="47.281425" lon="12.778945">
 <ele>745.13</ele>
 <time>2010-07-08T13:03:29Z</time>
 </trkpt>
 <trkpt lat="47.281639" lon="12.779003">
 <ele>745.19</ele>
 <time>2010-07-08T13:03:33Z</time>
 </trkpt>
 <trkpt lat="47.281994" lon="12.779967">
 <ele>745.56</ele>
 <time>2010-07-08T13:03:46Z</time>
 </trkpt>
 <trkpt lat="47.282070" lon="12.780173">
 <ele>745.96</ele>
 <time>2010-07-08T13:03:49Z</time>
 </trkpt>
 <trkpt lat="47.282078" lon="12.780411">
 <ele>745.10</ele>
 <time>2010-07-08T13:03:53Z</time>
 </trkpt>
 <trkpt lat="47.281807" lon="12.781488">
 <ele>745.29</ele>
 <time>2010-07-08T13:04:06Z</time>
 </trkpt>
 <trkpt lat="47.281723" lon="12.782467">
 <ele>745.66</ele>
 <time>2010-07-08T13:04:16Z</time>
 </trkpt>
 <trkpt lat="47.281723" lon="12.783364">
 <ele>745.64</ele>
 <time>2010-07-08T13:04:26Z</time>
 </trkpt>
 <trkpt lat="47.281723" lon="12.784044">
 <ele>745.78</ele>
 <time>2010-07-08T13:04:34Z</time>
 </trkpt>
 <trkpt lat="47.281723" lon="12.784274">
 <ele>746.83</ele>
 <time>2010-07-08T13:04:38Z</time>
 </trkpt>
 <trkpt lat="47.281723" lon="12.784315">
 <ele>747.15</ele>
 <time>2010-07-08T13:04:39Z</time>
 </trkpt>
 <trkpt lat="47.281853" lon="12.784341">
 <ele>747.84</ele>
 <time>2010-07-08T13:04:44Z</time>
 </trkpt>
 <trkpt lat="47.281960" lon="12.784331">
 <ele>748.15</ele>
 <time>2010-07-08T13:04:49Z</time>
 </trkpt>
 <trkpt lat="47.282288" lon="12.784311">
 <ele>746.91</ele>
 <time>2010-07-08T13:04:54Z</time>
 </trkpt>
 <trkpt lat="47.282646" lon="12.784244">
 <ele>745.04</ele>
 <time>2010-07-08T13:05:00Z</time>
 </trkpt>
 <trkpt lat="47.283237" lon="12.784187">
 <ele>744.57</ele>
 <time>2010-07-08T13:05:09Z</time>
 </trkpt>
 <trkpt lat="47.283829" lon="12.784135">
 <ele>744.25</ele>
 <time>2010-07-08T13:05:18Z</time>
 </trkpt>
 <trkpt lat="47.284393" lon="12.784133">
 <ele>744.25</ele>
 <time>2010-07-08T13:05:27Z</time>
 </trkpt>
 <trkpt lat="47.284939" lon="12.784217">
 <ele>744.06</ele>
 <time>2010-07-08T13:05:36Z</time>
 </trkpt>
 <trkpt lat="47.285057" lon="12.784255">
 <ele>743.97</ele>
 <time>2010-07-08T13:05:38Z</time>
 </trkpt>
 <trkpt lat="47.285175" lon="12.784294">
 <ele>744.09</ele>
 <time>2010-07-08T13:05:40Z</time>
 </trkpt>
 <trkpt lat="47.285614" lon="12.784491">
 <ele>744.11</ele>
 <time>2010-07-08T13:05:48Z</time>
 </trkpt>
 <trkpt lat="47.286064" lon="12.784610">
 <ele>744.06</ele>
 <time>2010-07-08T13:05:56Z</time>
 </trkpt>
 <trkpt lat="47.286407" lon="12.784640">
 <ele>743.82</ele>
 <time>2010-07-08T13:06:02Z</time>
 </trkpt>
 <trkpt lat="47.286983" lon="12.784738">
 <ele>743.61</ele>
 <time>2010-07-08T13:06:12Z</time>
 </trkpt>
 <trkpt lat="47.287605" lon="12.784837">
 <ele>743.57</ele>
 <time>2010-07-08T13:06:23Z</time>
 </trkpt>
 <trkpt lat="47.288063" lon="12.784909">
 <ele>743.61</ele>
 <time>2010-07-08T13:06:31Z</time>
 </trkpt>
 <trkpt lat="47.288696" lon="12.785007">
 <ele>743.18</ele>
 <time>2010-07-08T13:06:42Z</time>
 </trkpt>
 <trkpt lat="47.289192" lon="12.785090">
 <ele>743.74</ele>
 <time>2010-07-08T13:06:51Z</time>
 </trkpt>
 <trkpt lat="47.289791" lon="12.785191">
 <ele>743.27</ele>
 <time>2010-07-08T13:07:02Z</time>
 </trkpt>
 <trkpt lat="47.290283" lon="12.785274">
 <ele>743.51</ele>
 <time>2010-07-08T13:07:11Z</time>
 </trkpt>
 <trkpt lat="47.290833" lon="12.785366">
 <ele>743.13</ele>
 <time>2010-07-08T13:07:21Z</time>
 </trkpt>
 <trkpt lat="47.291393" lon="12.785457">
 <ele>743.15</ele>
 <time>2010-07-08T13:07:31Z</time>
 </trkpt>
 <trkpt lat="47.291943" lon="12.785528">
 <ele>742.71</ele>
 <time>2010-07-08T13:07:41Z</time>
 </trkpt>
 <trkpt lat="47.292496" lon="12.785588">
 <ele>742.72</ele>
 <time>2010-07-08T13:07:51Z</time>
 </trkpt>
 <trkpt lat="47.293056" lon="12.785656">
 <ele>742.91</ele>
 <time>2010-07-08T13:08:01Z</time>
 </trkpt>
 <trkpt lat="47.293732" lon="12.785743">
 <ele>742.99</ele>
 <time>2010-07-08T13:08:13Z</time>
 </trkpt>
 <trkpt lat="47.294361" lon="12.785822">
 <ele>743.00</ele>
 <time>2010-07-08T13:08:24Z</time>
 </trkpt>
 <trkpt lat="47.294609" lon="12.785853">
 <ele>742.75</ele>
 <time>2010-07-08T13:08:29Z</time>
 </trkpt>
 <trkpt lat="47.294914" lon="12.785891">
 <ele>743.28</ele>
 <time>2010-07-08T13:08:35Z</time>
 </trkpt>
 <trkpt lat="47.295162" lon="12.785922">
 <ele>743.51</ele>
 <time>2010-07-08T13:08:40Z</time>
 </trkpt>
 <trkpt lat="47.295597" lon="12.785967">
 <ele>743.98</ele>
 <time>2010-07-08T13:08:48Z</time>
 </trkpt>
 <trkpt lat="47.295757" lon="12.785984">
 <ele>743.26</ele>
 <time>2010-07-08T13:08:51Z</time>
 </trkpt>
 <trkpt lat="47.295925" lon="12.786002">
 <ele>743.73</ele>
 <time>2010-07-08T13:08:55Z</time>
 </trkpt>
 <trkpt lat="47.296185" lon="12.786025">
 <ele>743.55</ele>
 <time>2010-07-08T13:09:01Z</time>
 </trkpt>
 <trkpt lat="47.296474" lon="12.786051">
 <ele>743.38</ele>
 <time>2010-07-08T13:09:07Z</time>
 </trkpt>
 <trkpt lat="47.296726" lon="12.786079">
 <ele>744.28</ele>
 <time>2010-07-08T13:09:13Z</time>
 </trkpt>
 <trkpt lat="47.296989" lon="12.786108">
 <ele>744.12</ele>
 <time>2010-07-08T13:09:19Z</time>
 </trkpt>
 <trkpt lat="47.297089" lon="12.786126">
 <ele>743.99</ele>
 <time>2010-07-08T13:09:21Z</time>
 </trkpt>
 <trkpt lat="47.297348" lon="12.786249">
 <ele>744.14</ele>
 <time>2010-07-08T13:09:26Z</time>
 </trkpt>
 <trkpt lat="47.297382" lon="12.786292">
 <ele>744.15</ele>
 <time>2010-07-08T13:09:27Z</time>
 </trkpt>
 <trkpt lat="47.297489" lon="12.786545">
 <ele>744.39</ele>
 <time>2010-07-08T13:09:32Z</time>
 </trkpt>
 <trkpt lat="47.297543" lon="12.786709">
 <ele>744.28</ele>
 <time>2010-07-08T13:09:38Z</time>
 </trkpt>
 <trkpt lat="47.297577" lon="12.786967">
 <ele>744.62</ele>
 <time>2010-07-08T13:09:45Z</time>
 </trkpt>
 <trkpt lat="47.297581" lon="12.787035">
 <ele>744.51</ele>
 <time>2010-07-08T13:09:52Z</time>
 </trkpt>
 <trkpt lat="47.297581" lon="12.787035">
 <ele>744.78</ele>
 <time>2010-07-08T13:09:54Z</time>
 </trkpt>
 <trkpt lat="47.297604" lon="12.787018">
 <ele>744.79</ele>
 <time>2010-07-08T13:09:59Z</time>
 </trkpt>
 <trkpt lat="47.297665" lon="12.786976">
 <ele>744.59</ele>
 <time>2010-07-08T13:10:02Z</time>
 </trkpt>
 <trkpt lat="47.297771" lon="12.786927">
 <ele>744.75</ele>
 <time>2010-07-08T13:10:07Z</time>
 </trkpt>
 <trkpt lat="47.297817" lon="12.786927">
 <ele>744.54</ele>
 <time>2010-07-08T13:10:39Z</time>
 </trkpt>
 <trkpt lat="47.297886" lon="12.786900">
 <ele>744.25</ele>
 <time>2010-07-08T13:10:44Z</time>
 </trkpt>
 <trkpt lat="47.297909" lon="12.786891">
 <ele>744.26</ele>
 <time>2010-07-08T13:10:45Z</time>
 </trkpt>
 <trkpt lat="47.298058" lon="12.787229">
 <ele>743.78</ele>
 <time>2010-07-08T13:10:51Z</time>
 </trkpt>
 <trkpt lat="47.298233" lon="12.787591">
 <ele>743.41</ele>
 <time>2010-07-08T13:10:59Z</time>
 </trkpt>
 <trkpt lat="47.298256" lon="12.787640">
 <ele>743.53</ele>
 <time>2010-07-08T13:11:00Z</time>
 </trkpt>
 <trkpt lat="47.298443" lon="12.788023">
 <ele>743.21</ele>
 <time>2010-07-08T13:11:07Z</time>
 </trkpt>
 <trkpt lat="47.298717" lon="12.788580">
 <ele>743.86</ele>
 <time>2010-07-08T13:11:17Z</time>
 </trkpt>
 <trkpt lat="47.298996" lon="12.789149">
 <ele>744.33</ele>
 <time>2010-07-08T13:11:27Z</time>
 </trkpt>
 <trkpt lat="47.299217" lon="12.789593">
 <ele>744.23</ele>
 <time>2010-07-08T13:11:35Z</time>
 </trkpt>
 <trkpt lat="47.299240" lon="12.789645">
 <ele>744.35</ele>
 <time>2010-07-08T13:11:36Z</time>
 </trkpt>
 <trkpt lat="47.299290" lon="12.789746">
 <ele>744.40</ele>
 <time>2010-07-08T13:11:38Z</time>
 </trkpt>
 <trkpt lat="47.299488" lon="12.790167">
 <ele>744.44</ele>
 <time>2010-07-08T13:11:45Z</time>
 </trkpt>
 <trkpt lat="47.299770" lon="12.790774">
 <ele>744.16</ele>
 <time>2010-07-08T13:11:54Z</time>
 </trkpt>
 <trkpt lat="47.300030" lon="12.791338">
 <ele>743.44</ele>
 <time>2010-07-08T13:12:02Z</time>
 </trkpt>
 <trkpt lat="47.300228" lon="12.791765">
 <ele>743.34</ele>
 <time>2010-07-08T13:12:08Z</time>
 </trkpt>
 <trkpt lat="47.300476" lon="12.792122">
 <ele>743.05</ele>
 <time>2010-07-08T13:12:14Z</time>
 </trkpt>
 <trkpt lat="47.300518" lon="12.792195">
 <ele>743.06</ele>
 <time>2010-07-08T13:12:15Z</time>
 </trkpt>
 <trkpt lat="47.300968" lon="12.792764">
 <ele>743.33</ele>
 <time>2010-07-08T13:12:26Z</time>
 </trkpt>
 <trkpt lat="47.301102" lon="12.792906">
 <ele>743.59</ele>
 <time>2010-07-08T13:12:29Z</time>
 </trkpt>
 <trkpt lat="47.301456" lon="12.793287">
 <ele>743.97</ele>
 <time>2010-07-08T13:12:37Z</time>
 </trkpt>
 <trkpt lat="47.301819" lon="12.793655">
 <ele>743.87</ele>
 <time>2010-07-08T13:12:46Z</time>
 </trkpt>
 <trkpt lat="47.301846" lon="12.793683">
 <ele>744.03</ele>
 <time>2010-07-08T13:12:47Z</time>
 </trkpt>
 <trkpt lat="47.301796" lon="12.793900">
 <ele>744.52</ele>
 <time>2010-07-08T13:12:52Z</time>
 </trkpt>
 <trkpt lat="47.301876" lon="12.793987">
 <ele>744.55</ele>
 <time>2010-07-08T13:12:57Z</time>
 </trkpt>
 <trkpt lat="47.301895" lon="12.794019">
 <ele>744.33</ele>
 <time>2010-07-08T13:12:58Z</time>
 </trkpt>
 <trkpt lat="47.302094" lon="12.794338">
 <ele>743.07</ele>
 <time>2010-07-08T13:13:05Z</time>
 </trkpt>
 <trkpt lat="47.302246" lon="12.794575">
 <ele>742.91</ele>
 <time>2010-07-08T13:13:10Z</time>
 </trkpt>
 <trkpt lat="47.302429" lon="12.794759">
 <ele>743.93</ele>
 <time>2010-07-08T13:13:16Z</time>
 </trkpt>
 <trkpt lat="47.302429" lon="12.794759">
 <ele>743.90</ele>
 <time>2010-07-08T13:13:21Z</time>
 </trkpt>
 <trkpt lat="47.302887" lon="12.794821">
 <ele>743.06</ele>
 <time>2010-07-08T13:13:27Z</time>
 </trkpt>
 <trkpt lat="47.302979" lon="12.794824">
 <ele>742.81</ele>
 <time>2010-07-08T13:13:29Z</time>
 </trkpt>
 <trkpt lat="47.303391" lon="12.794835">
 <ele>742.71</ele>
 <time>2010-07-08T13:13:37Z</time>
 </trkpt>
 <trkpt lat="47.303768" lon="12.794843">
 <ele>742.88</ele>
 <time>2010-07-08T13:13:44Z</time>
 </trkpt>
 <trkpt lat="47.304100" lon="12.794756">
 <ele>742.00</ele>
 <time>2010-07-08T13:13:50Z</time>
 </trkpt>
 <trkpt lat="47.304264" lon="12.794714">
 <ele>741.85</ele>
 <time>2010-07-08T13:13:53Z</time>
 </trkpt>
 <trkpt lat="47.304619" lon="12.794577">
 <ele>741.86</ele>
 <time>2010-07-08T13:14:00Z</time>
 </trkpt>
 <trkpt lat="47.304909" lon="12.794368">
 <ele>741.56</ele>
 <time>2010-07-08T13:14:07Z</time>
 </trkpt>
 <trkpt lat="47.304962" lon="12.794330">
 <ele>741.77</ele>
 <time>2010-07-08T13:14:10Z</time>
 </trkpt>
 <trkpt lat="47.305328" lon="12.794378">
 <ele>742.56</ele>
 <time>2010-07-08T13:14:14Z</time>
 </trkpt>
 <trkpt lat="47.305389" lon="12.794781">
 <ele>742.95</ele>
 <time>2010-07-08T13:14:19Z</time>
 </trkpt>
 <trkpt lat="47.305393" lon="12.794810">
 <ele>743.23</ele>
 <time>2010-07-08T13:14:23Z</time>
 </trkpt>
 <trkpt lat="47.305412" lon="12.795037">
 <ele>743.30</ele>
 <time>2010-07-08T13:14:29Z</time>
 </trkpt>
 <trkpt lat="47.305412" lon="12.795037">
 <ele>743.46</ele>
 <time>2010-07-08T13:14:30Z</time>
 </trkpt>
 <trkpt lat="47.305328" lon="12.795112">
 <ele>743.22</ele>
 <time>2010-07-08T13:14:34Z</time>
 </trkpt>
 <trkpt lat="47.305401" lon="12.795086">
 <ele>742.67</ele>
 <time>2010-07-08T13:14:36Z</time>
 </trkpt>
 <trkpt lat="47.305744" lon="12.794965">
 <ele>741.83</ele>
 <time>2010-07-08T13:14:43Z</time>
 </trkpt>
 <trkpt lat="47.306240" lon="12.794792">
 <ele>741.22</ele>
 <time>2010-07-08T13:14:52Z</time>
 </trkpt>
 <trkpt lat="47.306934" lon="12.794579">
 <ele>741.10</ele>
 <time>2010-07-08T13:15:04Z</time>
 </trkpt>
 <trkpt lat="47.307457" lon="12.794407">
 <ele>740.57</ele>
 <time>2010-07-08T13:15:13Z</time>
 </trkpt>
 <trkpt lat="47.307907" lon="12.794294">
 <ele>741.11</ele>
 <time>2010-07-08T13:15:21Z</time>
 </trkpt>
 <trkpt lat="47.308113" lon="12.794277">
 <ele>741.93</ele>
 <time>2010-07-08T13:15:26Z</time>
 </trkpt>
 <trkpt lat="47.308140" lon="12.794280">
 <ele>742.05</ele>
 <time>2010-07-08T13:15:27Z</time>
 </trkpt>
 <trkpt lat="47.308201" lon="12.794287">
 <ele>742.27</ele>
 <time>2010-07-08T13:15:30Z</time>
 </trkpt>
 <trkpt lat="47.308201" lon="12.794287">
 <ele>741.49</ele>
 <time>2010-07-08T13:15:35Z</time>
 </trkpt>
 <trkpt lat="47.308872" lon="12.794368">
 <ele>740.29</ele>
 <time>2010-07-08T13:15:43Z</time>
 </trkpt>
 <trkpt lat="47.309334" lon="12.794469">
 <ele>740.49</ele>
 <time>2010-07-08T13:15:51Z</time>
 </trkpt>
 <trkpt lat="47.309780" lon="12.794605">
 <ele>740.71</ele>
 <time>2010-07-08T13:15:59Z</time>
 </trkpt>
 <trkpt lat="47.310169" lon="12.794728">
 <ele>740.13</ele>
 <time>2010-07-08T13:16:06Z</time>
 </trkpt>
 <trkpt lat="47.310726" lon="12.794893">
 <ele>740.16</ele>
 <time>2010-07-08T13:16:16Z</time>
 </trkpt>
 <trkpt lat="47.311157" lon="12.795008">
 <ele>740.21</ele>
 <time>2010-07-08T13:16:24Z</time>
 </trkpt>
 <trkpt lat="47.311497" lon="12.795091">
 <ele>740.37</ele>
 <time>2010-07-08T13:16:31Z</time>
 </trkpt>
 <trkpt lat="47.311649" lon="12.795112">
 <ele>740.46</ele>
 <time>2010-07-08T13:16:34Z</time>
 </trkpt>
 <trkpt lat="47.311890" lon="12.795124">
 <ele>740.81</ele>
 <time>2010-07-08T13:16:39Z</time>
 </trkpt>
 <trkpt lat="47.311974" lon="12.795124">
 <ele>741.17</ele>
 <time>2010-07-08T13:16:41Z</time>
 </trkpt>
 <trkpt lat="47.312042" lon="12.795124">
 <ele>741.55</ele>
 <time>2010-07-08T13:16:46Z</time>
 </trkpt>
 <trkpt lat="47.312424" lon="12.794948">
 <ele>742.06</ele>
 <time>2010-07-08T13:16:51Z</time>
 </trkpt>
 <trkpt lat="47.312607" lon="12.794864">
 <ele>743.16</ele>
 <time>2010-07-08T13:16:56Z</time>
 </trkpt>
 <trkpt lat="47.312855" lon="12.794769">
 <ele>742.65</ele>
 <time>2010-07-08T13:17:01Z</time>
 </trkpt>
 <trkpt lat="47.313103" lon="12.794674">
 <ele>740.06</ele>
 <time>2010-07-08T13:17:05Z</time>
 </trkpt>
 <trkpt lat="47.313435" lon="12.794546">
 <ele>739.51</ele>
 <time>2010-07-08T13:17:10Z</time>
 </trkpt>
 <trkpt lat="47.313889" lon="12.794441">
 <ele>739.95</ele>
 <time>2010-07-08T13:17:17Z</time>
 </trkpt>
 <trkpt lat="47.314194" lon="12.794411">
 <ele>740.00</ele>
 <time>2010-07-08T13:17:22Z</time>
 </trkpt>
 <trkpt lat="47.314510" lon="12.794404">
 <ele>739.31</ele>
 <time>2010-07-08T13:17:27Z</time>
 </trkpt>
 <trkpt lat="47.314838" lon="12.794396">
 <ele>739.84</ele>
 <time>2010-07-08T13:17:33Z</time>
 </trkpt>
 <trkpt lat="47.315113" lon="12.794451">
 <ele>740.24</ele>
 <time>2010-07-08T13:17:39Z</time>
 </trkpt>
 <trkpt lat="47.315315" lon="12.794504">
 <ele>741.17</ele>
 <time>2010-07-08T13:17:44Z</time>
 </trkpt>
 <trkpt lat="47.315552" lon="12.794489">
 <ele>742.24</ele>
 <time>2010-07-08T13:17:50Z</time>
 </trkpt>
 <trkpt lat="47.315662" lon="12.794466">
 <ele>743.41</ele>
 <time>2010-07-08T13:17:55Z</time>
 </trkpt>
 <trkpt lat="47.315811" lon="12.794438">
 <ele>743.03</ele>
 <time>2010-07-08T13:18:00Z</time>
 </trkpt>
 <trkpt lat="47.315968" lon="12.794444">
 <ele>742.26</ele>
 <time>2010-07-08T13:18:05Z</time>
 </trkpt>
 <trkpt lat="47.316013" lon="12.794446">
 <ele>741.79</ele>
 <time>2010-07-08T13:18:06Z</time>
 </trkpt>
 <trkpt lat="47.316254" lon="12.794455">
 <ele>739.89</ele>
 <time>2010-07-08T13:18:10Z</time>
 </trkpt>
 <trkpt lat="47.316624" lon="12.794469">
 <ele>739.10</ele>
 <time>2010-07-08T13:18:16Z</time>
 </trkpt>
 <trkpt lat="47.317024" lon="12.794492">
 <ele>739.27</ele>
 <time>2010-07-08T13:18:23Z</time>
 </trkpt>
 <trkpt lat="47.317482" lon="12.794542">
 <ele>739.44</ele>
 <time>2010-07-08T13:18:31Z</time>
 </trkpt>
 <trkpt lat="47.317970" lon="12.794601">
 <ele>739.66</ele>
 <time>2010-07-08T13:18:40Z</time>
 </trkpt>
 <trkpt lat="47.318237" lon="12.794650">
 <ele>739.59</ele>
 <time>2010-07-08T13:18:45Z</time>
 </trkpt>
 <trkpt lat="47.318447" lon="12.794689">
 <ele>739.40</ele>
 <time>2010-07-08T13:18:49Z</time>
 </trkpt>
 <trkpt lat="47.318768" lon="12.794787">
 <ele>739.60</ele>
 <time>2010-07-08T13:18:56Z</time>
 </trkpt>
 <trkpt lat="47.319016" lon="12.794892">
 <ele>739.70</ele>
 <time>2010-07-08T13:19:02Z</time>
 </trkpt>
 <trkpt lat="47.319210" lon="12.795040">
 <ele>739.67</ele>
 <time>2010-07-08T13:19:07Z</time>
 </trkpt>
 <trkpt lat="47.319469" lon="12.795359">
 <ele>739.77</ele>
 <time>2010-07-08T13:19:15Z</time>
 </trkpt>
 <trkpt lat="47.319576" lon="12.795513">
 <ele>740.27</ele>
 <time>2010-07-08T13:19:19Z</time>
 </trkpt>
 <trkpt lat="47.319809" lon="12.795880">
 <ele>740.48</ele>
 <time>2010-07-08T13:19:26Z</time>
 </trkpt>
 <trkpt lat="47.319901" lon="12.796029">
 <ele>740.27</ele>
 <time>2010-07-08T13:19:29Z</time>
 </trkpt>
 <trkpt lat="47.320011" lon="12.796220">
 <ele>740.26</ele>
 <time>2010-07-08T13:19:33Z</time>
 </trkpt>
 <trkpt lat="47.320103" lon="12.796369">
 <ele>740.69</ele>
 <time>2010-07-08T13:19:36Z</time>
 </trkpt>
 <trkpt lat="47.320339" lon="12.796768">
 <ele>741.06</ele>
 <time>2010-07-08T13:19:44Z</time>
 </trkpt>
 <trkpt lat="47.320423" lon="12.796908">
 <ele>741.31</ele>
 <time>2010-07-08T13:19:49Z</time>
 </trkpt>
 <trkpt lat="47.320423" lon="12.796908">
 <ele>741.31</ele>
 <time>2010-07-08T13:19:50Z</time>
 </trkpt>
 </trkseg>
 </trk>
</gpx>
